[[{"header":{"parameterUnit":"m.s-1","parameterCategory":1,"la1":30.6,"la2":29.2853,"lo1":-89.7004,"lo2":-87.6739,"dy":0.0162,"dx":0.0183,"nx":112,"ny":82,"refTime":"2023-07-24T12:00:00:Z","depth":0,"parameterNumber":2,"parameterNumberName":"U-component_of_WINDS"},"data":[0.0,0.0,0.0,0.0,0.0,0.0,0.0,0.0,0.0,0.0,0.0,0.0,0.0,0.0,0.0,0.0,0.0,0.0,0.0,0.0,0.0,0.0,0.0,0.0,0.0,0.0,0.0,0.0,0.0,0.0,0.0,0.0,0.0,0.0,0.0,0.0,0.0,0.0,0.0,0.0,0.0,0.0,0.0,0.0,0.0,0.0,0.0,0.0,0.0,0.0,0.0,0.0,0.0,0.0,0.0,0.0,0.0,0.0,0.0,0.0,0.0,0.0,0.0,0.0,0.0,0.0,0.0,0.0,0.0,0.0,0.0,0.0,0.0,0.0,0.0,0.0,0.0,0.0,0.0,0.0,0.0,0.0,0.0,0.0,0.0,0.0,0.0,0.0,0.0,0.0,1.2221,1.3682,1.4341,1.5106,1.6122,1.549,1.4891,1.4547,0.0,0.0,0.0,0.0,0.0,0.0,0.0,0.0,0.0,0.0,0.0,0.0,0.0,0.0,0.0,0.0,0.0,0.0,0.0,0.0,0.0,0.0,0.0,0.0,0.0,0.0,0.0,0.0,0.0,0.0,0.0,0.0,0.0,0.0,0.0,0.0,0.0,0.0,0.0,0.0,0.0,0.0,0.0,0.0,0.0,0.0,0.0,0.0,0.0,0.0,0.0,0.0,0.0,0.0,0.0,0.0,0.0,0.0,0.0,0.0,0.0,0.0,0.0,0.0,0.0,0.0,0.0,0.0,0.0,0.0,0.0,0.0,0.0,0.0,0.0,0.0,0.0,0.0,0.0,0.0,0.0,0.0,0.0,0.0,0.0,0.0,0.0,0.0,0.0,0.0,0.0,0.0,0.0,0.0,0.0,0.0,0.0,0.0,0.0,0.0,0.0,0.0,0.0,0.0,1.0814,1.3665,1.3823,1.3789,1.3975,1.3912,1.3062,1.1188,0.0,0.0,0.0,0.0,0.0,0.0,0.0,0.0,0.0,0.0,0.0,0.0,0.0,0.0,0.0,0.0,0.0,0.0,0.0,0.0,0.0,0.0,0.0,0.0,0.0,0.0,0.0,0.0,0.0,0.0,0.0,0.0,0.0,0.0,0.0,0.0,0.0,0.0,0.0,0.0,0.0,0.0,0.0,0.0,0.0,0.0,0.0,0.0,0.0,0.0,0.0,0.0,0.0,0.0,0.0,0.0,0.0,0.0,0.0,0.0,0.0,0.0,0.0,0.0,0.0,0.0,0.0,0.0,0.0,0.0,0.0,0.0,0.0,0.0,0.0,0.0,0.0,0.0,0.0,0.0,0.0,0.0,0.0,0.0,0.0,0.0,0.0,0.0,0.0,0.0,0.0,0.0,0.0,0.0,0.0,0.0,0.0,0.0,0.0,0.0,0.0,0.0,0.0,0.8958,0.9694,1.203,1.2448,1.2983,1.3968,1.428,1.3234,1.0477,0.698,0.0,0.0,0.0,0.0,0.0,0.0,0.0,0.0,0.0,0.0,0.0,0.0,0.0,0.0,0.0,0.0,0.0,0.0,0.0,0.0,0.0,0.0,0.0,0.0,0.0,0.0,0.0,0.0,0.0,0.0,0.0,0.0,0.0,0.0,0.0,0.0,0.0,0.0,0.0,0.0,0.0,0.0,0.0,0.0,0.0,0.0,0.0,0.0,0.0,0.0,0.0,0.0,0.0,0.0,0.0,0.0,0.0,0.0,0.0,0.0,0.0,0.0,0.0,0.0,0.0,0.0,0.0,0.0,0.0,0.0,0.0,0.0,0.0,0.0,0.0,0.0,0.0,0.0,0.0,0.0,0.0,0.0,0.0,0.0,0.0,0.0,0.0,0.0,0.0,0.0,0.0,0.0,0.0,0.0,0.0,0.0,0.0,0.0,0.0,0.0,0.0,0.0,0.8943,0.968,1.1124,1.1824,1.2629,1.3672,1.4375,1.3479,1.0495,0.7801,0.0,0.0,0.0,0.0,0.0,0.0,0.0,0.0,0.0,0.0,0.0,0.0,0.0,0.0,0.0,0.0,0.0,0.0,0.0,0.0,0.0,0.0,0.0,0.0,0.0,0.0,0.0,0.0,0.0,0.0,0.0,0.0,0.0,0.0,0.0,0.0,0.0,0.0,0.0,0.0,0.0,0.0,0.0,0.0,0.0,0.0,0.0,0.0,0.0,0.0,0.0,0.0,0.0,0.0,0.0,0.0,0.0,0.0,0.0,0.0,0.0,0.0,0.0,0.0,0.0,0.0,0.0,0.0,0.0,0.0,0.0,0.0,0.0,0.0,0.0,0.0,0.0,0.0,0.0,0.0,0.0,0.0,0.0,0.0,0.0,0.0,0.0,0.0,0.0,0.0,0.0,0.0,0.0,0.0,0.0,0.0,0.0,0.0,0.0,0.0,0.0,0.0,0.9718,1.1636,1.255,1.3086,1.2901,1.1712,1.2892,1.2733,1.0446,1.0067,0.0,0.0,0.0,0.0,0.0,0.0,0.0,0.0,0.0,0.0,0.0,0.0,0.0,0.0,0.0,0.0,0.0,0.0,0.0,0.0,0.0,0.0,0.0,0.0,0.0,0.0,0.0,0.0,0.0,0.0,0.0,0.0,0.0,0.0,0.0,0.0,0.0,0.0,0.0,0.0,0.0,0.0,0.0,0.0,0.0,0.0,0.0,0.0,0.0,0.0,0.0,0.0,0.0,0.0,0.0,0.0,0.0,0.0,0.0,0.0,0.0,0.0,0.0,0.0,0.0,0.0,0.0,0.0,0.0,0.0,0.0,0.0,0.0,0.0,0.0,0.0,0.0,0.0,0.0,0.0,0.0,0.0,0.0,0.0,0.0,0.0,0.0,0.0,0.0,0.0,0.0,0.0,0.0,0.0,0.0,0.0,0.0,0.0,0.0,0.0,0.0,0.0,1.0655,1.1508,0.0,1.3539,1.2828,1.2261,1.1646,1.0025,0.7054,0.0,0.0,0.0,0.0,0.0,0.0,0.0,0.0,0.0,0.0,0.0,0.0,0.0,0.0,0.0,0.0,0.0,0.0,0.0,0.0,0.0,0.0,0.0,0.0,0.0,0.0,0.0,0.0,0.0,0.0,0.0,0.0,0.0,0.0,0.0,0.0,0.0,0.0,0.0,0.0,0.0,0.0,0.0,0.0,0.0,0.0,0.0,0.0,0.0,0.0,0.0,0.0,0.0,0.0,0.0,0.0,0.0,0.0,0.0,0.0,0.0,0.0,0.0,0.0,0.0,0.0,0.0,0.0,0.0,0.0,0.0,0.0,0.0,0.0,0.0,0.0,0.0,0.0,0.0,0.0,0.0,0.0,0.0,0.0,0.0,0.0,0.0,0.0,0.0,0.0,0.0,0.0,0.0,0.0,0.0,0.0,0.0,0.0,0.0,0.0,0.0,0.0,1.1495,1.1491,1.2168,0.0,1.4087,1.3221,1.2489,1.1218,0.931,0.6589,0.0,0.0,0.0,0.0,0.0,0.0,0.0,0.0,0.0,0.0,0.0,0.0,0.0,0.0,0.0,0.0,0.0,0.0,0.0,0.0,0.0,0.0,0.0,0.0,0.0,0.0,0.0,0.0,0.0,0.0,0.0,0.0,0.0,0.0,0.0,0.0,0.0,0.0,0.0,0.0,0.0,0.0,0.0,0.0,0.0,0.0,0.0,0.0,0.0,0.0,0.0,0.0,0.0,0.0,0.0,0.0,0.0,0.0,0.0,0.0,0.0,0.0,0.0,0.0,0.0,0.0,0.0,0.0,0.0,0.0,0.0,0.0,0.0,0.0,0.0,0.0,0.0,0.0,0.0,0.0,0.0,0.0,0.0,0.0,0.0,0.0,0.0,0.0,0.0,0.0,0.0,0.0,0.0,0.0,0.0,0.0,0.0,0.0,0.0,0.0,0.0,0.0,0.9829,1.2193,1.401,1.455,1.4895,1.4199,1.2014,1.1745,1.1172,0.0,0.0,0.0,0.0,0.0,0.0,0.0,0.0,0.0,0.0,0.0,0.0,0.0,0.0,0.0,0.0,0.0,0.0,0.0,0.0,0.0,0.0,0.0,0.0,0.0,0.0,0.0,0.0,0.0,0.0,0.0,0.0,0.0,0.0,0.0,0.0,0.0,0.0,0.0,0.0,0.0,0.0,0.0,0.0,0.0,0.0,0.0,0.0,0.0,0.0,0.0,0.0,0.0,0.0,0.0,0.0,0.0,0.0,0.0,0.0,0.0,0.0,0.0,0.0,0.0,0.0,0.0,0.0,0.0,0.0,0.0,0.0,0.0,0.0,0.0,0.0,0.0,0.0,0.0,0.0,0.0,0.0,0.0,0.0,0.0,0.0,0.0,0.0,0.0,0.0,0.0,0.0,0.0,0.0,0.0,0.0,0.0,0.0,0.0,0.0,0.0,0.0,0.0,1.0723,1.2861,1.446,1.491,1.453,1.3948,1.3195,1.216,1.1056,0.9907,0.0,0.0,0.0,0.0,0.0,0.0,0.0,0.0,0.0,0.0,0.0,0.0,0.0,0.0,0.0,0.0,0.0,0.0,0.0,0.0,0.0,0.0,0.0,0.0,0.0,0.0,0.0,0.0,0.0,0.0,0.0,0.0,0.0,0.0,0.0,0.0,0.0,0.0,0.0,0.0,0.0,0.0,0.0,0.0,0.0,0.0,0.0,0.0,0.0,0.0,0.0,0.0,0.0,0.0,0.0,0.0,0.0,0.0,0.0,0.0,0.0,0.0,0.0,0.0,0.0,0.0,0.0,0.0,0.0,0.0,0.0,0.0,0.0,0.0,0.0,0.0,0.0,0.0,0.0,0.0,0.0,0.0,0.0,0.0,0.0,0.0,0.0,0.0,0.0,0.0,0.0,0.0,0.0,0.0,0.0,0.0,0.0,0.0,0.0,0.0,0.0,0.0,1.1386,1.3601,1.5154,1.5072,1.4608,1.4052,1.3429,1.2344,1.1127,0.9809,0.0,0.0,0.0,0.0,0.0,0.0,0.0,0.0,0.0,0.0,0.0,0.0,0.0,0.0,0.0,0.0,0.0,0.0,0.0,0.0,0.0,0.0,0.0,0.0,0.0,0.0,0.0,0.0,0.0,0.0,0.0,0.0,0.0,0.0,0.0,0.0,0.0,0.0,0.0,0.0,0.0,0.0,0.0,0.0,0.0,0.0,0.0,0.0,0.0,0.0,0.0,0.0,0.0,0.0,0.0,0.0,0.0,0.0,0.0,0.0,0.0,0.0,0.0,0.0,0.0,0.0,0.0,0.0,0.0,0.0,0.0,0.0,0.0,0.0,0.0,0.0,0.0,0.0,0.0,0.0,0.0,0.0,0.0,0.0,0.0,0.0,0.0,0.0,0.0,0.0,0.0,0.0,0.0,0.0,0.0,0.0,0.0,0.0,0.0,0.0,0.0,0.0,1.205,1.4473,1.5961,1.5304,1.5037,1.4449,1.3306,1.2617,1.1606,1.0104,0.0,0.0,0.0,0.0,0.0,0.0,0.0,0.0,0.0,0.0,0.0,0.0,0.0,0.0,0.0,0.0,0.0,0.0,0.0,0.0,0.0,0.0,0.0,0.0,0.0,0.0,0.0,0.0,0.0,0.0,0.0,0.0,0.0,0.0,0.0,0.0,0.0,0.0,0.0,0.0,0.0,0.0,0.0,0.0,0.0,0.0,0.0,0.0,0.0,0.0,0.0,0.0,0.0,0.0,0.0,0.0,0.0,0.0,0.0,0.0,1.175,0.0,0.0,0.0,0.0,0.0,0.0,0.0,0.0,0.0,0.0,0.0,0.0,0.0,0.0,0.0,0.0,0.0,0.0,0.0,0.0,0.0,0.0,0.0,0.0,0.0,0.0,0.0,0.0,0.0,0.0,0.0,0.0,0.0,0.0,0.0,0.0,0.0,0.0,0.0,0.0,0.0,1.4118,1.5462,1.6523,1.7008,1.5804,1.5147,1.5529,1.4688,1.3838,1.3177,1.0508,0.0,0.0,0.0,0.0,0.0,0.0,0.0,0.0,0.0,0.0,0.0,0.0,0.0,0.0,0.0,0.0,0.0,0.0,0.0,0.0,0.0,0.0,0.0,0.0,0.0,0.0,0.0,0.0,0.0,0.0,0.0,0.0,0.0,0.0,0.0,0.0,0.0,0.0,0.0,0.0,0.0,0.0,0.0,0.0,0.0,0.0,0.0,0.0,0.0,0.0,0.0,0.0,0.0,0.0,0.0,0.0,0.0,0.0,0.0,0.0,1.2826,0.0,0.0,0.0,0.0,0.0,0.0,0.0,0.0,0.0,0.0,0.0,0.0,0.0,0.0,0.0,0.0,0.0,0.0,0.0,0.0,0.0,0.0,0.0,0.0,0.0,0.0,0.0,0.0,0.0,0.0,0.0,0.0,0.0,0.0,0.0,0.0,0.0,0.0,0.0,0.0,1.497,1.6557,1.7543,1.7254,1.6284,1.5621,1.5499,1.4921,1.4453,1.4203,1.1148,0.0,0.0,0.0,0.0,0.0,0.0,0.0,0.0,0.0,0.0,0.0,0.0,0.0,0.0,0.0,0.0,0.0,0.0,0.0,0.0,0.0,0.0,0.0,0.0,0.0,0.0,0.0,0.0,0.0,0.0,0.0,0.0,0.0,0.0,0.0,0.0,0.0,0.0,0.0,0.0,0.0,0.0,0.0,0.0,0.0,0.0,0.0,0.0,0.0,0.0,0.0,0.0,0.0,1.4358,1.3953,1.3739,1.7107,1.8838,1.8995,1.5918,1.519,1.5992,1.3546,0.0,0.0,0.0,0.0,0.0,0.0,0.0,0.0,0.0,0.0,0.0,0.0,0.0,0.0,0.0,0.0,0.0,0.0,0.0,0.0,0.0,0.0,0.0,0.0,2.128,2.0588,1.7903,0.0,0.0,0.0,0.0,0.0,0.0,0.0,0.0,0.0,0.0,0.0,1.6068,1.7905,1.8846,1.7772,1.6763,1.5976,1.5521,1.5319,1.4981,1.4367,1.1726,1.006,0.0,0.0,0.0,0.0,0.0,0.0,0.0,0.0,0.0,0.0,0.0,0.0,0.0,0.0,0.0,0.0,0.0,0.0,0.0,0.0,0.0,0.0,0.0,0.0,0.0,0.0,0.0,0.0,0.0,0.0,0.0,0.0,1.6516,1.844,0.0,0.0,0.0,0.0,0.0,0.0,0.0,0.0,0.0,0.0,0.0,0.0,0.0,1.522,1.6235,1.6215,1.5668,1.4676,1.8102,1.8336,1.5984,2.2017,2.4493,2.3879,2.0462,0.0,1.7503,1.6113,0.0,0.0,0.0,0.0,0.0,0.0,0.0,0.0,0.0,0.0,0.0,0.0,0.0,0.0,0.0,0.0,0.0,0.0,0.0,0.0,0.0,0.0,2.4882,2.4973,2.4997,2.5654,0.0,2.4179,1.99,1.8664,1.7454,0.0,0.0,0.0,0.0,0.0,0.0,0.0,1.9531,1.9963,2.0454,2.1075,1.7611,1.6271,1.8737,1.8675,1.7336,1.4647,1.4217,1.2742,0.9831,0.99,0.0,0.0,0.0,0.0,0.0,0.0,0.0,0.0,0.0,0.0,0.0,0.0,0.0,0.0,0.0,0.0,0.0,0.0,0.0,0.0,0.0,0.0,0.0,0.0,0.0,0.0,0.0,0.0,0.0,1.4696,1.8378,2.007,2.0257,2.0532,0.0,0.0,0.0,0.0,0.0,0.0,0.0,0.0,0.0,2.2094,2.1532,2.1055,2.0713,2.1327,1.9633,1.5801,2.1784,2.3576,2.1744,2.4235,2.5061,2.4381,2.2495,2.0835,1.9336,1.7502,1.5752,1.425,0.0,0.0,0.0,0.0,1.3922,1.4128,1.3996,1.42,1.4369,1.3447,0.0,0.0,0.0,0.0,0.0,0.0,0.0,0.0,0.0,0.0,2.6133,2.8062,2.8412,2.8749,3.0253,2.7676,2.4603,0.0,2.1619,2.0187,1.843,0.0,0.0,0.0,0.0,2.0118,2.0932,2.1144,2.1468,2.2074,1.9504,1.8245,1.9499,1.9468,1.8798,1.7446,1.7527,1.6097,1.2712,1.2646,1.2745,0.0,0.0,0.0,0.0,0.0,0.0,0.0,0.0,0.0,0.0,0.0,0.0,0.0,0.0,0.0,0.0,0.0,0.0,0.0,0.0,0.0,0.0,0.0,0.0,0.0,0.0,0.0,0.0,1.8087,2.1085,2.2631,2.2573,2.2807,0.0,0.0,0.0,0.0,0.0,0.0,2.539,2.6067,2.6881,2.7892,2.7075,2.6086,2.4927,2.5064,2.3243,1.9615,2.4838,2.7104,2.6564,2.5914,2.5004,2.3844,2.3925,2.2959,2.1147,1.8995,1.7556,1.6693,1.636,1.5999,1.5686,1.5963,1.5977,1.5936,1.6425,1.6924,1.7216,1.6475,1.6844,1.7294,1.5737,0.0,0.0,0.0,0.0,2.2607,2.587,2.6722,2.7361,2.9956,3.046,3.0367,3.04,2.9736,2.8473,0.0,2.5352,2.4188,2.1691,0.0,0.0,0.0,0.0,2.1881,2.2427,2.2652,2.2833,2.3006,2.1768,2.09,2.086,2.086,2.0522,1.9694,1.9782,1.8727,1.6224,1.6129,1.6149,1.6243,0.0,0.0,0.0,0.0,0.0,0.0,0.0,0.0,0.0,0.0,0.0,0.0,0.0,0.0,0.0,0.0,0.0,0.0,0.0,0.0,0.0,0.0,0.0,0.0,0.0,0.0,0.0,0.0,0.0,2.7146,2.5061,0.0,0.0,0.0,0.0,2.7066,2.7206,2.7226,2.7097,2.8444,3.0212,3.2513,3.1408,2.9549,2.6887,2.5901,2.612,2.754,2.6972,2.7346,2.841,2.7683,2.5833,2.3251,2.5372,2.5021,2.2858,2.1225,1.9331,1.7491,1.7097,1.6808,1.6667,1.6915,1.7316,1.7618,1.7272,1.7449,1.7818,1.8156,1.9382,2.0321,1.7826,1.841,0.0,0.0,2.5243,2.5907,2.8771,2.951,2.9618,3.0118,3.0213,3.018,3.0122,3.0065,2.936,0.0,2.733,2.6973,2.4126,0.0,2.1126,2.332,2.4503,2.5099,2.4942,2.5038,2.5048,2.4796,2.429,2.4063,2.4241,2.4258,2.2967,1.9988,1.9915,1.9907,1.9755,1.9736,1.9681,1.9563,1.9495,0.0,0.0,0.0,0.0,0.0,0.0,0.0,0.0,0.0,0.0,0.0,0.0,0.0,0.0,0.0,0.0,0.0,0.0,0.0,0.0,0.0,0.0,0.0,0.0,0.0,0.0,0.0,0.0,2.5758,2.6198,0.0,2.7858,2.8389,2.8989,2.9854,2.9569,2.9377,2.9448,3.2253,3.3196,3.1856,3.2596,3.2094,3.0111,2.8607,2.8554,2.9941,2.8837,2.8172,2.7855,2.7188,2.6013,2.4566,2.5896,2.6013,2.5174,2.3535,2.1615,1.9681,1.9289,1.907,1.9049,1.9287,1.9638,2.0079,2.0177,2.0596,2.1151,2.1637,2.2071,2.2275,2.1783,2.2296,2.3724,2.721,2.8202,2.8834,3.1619,3.2329,3.2145,3.1405,3.1035,3.0843,3.0825,3.0343,2.9696,2.8957,2.9164,2.9156,2.821,2.5524,2.4138,2.5964,2.6453,2.6517,2.6225,2.6422,2.6173,2.5086,2.4613,2.4465,2.4631,2.4631,2.4204,2.3207,2.1164,2.0913,2.2938,2.3032,2.3004,2.2961,2.2862,2.1194,0.0,0.0,0.0,0.0,0.0,0.0,0.0,0.0,0.0,0.0,0.0,0.0,0.0,0.0,0.0,0.0,0.0,0.0,0.0,0.0,0.0,0.0,0.0,0.0,0.0,0.0,2.6957,2.615,2.786,2.9377,3.0113,3.0806,3.155,3.2352,3.2025,3.1724,3.1597,3.4312,3.4657,3.196,3.2872,3.2891,3.1862,3.031,2.9826,3.0512,2.9306,2.8392,2.7855,2.7121,2.6854,2.6797,2.6836,2.6726,2.6382,2.5161,2.3721,2.219,2.1417,2.1103,2.1063,2.1151,2.1326,2.1542,2.1931,2.2524,2.3243,2.4245,2.4305,2.4173,2.5112,2.5643,2.636,2.8674,3.0108,3.1372,3.3203,3.3671,3.3378,3.2249,3.1637,3.1318,3.1339,3.0862,3.0396,3.0318,3.0181,3.0147,3.0305,2.8358,2.7132,2.8175,2.8126,2.778,2.7272,2.7714,2.766,2.6543,2.522,2.4481,2.4692,2.4707,2.4802,2.4996,2.2842,2.2518,2.4613,2.4707,2.4645,2.4478,2.4481,2.2882,1.9602,0.0,0.0,0.0,0.0,0.0,0.0,0.0,0.0,0.0,0.0,0.0,0.0,0.0,0.0,0.0,0.0,0.0,0.0,0.0,0.0,0.0,0.0,0.0,2.4518,2.749,2.9499,2.8808,3.0149,3.1436,3.2318,3.3166,3.3797,3.4201,3.4398,3.4195,3.3379,3.4374,3.4394,3.3283,3.2472,3.1965,3.1895,3.0671,2.9956,2.9589,2.8316,2.8066,2.863,2.7908,2.8376,2.9743,2.8273,2.7198,2.6514,2.6078,2.5574,2.5021,2.343,2.2692,2.2528,2.2432,2.2226,2.206,2.24,2.2975,2.384,2.5758,2.6082,2.6048,2.7578,2.8276,2.8595,2.8691,3.0975,3.3364,3.3364,3.3364,3.3208,3.2485,3.1925,3.1568,3.1602,3.1584,3.1441,3.101,3.0358,2.9956,3.0142,3.0019,2.9874,2.979,2.9513,0.0,2.8146,2.8951,2.9474,2.9222,2.6291,2.4432,2.466,2.4692,2.4787,2.4964,2.4802,2.4711,2.4748,2.4726,2.4478,2.3996,2.4321,2.2978,1.9899,0.0,0.0,0.0,0.0,0.0,0.0,0.0,0.0,0.0,0.0,0.0,0.0,0.0,0.0,0.0,0.0,0.0,0.0,0.0,0.0,0.0,0.0,2.834,2.933,2.8842,2.8495,2.8913,3.0283,3.1712,3.298,3.3748,3.4156,3.4422,3.4808,3.4991,3.4761,3.3918,3.3059,3.2255,3.2723,3.2375,3.1294,3.0613,3.0309,3.0138,2.9301,2.9412,3.0322,2.9532,2.9441,2.9831,2.9951,2.8937,2.7242,2.7655,2.8021,2.8121,2.6065,2.4751,2.4133,2.4447,2.4607,2.4822,2.5342,2.58,2.6334,2.7295,2.7464,2.7538,2.8727,2.8557,2.8411,3.0698,3.1986,3.274,3.2979,3.3042,3.3001,3.2841,3.2766,3.2581,3.2028,3.151,3.1177,3.1268,3.0175,2.9373,2.9773,2.9626,2.9415,2.9246,2.9225,0.0,2.8964,2.8981,2.8943,2.8767,2.8118,2.6827,2.4737,2.4549,2.4566,2.4615,2.4601,2.4939,2.5757,2.5091,2.4425,2.3876,2.4152,2.4984,0.0,0.0,0.0,0.0,0.0,0.0,0.0,0.0,0.0,0.0,0.0,0.0,0.0,0.0,0.0,0.0,0.0,0.0,0.0,0.0,0.0,0.0,2.8511,3.0369,3.2194,3.0567,2.9518,3.0377,3.1389,3.2467,3.3682,3.4023,3.4318,3.4698,3.5033,3.5185,3.5061,3.3828,3.2702,3.1805,3.2138,3.1956,3.0973,3.0508,3.0126,2.9819,2.9543,2.9795,3.0457,2.9624,2.9468,2.9767,3.0035,2.9624,2.882,2.9375,2.9577,0.0,0.0,0.0,0.0,0.0,2.6012,2.6412,2.6901,2.7391,2.7961,2.8949,2.8751,2.834,2.9695,2.9747,3.007,3.3171,3.3119,3.2232,3.2608,3.3511,3.4357,3.4623,3.3797,3.2805,3.2309,3.1996,3.1849,3.2064,3.1445,0.0,3.1029,3.0894,3.0593,2.9922,2.9856,2.9679,2.9149,2.9406,2.9355,2.8582,2.8712,2.8178,2.6519,2.6391,0.0,0.0,0.0,2.6024,2.6524,2.5703,0.0,0.0,0.0,2.5685,2.8994,0.0,0.0,0.0,2.6778,2.7657,0.0,0.0,0.0,0.0,0.0,0.0,0.0,0.0,0.0,0.0,0.0,0.0,0.0,0.0,0.0,0.0,3.0305,3.1695,3.3586,3.2417,3.1688,3.232,3.2806,3.3374,3.4148,3.3966,3.4126,3.4934,3.4978,3.4861,3.4677,0.0,0.0,0.0,0.0,3.1003,3.0784,3.0267,2.9711,2.9175,2.9234,2.9365,2.9636,2.8907,2.8986,2.9754,2.9277,2.9678,3.0646,3.0882,3.0431,2.9602,2.9665,2.9261,2.8521,2.7164,2.7015,2.7515,2.7845,0.0,0.0,3.0558,3.0048,2.9141,3.068,3.1664,3.2792,3.5459,3.4289,3.23,3.2684,3.4497,3.6343,3.6731,3.4863,3.2913,3.2649,3.2783,3.2977,3.3028,3.3196,3.3244,3.2884,3.2884,3.2514,3.1322,3.0988,3.0422,2.9239,3.0098,3.0291,2.8874,0.0,0.0,2.8947,2.9159,2.9292,2.9344,2.8188,2.7266,2.6729,2.6469,2.7159,2.8934,2.5962,2.6067,2.9496,3.236,3.4079,3.4631,3.1624,3.1827,0.0,0.0,0.0,0.0,0.0,0.0,0.0,0.0,0.0,0.0,0.0,0.0,0.0,0.0,0.0,3.1664,3.2764,3.3759,3.4485,3.4,3.3322,3.2678,3.2751,3.2807,3.303,3.3282,3.3599,3.4192,3.4031,3.4128,3.4467,3.369,3.2643,3.1381,3.1431,3.0997,2.9935,3.0015,2.9922,2.9841,0.0,0.0,2.8749,2.8895,2.9131,2.9431,2.9526,2.9935,3.0622,3.0891,3.0456,2.9665,3.0219,3.0421,3.0367,2.9648,2.9569,2.9781,3.0099,3.0494,3.0943,3.1469,3.1602,3.1775,3.246,3.3684,0.0,3.5586,3.5331,3.489,3.4976,3.5358,3.5756,3.5827,3.56,3.4949,3.3446,3.3328,3.3283,3.2666,3.2805,3.2884,3.2541,3.274,3.2713,3.2115,3.1627,3.1136,3.0695,3.0823,3.0911,3.0761,2.9349,2.851,2.8662,3.007,3.0399,2.9159,2.7675,2.6299,2.5038,2.72,2.8507,2.8687,2.8231,2.9491,3.2555,3.3172,3.4984,3.7768,3.4735,3.4958,0.0,0.0,0.0,0.0,0.0,0.0,0.0,0.0,0.0,0.0,0.0,2.9921,0.0,0.0,3.3665,3.3898,3.4575,3.5282,3.5494,3.5492,3.5063,3.3916,3.354,3.3404,3.3422,3.3495,3.3645,3.403,3.3325,3.3211,3.3924,3.3292,3.2476,3.1513,3.1388,3.0922,3.0091,3.0147,3.0165,3.007,2.9334,2.8964,2.8895,2.8698,2.8803,2.9028,2.9275,2.9689,3.0241,3.0898,3.0922,3.0508,3.0363,3.0582,3.0852,3.0416,3.0498,3.0867,3.1114,3.146,3.1911,3.2641,3.3113,3.3496,3.3898,3.4762,3.5622,3.5622,3.5441,3.5609,3.7082,3.7467,3.7099,3.5609,3.5532,3.5392,3.3913,3.4131,3.4324,3.3425,3.3979,3.4486,3.4081,3.3709,3.3371,3.3125,3.24,3.2036,3.2537,3.1982,3.1681,3.2005,3.1231,3.0535,3.0215,3.094,3.0723,2.9085,2.9089,2.8418,2.6812,2.8329,2.9769,3.0985,3.271,3.4309,3.5802,3.5802,3.7626,4.1056,3.9559,3.9669,0.0,0.0,0.0,0.0,0.0,0.0,0.0,0.0,3.0177,3.0593,3.148,3.2462,3.3265,3.443,3.5356,3.5631,3.6166,3.6484,3.6582,3.6796,3.6471,3.5453,3.4687,3.4258,3.4339,3.3908,3.369,3.39,3.2992,3.2697,3.3472,3.3062,3.2447,3.1688,3.139,3.1033,3.0516,3.0542,3.0507,3.0314,2.9606,2.9414,2.9581,2.8781,2.8563,2.887,2.9089,2.9378,2.9869,3.0823,3.1208,3.1007,3.0409,3.0506,3.0864,3.0628,3.099,3.161,3.1867,3.2263,3.2812,3.3761,3.4343,3.4742,3.5036,3.5621,3.6236,3.6236,3.5969,3.6241,3.8659,3.9272,3.8623,3.6307,3.5733,3.5508,3.4645,3.502,3.5311,3.4545,3.5432,3.6174,3.5756,3.4925,3.4243,3.4022,3.3175,3.2862,3.381,3.3159,3.2617,3.2641,3.2755,3.2608,3.2133,3.1901,3.1254,3.0002,3.1262,3.1366,2.9911,3.0654,3.2118,3.428,3.687,3.8482,3.9097,3.9097,4.0611,4.3497,4.3497,4.3497,2.8808,3.2885,3.5284,3.1773,3.1213,3.2088,0.0,0.0,3.3879,3.4897,3.5493,3.5784,3.551,3.6448,3.7129,3.6783,3.7338,3.7752,3.7833,3.7462,3.7171,3.7061,3.5672,3.4802,3.4884,3.394,3.3386,3.336,3.3496,3.3433,3.3161,3.3114,3.2616,3.1555,3.2031,3.1736,3.0753,3.1245,3.1308,3.1089,3.0482,3.0398,3.0663,2.9665,2.9208,2.9265,2.9327,2.9521,2.9869,3.0546,3.0467,2.9894,3.0324,3.0657,3.0998,3.1264,3.2053,3.297,3.3126,3.363,3.426,3.4553,3.5082,3.5656,3.5875,3.7127,3.8422,3.8422,3.8422,3.8504,3.9135,3.9094,3.8849,3.8805,3.7501,3.6256,3.646,3.5933,3.5407,3.5447,3.5882,3.6216,3.6019,3.5664,3.5196,3.4465,3.3778,3.3387,3.3394,3.3992,3.3825,3.2319,3.2336,3.2654,3.3171,3.3187,3.3203,3.3248,3.3466,3.3351,3.2925,3.5696,3.7352,3.7649,3.8011,3.9568,4.2357,4.2357,4.2759,4.3497,4.3497,4.3497,3.3417,3.4852,3.496,3.4538,3.4462,3.4864,3.6167,3.659,3.6758,3.7015,3.7561,3.7792,3.7277,3.8271,3.9032,0.0,3.9094,3.9503,3.932,3.9044,3.8728,3.8411,3.7524,3.6651,3.5641,3.4738,3.426,3.426,3.474,3.4765,3.402,3.4199,3.4022,3.3233,3.3417,3.3355,3.2884,3.281,3.2673,3.2561,3.1272,3.0736,3.0855,3.0025,2.9522,2.9268,2.9114,2.9024,2.9009,2.9923,2.9718,2.8904,2.9927,3.0168,3.0045,3.1243,3.2378,3.3426,3.3765,3.4187,3.4698,3.5102,3.553,3.6048,3.6604,3.7347,3.81,3.8453,3.8544,3.86,3.8876,3.8821,3.8652,3.8443,3.7771,3.7166,3.6904,3.6614,3.6359,3.6366,3.6854,3.7285,3.749,3.7407,3.7127,3.6559,3.5062,3.426,3.4949,3.4495,3.3994,3.3649,3.3864,3.3784,3.3163,3.3274,3.425,3.6243,3.6352,3.6321,3.6182,3.7486,3.8192,3.8192,3.9985,4.1578,4.2882,4.2882,4.3123,4.3534,4.5424,4.6287,3.5763,3.5849,3.5739,3.7572,3.8379,3.8667,3.8337,3.8792,3.9215,3.8781,3.9197,3.9535,3.9003,3.9886,4.0595,4.0193,4.0491,4.0763,4.0668,4.0224,3.9783,3.9575,3.9042,3.8194,3.6833,3.6026,3.5538,3.5562,3.5955,3.5857,3.4994,3.5174,3.508,3.4738,3.4382,3.437,3.47,3.4237,3.4035,3.3997,3.2524,3.1735,3.1624,3.0541,2.9786,2.9186,2.8952,2.8639,2.8346,2.9257,2.9163,2.8402,2.9654,2.9929,2.9886,3.1418,3.2599,3.3514,3.4167,3.4722,3.519,3.5719,3.611,3.6502,3.7129,3.7588,3.7883,3.8309,3.8464,3.8448,3.856,3.8583,3.8437,3.7987,3.7796,3.7658,3.7258,3.712,3.7107,3.733,3.7753,3.8176,3.8478,3.8548,3.8447,3.7925,3.6457,3.5581,3.6054,3.5211,3.4822,3.5285,3.5652,3.5434,3.4458,3.4479,3.5533,3.7893,3.8038,3.8038,3.8038,3.899,3.9478,3.9478,4.1723,4.2882,4.2882,4.2882,4.3504,4.4693,4.7033,4.8111,3.4873,3.6767,4.0573,4.1689,4.3177,4.3779,4.1586,4.1228,4.1119,4.0476,4.079,4.1099,4.0603,4.1188,4.1567,4.1148,4.1085,4.1269,4.1557,4.0571,4.0118,4.0589,3.9634,3.8843,0.0,3.7714,3.7102,3.7157,3.6737,3.6271,3.5745,3.5328,3.5251,3.543,3.4464,3.4439,3.543,3.5128,3.5015,3.5022,3.4451,3.3997,3.3431,3.1673,3.0193,2.9034,2.9022,2.8712,2.8235,2.8633,2.8839,2.8837,2.9446,3.0296,3.1251,3.2244,3.2898,3.3451,3.459,3.5475,3.6111,3.6432,3.6886,3.729,3.747,3.803,3.8583,3.8616,3.8504,3.8391,3.8408,3.8327,3.8222,3.8343,3.7818,3.7399,3.7793,3.7413,3.7303,3.8349,3.8565,3.8533,3.8354,3.8452,3.8398,3.7812,3.7868,3.7386,3.5808,3.6392,3.6917,3.6917,3.7283,3.7685,3.8013,3.7702,3.7524,3.7613,3.7631,3.7631,3.7631,4.0924,4.2755,4.2755,4.2846,4.2882,4.2882,4.2882,4.4494,4.7554,4.7663,4.7717,3.6695,3.9144,4.2719,4.4208,4.5011,4.5069,4.3802,4.3299,4.3026,4.2606,4.2251,4.191,4.1566,4.1803,4.1896,4.1571,4.1842,4.2105,4.2202,4.182,4.1649,4.1558,4.1499,0.0,0.0,0.0,0.0,3.7236,3.7257,3.6977,3.6328,3.6148,3.6071,3.5981,3.562,3.5515,3.5885,3.594,3.583,3.5388,3.4289,3.3419,3.2721,3.1465,3.0312,2.9199,2.8762,2.8234,2.7765,2.8063,2.8138,2.827,2.8875,2.9387,3.0047,3.1349,3.239,3.3231,3.4778,3.5702,3.623,3.6549,3.6951,3.7435,3.7566,3.7857,3.8164,3.8164,3.8049,3.7934,3.8049,3.796,3.7927,3.8033,3.7985,3.7946,3.8163,3.8226,3.8381,3.8952,3.9542,3.9795,3.9291,3.9747,4.002,3.9578,3.8772,3.8048,3.7473,3.8937,3.9269,3.7198,3.7126,3.809,4.0281,3.8483,3.7334,3.7577,3.9539,4.0856,4.1104,4.2283,4.2882,4.2882,4.2882,4.3951,4.6087,4.6087,4.6649,4.7753,4.989,5.0886,4.1091,4.2836,4.4877,4.5772,4.6195,4.6109,4.5075,4.4608,4.4303,4.36,4.2767,4.2152,4.1877,4.185,4.182,4.1989,4.2154,4.245,4.2763,4.2517,4.2343,4.2424,4.2444,4.2339,0.0,0.0,0.0,3.8081,3.8225,3.7896,3.6949,3.6729,3.6535,3.6444,3.5963,3.5926,3.6236,3.6446,3.6239,3.5698,3.425,3.3028,3.2068,3.1003,2.9877,2.8765,2.808,2.7489,2.6951,2.7174,2.737,2.771,2.8488,2.9038,2.9671,3.111,3.2166,3.3186,3.4853,3.5782,3.6274,3.6585,3.7013,3.7358,3.7508,3.77,3.7817,3.7817,3.7817,3.7759,3.7817,3.7727,3.7791,3.8062,3.8099,3.8194,3.8608,3.8731,3.8832,3.9247,3.9757,4.0014,3.9687,4.0347,4.0843,4.0697,3.9805,3.9162,3.9208,4.0635,4.0832,3.8848,3.8638,3.9445,4.1429,3.9779,3.8742,3.9022,4.1083,4.291,4.4309,4.4523,4.4621,4.4621,4.4621,4.5635,4.7717,4.7717,4.8297,4.9474,5.1538,5.2498,4.7289,4.731,4.6928,4.6296,4.6778,4.7031,4.5502,4.5075,4.4767,4.3421,4.255,4.1806,0.0,0.0,4.1474,4.2148,4.2154,4.2345,4.3232,4.2644,4.2371,0.0,0.0,0.0,0.0,0.0,0.0,3.9614,0.0,3.8912,3.7531,3.691,3.6573,3.6573,3.5635,3.5568,3.6392,3.6502,3.6316,3.5898,3.4451,3.2971,3.1515,3.0338,2.8993,2.7708,2.7164,2.6557,2.5888,2.6074,2.655,2.7301,2.8351,2.9287,3.0114,3.132,3.2273,3.3115,3.4624,3.5559,3.6196,3.6523,3.6892,3.7178,3.7178,3.7389,3.77,3.77,3.7759,3.7876,3.7748,3.7748,3.7848,3.8397,3.8241,3.8232,3.9049,3.8924,3.8818,3.9243,3.9379,3.9441,3.9598,4.0308,4.0973,4.1253,4.0898,4.0662,4.0871,4.129,4.156,4.1604,4.1604,4.1604,4.1604,4.1604,4.1639,4.1754,4.2186,4.3786,4.69,4.7443,4.7675,4.7717,4.7717,4.779,4.791,4.7747,4.9322,5.2452,5.2498,5.2589,4.6856,4.7252,4.7673,4.7233,4.7204,4.7145,4.6044,4.531,4.4521,4.3435,4.2122,4.0986,0.0,0.0,0.0,4.137,4.2614,0.0,4.3944,4.3918,0.0,4.4041,0.0,4.4132,4.3947,4.328,0.0,0.0,3.9295,3.8188,3.7518,3.656,3.6017,3.6017,3.5404,3.5199,3.5442,3.5777,3.5628,3.505,3.3962,3.2688,3.1272,3.0083,2.8808,2.7621,2.6913,2.6208,2.5502,2.5567,2.6109,2.697,2.7985,2.8823,2.9481,3.0933,3.1801,3.2232,3.3381,3.4558,3.5494,3.5733,3.6178,3.6662,3.6662,3.6952,3.7314,3.7314,3.7433,3.7678,3.8157,3.8304,3.8433,3.9061,3.9251,3.9377,3.9609,3.9762,3.9956,4.0144,4.0476,4.0948,4.1607,4.1594,4.1715,4.252,4.1273,4.037,4.0823,4.1012,4.1198,4.156,4.1604,4.1604,4.1604,4.1797,4.2465,4.3774,4.3932,4.5083,4.7396,4.7312,4.7356,4.7699,4.7717,4.8702,5.0671,4.8325,4.8808,5.1889,5.2293,5.3748,4.7255,4.7906,4.8415,4.8038,4.7911,4.7574,4.6182,4.533,4.428,4.2525,4.1308,4.0153,3.9104,3.9793,4.0674,0.0,0.0,0.0,4.4084,4.4498,4.4813,0.0,4.4705,0.0,4.4597,4.3756,4.2574,0.0,3.9666,3.8398,3.7518,3.6431,3.5823,3.5823,3.5292,3.4952,3.4835,3.5076,3.4714,3.3883,3.2649,3.1517,3.0324,2.8948,2.7723,2.6763,0.0,2.5462,2.5118,2.5227,2.5904,2.6965,2.7998,2.8929,2.9856,3.1182,3.1797,3.2064,3.2959,3.3775,3.4423,3.5067,3.5589,3.6085,3.6226,3.66,3.7076,3.7433,3.777,3.8185,3.8914,3.906,3.9235,3.9898,3.9929,3.988,4.0198,4.0256,4.0388,4.0691,4.0942,4.1403,4.2344,4.2261,4.2266,4.2853,4.2109,4.1441,4.1426,4.1109,4.1012,4.1244,4.2492,4.28,4.1683,4.237,4.3651,4.5508,4.5659,4.6141,4.7151,4.7732,4.8476,4.9423,4.9487,5.0551,5.2707,5.0245,5.0104,5.2071,5.3767,5.565,4.8076,4.8652,4.8916,4.8624,4.8506,4.7954,4.5842,4.486,4.3716,4.1194,4.0134,3.9387,3.8383,3.9304,4.0481,4.1042,0.0,4.4157,4.4241,4.4892,4.5194,4.4961,4.4876,4.489,4.4876,4.3664,4.2602,4.1695,4.0291,3.8939,3.7624,3.6496,3.5862,3.5794,3.5168,3.4711,3.4485,3.4419,3.3767,3.2529,3.1144,3.0094,2.9203,2.7536,2.6419,2.5757,2.5033,2.4766,2.4756,2.4993,2.5776,2.7025,2.8161,2.9335,3.0479,3.1543,3.2029,3.2249,3.3022,3.3353,3.3536,3.4569,3.517,3.5629,3.6073,3.6549,3.7111,3.7951,3.8572,3.9113,3.9813,4.0005,4.018,4.0785,4.0515,4.0214,4.0826,4.0706,4.0639,4.1102,4.1177,4.1508,4.2393,4.2551,4.2651,4.2783,4.3013,4.2965,4.24,4.1546,4.0995,4.103,4.3355,4.411,4.2083,4.3121,4.4706,4.6702,4.6791,4.6835,4.6832,4.8306,4.9897,5.1604,5.169,5.244,5.3868,5.285,5.2476,5.2832,5.5879,5.7771,4.8254,4.8573,4.861,4.8313,4.7968,4.7326,4.5317,4.3816,0.0,0.0,3.9352,3.8811,3.7778,3.8629,4.0052,4.1443,4.351,4.5103,4.5397,4.5553,4.5572,0.0,4.5413,4.5321,4.5032,4.4188,0.0,0.0,4.0547,3.9031,3.7887,3.6936,3.6233,3.5641,3.5112,3.4643,3.4286,3.41,3.3159,3.1448,3.0741,2.9767,2.87,2.7382,2.6561,2.5958,2.5189,0.0,2.488,2.4993,2.5775,2.6985,2.8254,2.9219,3.0001,3.1376,3.2041,3.2476,3.3076,3.3376,3.3695,3.4751,3.5527,3.6239,3.7128,3.7826,3.8412,3.892,3.9391,3.9982,4.0702,4.094,4.1132,4.1597,4.1627,4.1546,4.1478,4.1579,4.1726,4.209,4.2261,4.2434,4.2749,4.2933,4.307,4.341,4.3196,4.3114,4.3322,4.2159,4.1409,4.1613,4.2223,4.2884,4.3617,4.382,4.4419,4.568,4.579,4.6493,4.7943,4.8165,4.9245,5.1349,5.1589,5.221,5.3194,5.4813,5.5079,5.4215,5.6678,5.9333,4.9009,4.9122,4.9022,4.8834,4.814,4.6785,4.4521,0.0,0.0,0.0,3.8445,3.8202,3.7412,3.8602,0.0,4.1322,4.2835,4.4203,4.4981,4.5187,4.5278,4.5504,4.5504,4.5413,4.5124,4.4486,4.3728,4.2678,4.1355,3.9974,3.8609,3.7168,3.6048,3.5483,3.5059,3.4479,3.3723,3.3723,3.2794,3.0891,3.0404,2.951,2.8376,2.7317,2.6599,2.6091,2.5421,2.5226,2.5294,2.5671,2.6533,2.7761,2.8934,3.0105,3.1324,3.2438,3.3246,3.3744,3.4071,3.437,3.4732,3.5549,3.5824,3.6079,3.7225,3.8029,3.8766,3.9562,4.0166,4.078,4.1564,4.174,4.1757,4.1997,4.1849,4.1733,4.1752,4.1882,4.2125,4.2445,4.2571,4.2696,4.2945,4.3007,4.3117,4.3403,4.3182,4.3007,4.3047,4.236,4.1942,4.225,4.2977,4.358,4.3973,4.4933,4.586,4.668,4.7024,4.7586,4.847,4.8862,4.9745,5.1176,5.1436,5.2269,5.3797,5.3886,5.4455,5.5507,5.7207,5.8822,4.9695,4.9775,4.9769,4.949,4.8439,4.6783,4.4042,4.2592,0.0,3.8497,3.8068,3.7994,3.7525,3.8717,4.0055,0.0,4.1974,4.3149,4.4326,4.4718,4.5037,0.0,4.5595,0.0,4.5216,4.4769,0.0,4.3166,4.2018,4.0642,3.923,3.723,3.6053,3.5765,3.5023,3.4284,3.3416,3.3394,3.2459,3.0658,3.0133,2.9374,2.8364,2.7377,2.6764,2.6326,2.585,2.5752,2.6045,2.6641,2.7585,2.8639,2.9743,3.1124,3.2702,3.368,3.4475,3.512,3.5328,3.5521,3.5892,3.6584,3.6504,3.6369,3.7724,3.8667,3.9493,4.0758,4.142,4.1885,4.2623,4.2703,4.2557,4.2508,4.2246,4.2047,4.2211,4.2393,4.2573,4.2896,4.296,4.3071,4.3385,4.3339,4.3262,4.339,4.3215,4.315,4.3165,4.2925,4.2937,4.3337,4.4096,4.4534,4.4423,4.5996,4.7299,4.7924,4.8412,4.8796,4.8972,4.9851,5.0646,5.1281,5.1529,5.2573,5.4434,5.2604,5.3314,5.6437,5.7388,5.827,4.9606,5.0086,5.0508,4.9681,4.9021,4.7781,4.4763,0.0,4.1671,3.9279,3.8723,3.8673,3.8415,3.8855,3.9571,0.0,0.0,4.2877,4.4358,4.4965,4.5405,4.6048,0.0,0.0,4.5504,4.506,4.4476,4.3951,4.1774,4.0147,3.9137,3.7434,3.6709,3.7223,3.5187,3.4147,3.3998,3.3162,3.2034,3.0658,3.005,2.9374,2.8656,2.7661,2.7223,2.7354,2.6883,2.6804,0.0,2.7832,2.853,2.9148,3.0639,3.19,3.2978,3.3991,3.4882,3.5768,3.6373,3.6551,3.6679,3.787,3.804,3.8083,4.007,4.1036,4.1806,4.3253,4.3695,4.3795,4.423,4.4179,4.3978,4.3874,4.35,4.3277,4.3463,4.3532,4.3654,4.3962,4.4029,4.4163,4.4593,4.4445,4.4216,4.3762,4.3802,4.4157,4.4768,4.4674,4.4804,4.5467,4.4428,4.434,4.5932,4.6655,4.7439,4.8346,4.8588,4.9043,4.9765,5.0559,5.1298,5.1891,5.2375,5.3099,5.425,5.2552,5.3314,5.6383,5.7003,5.9101,5.0958,5.1219,5.1285,5.0609,4.9336,4.7492,4.5024,0.0,4.1665,3.9696,3.9102,3.9007,3.923,3.8815,3.9017,0.0,0.0,0.0,4.2499,4.2912,4.3449,4.4649,4.4993,0.0,0.0,0.0,4.4583,4.3655,4.2195,4.11,4.0321,3.8246,3.7144,3.7382,3.5824,3.4835,3.4422,3.3674,3.2676,3.1443,3.0925,3.0255,2.941,2.8664,2.8338,2.8227,2.8214,2.8338,0.0,2.9229,2.9873,3.0577,3.1449,3.2759,3.4161,3.4835,3.6044,3.7282,3.7605,3.803,3.8608,3.9348,3.99,4.0276,4.0834,4.1382,4.2085,4.3416,4.3913,4.4065,4.4237,4.417,4.4065,4.386,4.3722,4.352,4.3346,4.3648,4.4081,4.4497,4.4552,4.4573,4.4787,4.4639,4.4423,4.4289,4.4118,4.4261,4.4989,4.4932,4.5033,4.5577,4.547,4.5767,4.676,4.7575,4.832,4.8958,4.9538,5.0048,5.0506,5.1208,5.1981,5.2699,5.3288,5.4161,5.5242,5.5095,5.6647,5.9781,5.9997,6.088,5.1772,5.2023,5.2005,5.1496,4.993,4.8028,0.0,0.0,4.2322,4.047,3.9528,3.9085,3.9519,3.8514,3.8126,0.0,0.0,3.9249,4.1113,4.161,4.2319,4.3728,0.0,4.4783,0.0,4.5273,4.4569,4.3451,4.2534,4.1731,4.1309,3.9294,3.7998,3.775,3.6465,3.5516,3.477,3.426,3.3354,3.2077,3.1649,3.1019,3.0296,2.9775,2.9609,2.9721,2.9948,3.0089,0.0,3.0942,3.1398,3.1865,3.2506,3.3732,3.51,3.5768,3.6946,3.8238,3.86,3.9208,3.9926,4.051,4.1184,4.1834,4.1839,4.2196,4.2849,4.4047,4.4532,4.4617,4.4655,4.4532,4.4408,4.4338,4.4267,4.4134,4.3882,4.4357,4.4841,4.5207,4.5266,4.5338,4.5403,4.5336,4.525,4.5259,4.4904,4.4904,4.5436,4.5514,4.5668,4.6092,4.6724,4.725,4.7442,4.8283,4.9037,4.9614,5.025,5.0762,5.1207,5.1944,5.2734,5.362,5.4314,5.508,5.5918,5.6758,5.8365,6.0611,6.1571,6.206,5.1454,5.235,5.2804,5.1845,5.1106,4.9931,4.7111,4.5464,4.3896,4.1986,4.0075,3.8889,3.9168,3.7717,3.6827,3.7764,0.0,0.0,4.0663,4.1571,4.2484,0.0,0.0,4.4428,4.4807,4.483,4.449,4.3695,4.2482,0.0,4.1805,4.0645,3.9459,3.8437,3.7137,3.6121,3.5299,3.4818,3.3832,3.2351,3.1889,3.1544,3.1333,3.0869,3.1145,3.2086,3.2052,3.2063,0.0,3.2895,3.3099,3.301,3.4024,3.4896,3.575,3.6722,3.7559,3.8291,3.9237,3.9826,4.0205,4.1142,4.1632,4.2223,4.3488,4.4143,4.4676,4.5746,4.6096,4.6008,4.5864,4.5646,4.5557,4.5719,4.5646,4.5526,4.569,4.5913,4.612,4.6448,4.6475,4.6581,4.6828,4.686,4.6791,4.6636,4.6442,4.6388,4.6566,4.6929,4.7286,4.7621,4.8242,4.8506,4.8141,4.8517,4.9245,5.0289,5.0547,5.1007,5.1979,5.2751,5.3655,5.456,5.5376,5.5804,5.5918,5.6758,5.7224,5.7333,6.0538,6.2257,4.9369,5.0306,5.1077,5.0183,4.9471,4.8566,4.6773,4.5764,4.4556,4.2206,4.1241,4.0545,3.9601,3.8468,3.8089,3.9133,3.9017,0.0,0.0,0.0,0.0,4.3397,4.5048,4.6079,0.0,0.0,4.5201,4.4648,4.3688,4.295,4.2556,4.1917,4.0742,3.8954,3.7813,3.6623,3.5555,3.4783,3.3905,3.2896,3.2908,3.2723,3.2352,3.2617,3.2935,3.3445,3.3593,3.3758,3.3965,3.4252,3.4326,3.4486,3.5029,3.5667,3.6427,3.7108,3.7939,3.8819,3.9779,4.0462,4.1179,4.2298,4.3085,4.3639,4.4502,4.4622,4.4708,4.5618,4.588,4.588,4.5807,4.5735,4.5735,4.5807,4.5735,4.5965,4.6827,4.7021,4.7221,4.7842,4.7858,4.7586,4.7332,4.7098,4.6876,4.6807,4.6962,4.6949,4.6647,4.7367,4.7825,4.7687,4.8339,4.8742,4.8829,4.9171,4.9849,5.0957,5.0676,5.1085,5.2564,5.2976,5.3598,5.4371,5.5358,5.629,5.7149,5.6795,5.798,6.0502,6.1889,6.2622,0.0,4.8647,4.936,4.9,4.8475,0.0,4.6564,4.5738,4.4649,4.2767,4.1765,4.0893,3.9811,3.8656,3.808,3.8908,3.8525,3.867,0.0,0.0,0.0,4.3874,0.0,0.0,0.0,4.5811,4.5536,4.4769,4.4203,4.3701,4.3098,4.2538,4.1551,4.0039,3.8852,3.7479,3.5632,3.5222,3.4451,3.3496,3.3721,3.3731,3.3584,3.4181,3.4682,3.489,3.5316,3.5463,0.0,3.5488,3.5596,3.5692,3.5966,3.6332,3.6922,3.7572,3.8304,3.9176,4.0041,4.0901,4.1937,4.2996,4.4094,4.5155,4.5637,4.5405,4.511,4.5624,4.5807,4.5807,4.5807,4.5997,4.6187,4.6187,4.6465,4.6929,4.7579,4.7878,4.8352,4.9208,4.8919,4.838,4.7961,4.7743,4.7509,4.7147,4.7211,4.727,4.6941,4.761,4.8163,4.8199,4.8634,4.9204,5.0028,5.0129,5.0341,5.0864,5.0927,5.1494,5.2874,5.3291,5.3914,5.4793,5.5839,5.6865,5.7818,5.7065,5.8556,6.2005,6.257,6.2805,0.0,4.6959,4.7525,4.8068,4.7875,4.7342,4.6386,4.5355,0.0,4.3363,4.1652,4.0252,4.0021,3.8417,3.7288,3.7772,3.7421,3.7763,0.0,4.094,0.0,0.0,4.5426,0.0,4.4799,4.5444,4.5395,4.4379,4.432,4.4057,4.3372,4.2825,4.2166,4.1412,4.0396,3.856,3.594,3.6031,3.5447,3.4289,3.4417,3.4616,3.4879,3.5694,3.624,0.0,3.6922,3.6922,3.6546,3.6628,3.6628,3.6452,3.6722,3.6909,3.7201,3.7926,3.8666,3.938,4.0128,4.1212,4.2452,4.319,4.4803,4.6441,4.6713,4.6376,4.5886,4.5886,4.5886,4.5886,4.5886,4.6376,4.6882,4.6882,4.7612,4.8233,4.8093,4.8667,4.9457,5.0397,4.9854,4.9112,4.8669,4.8653,4.8439,4.7652,4.7417,4.7449,4.7552,4.7968,4.853,4.9144,4.9291,4.9943,5.1418,5.1121,5.0796,5.0466,5.1338,5.2201,5.3049,5.3602,5.4477,5.5631,5.6692,5.7508,5.8152,5.7691,5.909,6.2023,6.2519,6.2755,3.9324,0.0,4.4013,4.486,4.5099,4.5137,0.0,4.4665,4.3884,4.2096,0.0,4.0731,4.0462,3.9573,3.9415,4.0847,4.1087,4.1578,4.3124,4.4538,0.0,4.7248,4.7178,4.6986,4.6745,4.648,4.6067,4.5537,4.4907,4.4318,4.3856,4.3558,4.2808,4.1397,4.0966,3.9953,3.8154,3.7113,3.6461,3.6234,3.6035,3.624,3.6802,3.717,3.7612,3.8044,3.7585,3.7492,3.7479,3.7201,3.7015,3.7015,3.7479,3.7664,3.7769,3.8408,3.8948,3.9469,4.083,4.184,4.2739,4.422,4.5058,4.5696,4.6719,4.684,4.6566,4.6566,4.6566,4.6566,4.6566,4.7103,4.7716,4.7834,4.8201,4.8541,4.8978,4.9588,5.0399,5.1287,5.0971,5.0274,4.9373,4.894,4.851,4.7753,4.8456,4.8879,4.8526,4.9773,5.0676,5.0591,5.0888,5.1315,5.1833,5.1365,5.1528,5.2735,5.2493,5.3036,5.4605,5.4297,5.4513,5.5549,5.7182,5.8454,5.9376,6.0174,6.1063,6.2005,6.2114,6.2415,3.6214,3.9058,4.1987,4.2819,4.3381,4.3747,4.3823,0.0,0.0,0.0,0.0,4.0857,4.0493,4.0201,4.0391,4.1438,4.206,0.0,0.0,0.0,4.7947,4.8728,4.8469,4.7999,0.0,4.6803,4.6392,4.5969,4.5315,4.48,4.4494,4.3957,4.3352,4.2505,4.1917,4.0804,3.9078,3.7924,3.7356,3.7344,3.7343,3.7551,3.7872,3.8359,3.8639,3.8756,3.8498,3.8317,3.8226,3.7952,3.7769,3.7861,3.8135,3.8304,3.8381,3.8679,3.9203,3.9895,4.0845,4.1937,4.3076,4.448,4.5618,4.6576,4.7014,4.7564,4.7988,4.7521,4.7209,4.6977,4.7125,4.7818,4.8421,4.8722,4.9208,4.9727,5.0251,5.0709,5.123,5.1931,5.1845,5.1437,5.0899,5.0218,4.9554,4.896,4.9453,4.9799,4.9591,5.0627,5.1446,5.1611,5.1724,5.2186,5.2952,5.2458,5.2356,5.2926,5.342,5.3982,5.4555,5.4717,5.5402,5.6764,5.7789,5.9046,6.0508,6.0672,6.1204,6.2023,6.2023,6.2168,3.5106,3.8027,4.0797,4.1485,4.2257,4.2849,4.291,0.0,0.0,0.0,0.0,0.0,0.0,4.1094,0.0,0.0,0.0,0.0,4.772,4.8838,4.9526,4.9897,4.9591,0.0,4.7395,4.7085,4.6717,4.6126,4.5665,4.5275,4.5054,4.4273,4.3769,4.369,4.2879,4.1526,3.9701,3.8837,3.8436,3.8392,3.8437,3.8637,3.9002,3.9508,3.9707,3.9446,0.0,0.0,3.8946,3.8775,3.8735,3.8812,3.8642,3.8769,3.8908,3.8948,3.9367,4.0215,4.1001,4.2252,4.3645,4.4419,4.6076,4.7654,4.7527,4.8333,4.917,4.8668,4.804,4.7553,4.776,4.8552,4.9313,4.9539,5.0301,5.1032,5.1359,5.1672,5.1997,5.2302,5.2373,5.2373,5.2373,5.1678,5.0949,5.0471,5.0372,5.0423,5.0643,5.1193,5.184,5.2601,5.2477,5.2912,5.4119,5.38,5.3287,5.2597,5.4174,5.4852,5.4129,5.4979,5.63,5.7883,5.8149,5.9153,6.0906,6.0131,6.0464,6.177,6.1444,6.1553,3.6034,3.8512,4.0439,4.0103,4.1079,4.2225,4.2358,0.0,0.0,0.0,0.0,0.0,0.0,4.4141,4.4857,0.0,0.0,4.9134,0.0,0.0,5.1322,5.1361,0.0,5.0322,4.8895,4.8524,4.7892,4.676,4.6111,4.5665,4.5275,4.4571,4.4065,4.369,4.3025,4.2438,4.1922,4.0305,3.9887,4.0534,3.9448,3.9881,4.1421,4.0891,4.1224,4.2007,0.0,4.0798,4.0665,3.9719,3.9427,3.9556,3.897,3.8948,3.9203,3.9216,3.9292,3.9881,4.2936,4.4174,4.4496,4.498,4.5578,4.6494,4.8184,4.8477,4.8425,4.9873,4.9477,4.8748,4.8732,4.9601,5.0365,5.0381,5.0751,5.1059,5.1242,5.1778,5.2302,5.239,5.2373,5.2373,5.2373,5.2258,5.1914,5.1225,5.1143,5.1362,5.2032,5.2789,5.346,5.3857,5.4029,5.419,5.4414,5.4408,5.4287,5.4167,5.4579,5.4896,5.4982,5.5301,5.5713,5.6272,5.7582,5.8392,5.8538,5.938,6.0086,6.0611,5.8782,5.9416,3.48,3.7095,3.9078,3.9139,4.1051,4.2833,4.2546,0.0,0.0,0.0,0.0,0.0,0.0,0.0,4.6929,4.9542,0.0,5.1464,5.3004,5.3001,5.2883,0.0,0.0,5.1681,5.0208,4.9253,4.8414,4.7712,4.6843,4.6187,4.5665,4.5218,4.4664,4.3847,4.3344,4.285,4.2541,4.1511,4.1081,4.1198,4.0661,4.0831,4.1654,4.1548,4.1783,4.2255,0.0,4.1714,4.1581,4.0723,4.035,4.0359,3.9755,3.9733,4.0083,4.0083,4.0972,4.2438,4.4004,4.4874,4.5278,4.5442,4.592,4.6587,4.7599,4.8748,4.9817,5.0413,5.0037,4.961,5.0085,5.0558,5.1032,5.1483,5.154,5.1524,5.1778,5.1941,5.2158,5.2373,5.2373,5.2373,5.2373,5.2373,5.2366,5.2265,5.225,5.242,5.2859,5.3513,5.398,5.4175,5.4367,5.4512,5.4512,5.4512,5.4575,5.4655,5.4842,5.4992,5.5199,5.5799,5.6458,5.7175,5.7901,5.8601,5.9129,5.8946,5.9165,5.9709,5.7711,5.7744,3.4395,3.6432,3.85,3.9558,0.0,4.3395,4.3198,0.0,0.0,0.0,0.0,0.0,0.0,4.7631,0.0,5.22,5.2614,5.307,5.4492,5.4426,5.4199,5.3983,5.3721,5.2975,5.1536,5.0176,4.9194,4.8602,4.7463,4.6579,4.5958,4.5665,4.5049,4.408,4.3645,4.3325,4.3086,4.2597,4.21,4.1779,4.168,4.1838,4.2238,4.2452,4.2664,4.2834,4.2767,4.2691,4.2649,4.1827,4.1548,4.1548,4.0553,4.0602,4.1269,4.1269,4.2725,4.4572,4.4572,4.5114,4.5807,4.5807,4.6207,4.6684,4.6823,4.89,5.1108,5.082,5.0634,5.0618,5.1108,5.1333,5.1631,5.223,5.2158,5.1997,5.2302,5.2158,5.1997,5.2302,5.2373,5.2373,5.2373,5.2373,5.2516,5.2989,5.3195,5.3382,5.35,5.3783,5.4045,5.4175,5.4367,5.4448,5.4512,5.4512,5.4575,5.4717,5.4886,5.5122,5.5461,5.5984,5.6909,5.8178,5.8231,5.868,5.957,5.8702,5.8461,5.87,5.7118,5.6707,3.6893,3.8503,3.9976,4.2381,0.0,0.0,4.4158,4.4402,0.0,4.7139,0.0,0.0,0.0,5.0502,5.2284,5.4016,5.431,5.4482,5.5061,0.0,5.5284,5.5112,5.4948,5.4285,5.29,5.19,5.0628,4.9102,4.7773,4.6728,4.5958,4.5475,4.4951,4.4281,4.402,4.3995,4.4146,4.3505,4.3102,4.2835,4.2481,4.3085,4.4588,4.4217,4.4471,4.5211,4.4521,4.427,4.4135,4.3319,4.311,4.32,4.1337,4.1688,4.309,4.309,4.3708,4.4572,4.4572,4.5114,4.5807,4.5807,4.5807,4.6008,4.6684,4.89,5.1183,5.1183,5.1704,5.2069,5.1408,5.1778,5.2302,5.239,5.2373,5.2373,5.2373,5.2373,5.2373,5.2373,5.2373,5.2373,5.2373,5.2373,5.2516,5.2834,5.3517,5.3915,5.398,5.398,5.4045,5.4175,5.4222,5.4303,5.4512,5.4512,5.4512,5.4512,5.4717,5.5278,5.6283,5.5636,5.6167,5.798,5.8016,5.8043,5.8078,5.8739,5.8512,5.7319,5.6689,5.6707,3.5216,3.7333,3.9519,4.1272,0.0,0.0,0.0,0.0,0.0,0.0,4.962,0.0,0.0,0.0,5.3775,5.4999,5.504,5.5192,5.5984,5.583,5.5607,5.5514,5.5259,5.4774,5.381,5.257,5.1175,4.9529,4.8683,4.7588,4.5939,4.6033,4.57,4.4739,4.448,4.4141,4.3848,4.3864,4.3758,4.3441,4.3484,4.392,4.4501,4.4617,4.4935,4.5389,4.4889,4.469,4.4833,4.4422,4.4358,4.4549,4.4689,4.5516,4.6382,4.4721,4.4343,4.4648,4.5188,4.5589,4.6092,4.7814,4.8748,4.9122,4.9196,5.0176,5.1183,5.1183,5.1778,5.2302,5.2013,5.2158,5.2373,5.2373,5.2373,5.2373,5.2373,5.2373,5.2373,5.2373,5.2373,5.2373,5.2373,5.2373,5.2516,5.2834,5.3332,5.3751,5.3783,5.3849,5.3915,5.4158,5.4303,5.4448,5.4512,5.4512,5.4575,5.4655,5.478,5.5025,5.5532,5.5785,5.6395,5.7293,5.7311,5.7488,5.7761,5.7534,5.7223,5.6707,5.6492,5.6707,3.4085,3.6446,3.906,0.0,0.0,0.0,0.0,0.0,0.0,0.0,5.1816,0.0,0.0,0.0,0.0,0.0,5.5322,5.5529,5.6192,5.6059,5.5839,5.5706,5.5514,5.5079,5.4443,5.3068,5.1699,5.0278,4.936,4.8055,4.6373,4.6491,4.6176,4.5188,4.5024,4.474,4.4402,4.4478,4.4421,4.4415,4.4803,4.4943,4.4716,4.488,4.5186,4.5581,4.5135,4.5046,4.5216,4.4968,4.5152,4.5761,4.7178,4.8034,4.8296,4.5572,4.534,4.619,4.5887,4.5936,4.6525,4.9093,5.048,5.1183,5.088,5.0956,5.1183,5.1183,5.1631,5.2211,5.3132,5.3511,5.3748,5.3748,5.3036,5.2373,5.2373,5.2373,5.2373,5.2373,5.2373,5.2373,5.2373,5.2373,5.2516,5.2834,5.3212,5.3551,5.3717,5.3783,5.3915,5.4158,5.4303,5.4448,5.4512,5.4512,5.4592,5.4797,5.4797,5.5008,5.5401,5.5802,5.637,5.718,5.6934,5.707,5.7588,5.6958,5.6611,5.6401,5.6401,5.6707,3.417,3.6405,3.8893,0.0,0.0,0.0,0.0,0.0,0.0,5.2794,0.0,5.4652,5.4805,0.0,0.0,5.493,5.5252,5.5566,5.5666,5.6011,5.6085,5.5706,5.5706,5.5472,5.4772,5.3455,5.2283,5.1527,4.9529,4.8031,4.7429,4.6701,4.612,4.5832,4.5614,4.5708,4.6079,4.5308,4.5263,4.5864,4.6381,4.6207,4.5636,4.5361,4.561,4.621,4.558,4.5413,4.5413,4.506,4.5609,4.6756,4.8103,4.862,4.8296,4.5603,4.6858,4.9521,4.6803,4.6326,4.7254,4.9247,5.048,5.1183,5.1183,5.1183,5.1183,5.1183,5.1199,5.1863,5.4681,5.6053,5.668,5.668,5.451,5.2407,5.239,5.2373,5.2373,5.2373,5.2373,5.2373,5.2373,5.2373,5.2516,5.285,5.3212,5.3551,5.3717,5.3849,5.4045,5.4175,5.4222,5.4303,5.4512,5.4494,5.4575,5.478,5.478,5.5295,5.6335,5.5619,5.5994,5.7754,5.7,5.6839,5.7299,5.7282,5.7003,5.6401,5.6383,5.6671,3.4024,3.6191,0.0,4.1155,0.0,0.0,0.0,0.0,0.0,0.0,5.5281,5.5907,5.5441,0.0,0.0,5.5312,5.549,5.5724,5.6011,5.6141,5.6123,5.5861,5.5764,5.5472,5.4772,5.3518,5.2275,5.1028,4.9523,4.8152,4.7077,4.6711,4.6388,4.612,4.5864,4.574,4.5692,4.5664,4.5387,4.4955,4.5471,4.5807,4.6081,4.6253,4.6388,4.6403,4.5776,4.5504,4.5413,4.5138,4.5685,4.6756,4.8103,4.862,4.8594,4.8355,4.897,4.9884,4.9689,4.9757,5.005,5.059,5.1016,5.1183,5.0956,5.1032,5.1183,5.1183,5.1912,5.311,5.494,5.6053,5.668,5.668,5.6034,5.4858,5.2821,5.2373,5.2373,5.2373,5.2373,5.2373,5.2373,5.2373,5.2445,5.2516,5.3075,5.3568,5.3768,5.3997,5.4175,5.4175,5.4303,5.4448,5.4512,5.4136,5.3948,5.407,5.3686,5.4067,5.5496,5.5321,5.5487,5.6192,5.5964,5.5876,5.6006,5.6182,5.6294,5.6365,5.5241,5.5038,3.4477,3.686,0.0,4.2098,4.4739,4.7632,5.0963,0.0,0.0,0.0,0.0,5.6236,5.6081,5.5626,0.0,5.5507,5.5782,5.6011,5.6197,5.6346,5.6328,5.5975,5.5879,5.559,5.4913,5.3645,5.2503,5.1543,4.9909,4.861,4.7863,4.7365,4.7014,4.6892,4.6561,4.6278,4.6032,4.604,4.5759,4.5173,4.5571,4.5925,4.6188,4.6281,4.6319,4.6299,4.5854,4.5685,4.5776,4.5761,4.6135,4.7033,4.8521,4.9097,4.9178,4.9677,5.0089,5.048,5.1032,5.1408,5.1631,5.1333,5.1183,5.1183,5.1183,5.1258,5.1258,5.1183,5.222,5.3644,5.5053,5.6053,5.668,5.668,5.5819,5.451,5.2754,5.2373,5.2373,5.2373,5.2373,5.2373,5.2373,5.2373,5.2373,5.2373,5.3127,5.3668,5.3949,5.411,5.4119,5.3891,5.4,5.3942,5.3694,5.3368,5.3271,5.3432,5.3172,5.3387,5.439,5.4425,5.4565,5.5033,5.5033,5.5191,5.5549,5.5724,5.5879,5.6126,5.4866,5.4059,3.5137,0.0,0.0,4.3061,4.5661,0.0,5.1672,5.3565,5.5126,5.685,0.0,5.5887,5.656,5.6028,5.5507,5.5566,5.6011,5.6346,5.6235,5.6492,5.6474,5.5907,5.5946,5.5685,5.4904,5.3687,5.2821,5.2439,5.0291,4.9111,4.9193,4.8249,4.7704,4.7704,4.7388,4.7069,4.6848,4.6314,4.6032,4.6111,4.6313,4.6332,4.6109,4.5666,4.5603,4.5898,4.5887,4.6046,4.6403,4.6506,4.6946,4.7553,4.9275,4.9916,5.001,5.001,5.0557,5.1333,5.1333,5.1778,5.2269,5.1247,5.1122,5.1408,5.1704,5.1721,5.1499,5.1333,5.2296,5.3658,5.481,5.5739,5.6299,5.6299,5.4494,5.2776,5.2511,5.2516,5.2516,5.2516,5.2516,5.2516,5.2516,5.2516,5.2516,5.2516,5.3315,5.3963,5.4192,5.4239,5.4011,5.3477,5.3391,5.3142,5.2545,5.2483,5.2514,5.266,5.2744,5.2804,5.2807,5.3089,5.3506,5.4191,5.4208,5.4617,5.5437,5.5437,5.5495,5.5592,5.4882,5.3617,3.4672,3.7128,0.0,0.0,4.7484,5.0783,5.1518,5.2566,5.3879,5.5969,5.6286,5.6317,5.6597,5.6104,5.5724,5.6028,5.6235,5.6455,5.6492,5.6168,5.5755,5.5401,5.4812,5.4205,5.3399,5.2451,5.1588,5.0924,4.9557,4.8701,4.846,4.8132,4.7935,4.7935,4.7144,4.6717,4.6635,4.5816,4.5617,4.6034,4.5784,4.5785,4.607,4.6367,4.6396,4.6108,4.6166,4.6403,4.6741,4.6683,4.7279,4.8453,4.9517,5.0324,5.094,5.094,5.1466,5.2158,5.2158,5.223,5.1993,4.9486,5.0278,5.2086,5.1851,5.1851,5.1868,5.1704,5.266,5.3651,5.3132,5.3155,5.3301,5.3301,5.456,5.5289,5.3648,5.3297,5.3297,5.3297,5.3297,5.3297,5.3297,5.3297,5.3297,5.3297,5.3866,5.4355,5.4428,5.4453,5.4155,5.3477,5.3497,5.3246,5.2545,5.2172,5.1695,5.1161,5.0659,5.0207,4.9714,5.2038,5.3373,5.3418,5.3418,5.3563,5.3739,5.3739,5.3778,5.3911,5.3228,5.2909,0.0,0.0,0.0,4.5439,0.0,5.1412,5.1836,5.2576,5.3545,5.47,5.4887,5.5174,5.5988,5.5486,5.4932,5.5114,5.5365,5.5524,5.5576,5.5371,5.5119,5.4705,5.4312,5.3833,5.3176,5.2193,5.1414,5.0841,4.9637,4.8889,4.8861,4.861,4.85,4.8547,4.7684,4.7158,4.7048,4.6083,4.5711,4.6026,4.5505,4.5186,4.5142,4.5677,4.601,4.6078,4.5933,4.6197,4.6668,4.6858,4.7366,4.8118,4.9821,5.0788,5.1258,5.1631,5.2013,5.2373,5.2373,5.2657,5.2451,4.9471,4.9293,5.0419,5.1098,5.1652,5.2125,5.2069,5.2742,5.3357,5.2981,5.2953,5.3006,5.3315,5.4303,5.4867,5.3771,5.3501,5.3501,5.3501,5.3501,5.3501,5.3501,5.3751,5.4014,5.4014,5.4257,5.4224,5.3513,5.3593,5.3408,5.2511,5.245,5.2299,5.1708,5.1459,5.1064,5.04,5.0118,4.9639,4.8811,5.045,5.1635,5.2304,5.2249,5.2371,5.2722,5.2722,5.2778,5.2798,5.2608,5.2714,0.0,0.0,4.2017,4.7275,4.967,0.0,5.167,5.2378,5.2945,5.3087,5.3138,5.3647,5.5094,5.4525,5.3813,5.3866,5.4173,5.4319,5.4111,5.42,5.411,5.3608,5.3534,5.3292,5.275,5.1915,5.1217,5.0863,4.986,4.9308,4.9401,4.9222,4.9229,4.935,4.8303,4.7725,4.7545,4.6462,4.5912,4.5907,4.5419,4.4777,4.4131,4.4511,4.5022,4.558,4.5557,4.5798,4.627,4.6974,4.7381,4.7794,5.0214,5.1183,5.1258,5.1941,5.2302,5.2307,5.1934,5.2235,5.2317,4.9813,4.869,4.8656,5.0389,5.1413,5.2018,5.2416,5.2711,5.2972,5.3433,5.3501,5.3702,5.4321,5.4127,5.3817,5.3685,5.3685,5.3685,5.3685,5.3685,5.3635,5.3501,5.3635,5.3736,5.3736,5.3736,5.3329,5.2354,5.2519,5.2382,5.1419,5.1356,5.1215,5.0819,5.0751,5.0453,4.9902,4.9877,4.9501,4.8555,4.8808,4.9501,5.0748,5.0752,5.0999,5.1599,5.1599,5.1599,5.1599,5.1899,5.2253,0.0,0.0,4.3012,0.0,4.8508,4.9559,0.0,0.0,5.0253,0.0,5.1963,5.2963,5.3868,5.3565,5.3164,5.3297,5.3446,5.3406,5.2878,5.2264,5.181,5.1765,5.1167,5.0552,5.0145,4.9847,4.9532,4.9011,4.9239,4.926,4.9072,4.9522,4.9808,4.9808,4.8449,4.7653,4.7484,4.6024,4.5409,4.5689,4.5835,4.5325,4.4177,4.3919,4.4006,4.4564,4.4965,4.5471,4.6147,4.6995,4.7724,4.8604,5.0464,5.1183,5.1183,5.1333,5.1778,5.215,5.0121,4.9548,4.9543,4.9137,4.9307,4.9975,5.1202,5.1159,5.094,5.2418,5.2834,5.2972,5.3433,5.3501,5.3702,5.4321,5.4886,5.507,5.4512,5.4385,5.4385,5.4385,5.4385,5.4192,5.3635,5.1862,5.0614,5.0614,5.0614,5.1011,5.2037,5.1925,5.1605,5.1349,5.1546,5.1459,5.0873,5.0435,4.9867,4.9121,4.8466,4.7807,4.7086,4.7791,4.8301,4.861,4.9025,4.9197,4.9184,4.9303,4.9303,4.9184,4.9536,5.04,3.438,3.8974,4.2935,0.0,4.771,4.8578,4.892,0.0,4.9226,4.9586,4.9433,4.9891,5.1884,5.1748,5.1434,5.1491,5.1249,5.0983,5.0769,5.0022,4.9452,4.9434,4.9525,4.9495,4.9278,4.9595,4.9649,4.9258,4.9238,4.9148,4.8977,4.9045,4.9075,4.9092,4.7977,4.7314,4.7133,4.5905,4.5169,4.4855,4.4923,4.4614,4.3926,4.3897,4.4044,4.4301,4.4779,4.5117,4.5342,4.6745,4.7167,4.7075,4.7909,4.8643,4.9423,4.9423,4.9648,4.9875,4.9207,4.9001,4.9063,4.9445,4.9976,5.0571,5.0869,5.0609,5.0264,5.0646,5.1916,5.3332,5.3932,5.4321,5.47,5.5009,5.5269,5.4975,5.2933,5.355,5.4637,5.5009,5.4762,5.4385,5.4127,5.2054,5.0393,5.0068,5.028,5.075,5.1394,5.1193,5.1002,5.0885,5.0742,5.0575,5.0435,4.9882,4.9252,4.8567,4.8212,4.7678,4.6924,4.7244,4.7273,4.6855,4.7879,4.8356,4.8307,4.8356,4.8387,4.8453,4.931,4.9977,0.0,0.0,4.1361,4.4491,4.6148,4.7219,0.0,0.0,4.8078,0.0,4.7095,4.6861,4.9059,4.9404,4.9356,4.9362,4.8995,4.8565,4.8245,4.7638,4.7104,4.6866,4.7563,4.8075,4.8014,4.8707,4.9136,4.9132,4.8964,4.8908,4.9048,4.883,4.8723,4.8741,4.7817,4.7194,4.6899,4.5891,4.5069,4.4406,4.427,4.4112,4.3894,4.4248,4.4354,4.4339,4.48,4.474,4.454,4.5804,4.6085,4.5744,4.523,4.6193,4.8001,4.8179,4.8244,4.8373,4.9001,4.9246,4.9367,5.0051,5.0561,5.0819,5.0582,5.032,4.9976,4.9428,5.0752,5.2547,5.3356,5.408,5.4543,5.4543,5.4543,5.3908,5.1599,5.3182,5.4869,5.4431,5.3903,5.3602,5.3602,5.2061,5.0764,5.0488,5.0819,5.1088,5.0981,5.0819,5.0677,5.0431,5.0206,5.0048,4.9847,4.9412,4.8882,4.8229,4.7997,4.7604,4.7015,4.6801,4.6409,4.582,4.6692,4.7251,4.7447,4.7707,4.7843,4.7954,4.8948,4.9339,0.0,3.4402,0.0,4.0794,4.3229,0.0,0.0,0.0,4.6067,4.6122,4.5441,4.4906,4.5244,4.6396,4.7239,4.7184,4.7184,4.6746,4.5434,4.5088,4.4704,4.3981,4.4727,4.5312,4.5312,4.6033,4.6792,4.7476,4.7903,4.8459,4.9168,4.9484,4.9557,4.9341,4.8311,4.7597,4.7194,4.5891,4.5069,4.4797,4.4609,4.4507,4.441,4.5049,4.5098,4.4659,4.4561,4.4327,4.4016,4.3668,4.4388,4.5627,4.3522,4.4901,4.8066,4.869,4.894,4.9063,4.97,4.9952,5.0051,5.0672,5.0891,5.0891,5.0891,5.0655,5.0302,5.0051,4.9607,4.9528,5.0771,5.1476,5.1889,5.1889,5.1889,5.1836,5.1675,5.4118,5.5291,5.1808,5.1119,5.1082,5.1082,5.0996,5.1034,5.1538,5.164,5.1538,5.1281,5.1158,5.0753,5.003,5.0699,5.0677,4.9252,4.9239,4.8996,4.8229,4.7461,4.7033,4.6998,4.6266,4.5838,4.5802,4.5142,4.5178,4.5927,4.6784,4.725,4.725,4.7499,4.7543,0.0,0.0,0.0,3.8742,4.1082,4.2951,4.3163,4.3595,4.3979,4.4011,4.341,4.2914,4.3021,4.4082,4.5007,4.5053,4.4613,4.4313,4.4406,4.3698,4.282,4.1934,4.2094,4.2829,4.4257,4.5257,4.6171,4.6908,4.7103,4.7469,4.8144,4.7684,4.7487,4.7663,4.698,4.6513,4.629,4.5649,4.5247,4.5069,4.4923,4.4902,4.5047,4.5586,4.5636,4.5394,4.5856,4.5421,4.4435,4.4739,4.5541,4.6448,4.6175,4.7121,4.869,4.9385,4.9624,4.9742,5.0393,5.0561,5.0672,5.1228,5.1384,5.1384,5.1384,5.1333,5.1158,5.071,5.0675,5.0857,5.1281,5.1538,5.179,5.215,5.2198,5.2198,5.2198,5.2835,5.2995,5.1667,5.1384,5.1384,5.1384,5.1384,5.1487,5.169,5.169,5.164,5.1589,5.085,5.0234,4.9918,4.9487,4.8968,4.8508,4.8057,4.7543,4.6847,4.6436,4.5998,4.5481,4.5195,4.4846,4.4389,4.4603,4.4854,4.514,4.5487,4.5742,4.5852,4.6356,4.6305,3.0487,0.0,0.0,0.0,0.0,4.0615,4.1282,4.1882,4.2291,4.2318,4.195,4.1562,4.1312,4.1705,4.2267,4.2837,4.2435,4.2099,4.2128,4.164,4.0884,3.9872,4.0328,4.1156,4.2348,4.367,4.4918,4.6006,4.612,0.0,4.7486,4.6754,4.6313,4.6218,4.5791,4.5472,4.5254,4.4904,4.4665,4.4473,4.4333,4.4473,4.4838,4.5176,4.5788,4.6494,4.6799,4.6175,4.5039,4.5589,4.6207,4.703,4.7968,4.8753,4.9428,5.0034,5.0432,5.0582,5.0819,5.1034,5.1246,5.1589,5.184,5.1956,5.1956,5.1956,5.184,5.135,5.1454,5.174,5.1938,5.1956,5.2054,5.2405,5.2498,5.2498,5.2498,5.2246,5.1956,5.1956,5.1956,5.1956,5.1956,5.1956,5.1956,5.1956,5.1889,5.1714,5.1357,5.0637,4.9969,4.9434,4.8799,4.8259,4.7847,4.7329,4.6704,4.605,4.5596,4.5178,4.4686,4.415,4.3799,4.3673,4.3714,4.3863,4.4173,4.4671,4.5006,4.5251,4.5128,4.4469,0.0,0.0,0.0,0.0,0.0,0.0,4.0201,0.0,4.094,4.1043,4.1019,4.077,4.0057,3.9257,3.9115,4.047,4.0685,4.0139,3.8484,3.8871,3.8908,3.7798,3.9401,4.0282,3.9474,4.1073,4.2894,4.4706,4.4905,4.5664,4.7238,4.6986,4.6304,4.5321,4.4898,4.4484,4.4124,4.3715,4.3363,4.3099,4.2945,4.3168,4.3588,4.3962,4.5517,4.7868,4.7186,4.6512,4.5769,4.5776,4.6278,4.7082,4.8467,4.9445,5.0109,5.0727,5.1246,5.164,5.1088,5.1298,5.174,5.174,5.2102,5.2498,5.2498,5.2498,5.2387,5.1889,5.174,5.184,5.2387,5.2544,5.2508,5.2417,5.2472,5.2544,5.2544,5.2544,5.2544,5.2498,5.2498,5.2498,5.2498,5.2426,5.2353,5.2353,5.2203,5.17,5.0703,5.0599,4.999,4.8432,4.8811,4.865,4.7286,4.7035,4.6632,4.5978,4.5061,4.4614,4.4707,4.3202,4.2795,4.3688,4.2294,4.1993,4.2865,4.4325,4.5142,4.534,4.376,4.2061,2.8848,0.0,0.0,0.0,0.0,0.0,0.0,0.0,3.7089,3.7742,3.7874,3.795,3.8336,3.8254,3.8046,3.7881,3.8175,3.8111,3.7258,3.7227,3.7156,3.6798,3.7291,3.8173,3.9414,4.0104,4.1184,0.0,4.3776,4.4592,4.5533,4.5801,4.5649,4.5015,4.4582,4.4345,4.437,4.3962,4.3602,4.3412,4.3197,4.3286,4.3597,4.4286,4.4953,4.5631,4.7073,4.6388,4.4362,4.5914,4.703,4.7787,4.869,4.9666,5.0727,5.1281,5.1589,5.169,5.1538,5.184,5.2293,5.2293,5.2387,5.2544,5.2886,5.2771,5.2452,5.234,5.2293,5.2462,5.3235,5.344,5.285,5.047,5.1724,5.344,5.344,5.344,5.3277,5.2618,5.2771,5.2904,5.2544,5.0578,4.9039,4.9039,4.9973,5.0543,5.0299,4.9127,4.8209,4.7777,4.7223,4.6802,4.6503,4.5756,4.5033,4.4414,4.4062,4.3417,4.2368,4.1962,4.1625,4.1413,4.1161,4.1176,4.1464,4.2359,4.2868,4.2923,4.1405,4.0276,0.0,0.0,0.0,0.0,0.0,0.0,3.4378,3.4815,3.5167,3.6048,3.6492,3.6762,3.6903,3.6935,3.68,3.635,3.6517,3.6572,3.6169,3.6293,3.6252,3.5834,3.674,3.7761,3.8669,3.9472,4.0542,4.2072,4.2978,4.389,4.4905,4.5119,4.5009,4.4586,4.3858,4.3597,4.3804,4.2701,4.2343,4.2707,4.2007,4.1968,4.2472,4.298,4.3116,4.3149,4.4436,4.4778,4.4428,4.5768,4.7095,4.85,4.9141,5.0951,5.3086,5.2323,5.2036,5.2036,5.2036,5.2246,5.2498,5.2498,5.2636,5.286,5.3121,5.2992,5.2816,5.2816,5.2816,5.2619,5.1934,5.1878,5.1484,4.9408,5.0358,5.1769,5.1769,5.2939,5.3737,5.269,5.2999,5.2872,5.1055,4.9167,4.8075,4.8465,4.9319,4.9883,4.9688,4.8743,4.7933,4.7522,4.6654,4.6144,4.6212,4.4713,4.3632,4.3386,4.2602,4.1812,4.1068,4.0726,4.0601,4.0651,4.0547,4.0569,4.0777,4.1309,4.1272,4.0675,3.9896,3.9081,0.0,0.0,0.0,0.0,0.0,0.0,3.4341,3.4526,3.436,3.5127,3.5863,3.6172,3.5553,3.5379,3.532,3.5291,3.5387,3.5427,3.534,3.5821,3.5892,3.504,3.7032,3.8229,3.7661,3.9032,4.0442,4.1609,4.2278,4.321,4.463,4.4487,4.4223,4.386,4.2928,4.2466,4.2575,4.0753,4.0357,4.1323,4.0122,4.0037,4.0918,4.0935,4.0965,4.1071,4.1041,4.2853,4.5768,4.5735,4.711,4.9307,4.9918,5.2541,5.558,5.3339,5.2544,5.259,5.2544,5.2544,5.259,5.259,5.2886,5.329,5.329,5.329,5.329,5.329,5.2973,5.2158,4.9635,4.923,4.9427,4.9046,4.8978,4.8978,4.8978,5.1877,5.4108,5.3005,5.3341,5.2716,4.9048,4.8382,4.8636,4.9472,4.9555,4.9364,4.893,4.875,4.8297,4.7373,4.6513,4.5966,4.5923,4.376,4.2444,4.2569,4.1045,4.0218,4.0437,3.9748,3.9777,4.065,4.0178,4.0141,4.05,4.0861,4.0308,3.8923,3.8915,3.8156,0.0,0.0,0.0,0.0,0.0,0.0,3.1809,3.2064,3.2525,3.2693,3.2856,3.3115,3.3672,3.3762,3.3522,3.2842,3.3805,3.4826,3.5387,3.5528,3.5496,3.5264,3.6226,3.7125,3.7565,3.8518,3.9528,4.0463,4.1085,4.1851,4.2782,4.2598,4.2388,4.2249,4.1946,4.1625,4.1277,4.0438,3.9946,3.9817,3.9234,3.969,4.1059,4.1215,4.1577,4.2044,4.202,4.4295,4.7962,4.7797,4.884,5.0582,5.1176,5.1861,5.2598,5.2527,5.2726,5.2992,5.2636,5.2771,5.3078,5.3078,5.3336,5.3697,5.3697,5.3697,5.3697,5.3697,5.1788,4.9691,4.9449,4.9427,4.9459,4.9396,4.9377,4.9377,4.9377,5.2253,5.473,5.4482,5.4352,5.3203,4.9842,4.8855,4.8624,4.8882,4.8675,4.8221,4.7487,4.7299,4.6892,4.607,4.5077,4.4256,4.3701,4.2384,4.1445,4.1053,4.0655,4.0293,4.0033,3.9856,3.9643,3.9305,3.949,3.9682,3.9896,4.0438,4.0145,3.9036,3.7718,3.6907,0.0,0.0,0.0,3.2144,0.0,0.0,0.0,3.1041,3.0872,3.1318,3.1061,3.1013,3.1879,3.1693,3.1557,3.1977,3.27,3.3464,3.4235,3.4993,3.543,3.5407,3.6113,3.6894,3.7632,3.8475,3.9489,4.0672,4.0981,4.1411,4.2121,4.1954,4.1791,4.1698,4.1192,4.0886,4.0906,3.9694,3.9369,3.9929,3.9087,3.919,4.0246,4.1453,4.2697,4.3942,4.4142,4.6011,4.8909,4.8882,4.9404,5.0326,5.1625,5.2228,5.2508,5.2753,5.3146,5.3237,5.1338,5.0867,5.1339,5.3198,5.3907,5.3792,5.2167,5.1681,5.1681,5.1681,5.0486,4.9249,4.9459,4.9593,4.9692,4.9692,4.9807,5.0372,5.2087,5.3888,5.4656,5.2943,5.2352,5.136,4.8784,4.7816,4.7396,4.7575,4.7439,4.7167,4.6636,4.6489,4.6268,4.579,4.4546,4.3616,4.3269,4.1578,4.0399,4.0221,3.9738,3.9443,3.9397,3.9038,3.8571,3.8065,3.8733,3.9328,3.9796,3.9258,3.8721,3.8184,3.7336,3.6464,0.0,0.0,0.0,0.0,0.0,3.1463,0.0,0.0,0.0,3.0234,2.9745,2.9464,3.0193,0.0,0.0,3.0888,0.0,0.0,0.0,3.3809,0.0,3.5007,3.5726,3.6517,3.7268,3.7912,3.8974,4.0648,4.017,4.0282,4.1383,4.1175,4.1036,4.1059,4.0352,4.0087,4.043,3.8922,3.8761,4.0014,3.9009,3.876,3.9294,4.1274,4.3276,4.5167,4.5901,4.708,4.8525,4.8906,4.9113,4.9434,5.1216,5.215,5.2475,5.2475,5.3082,5.3442,5.0198,4.9094,4.959,5.2569,5.3532,5.3043,5.0372,4.9582,4.9582,4.9582,4.9582,4.9582,4.9582,4.9778,4.9986,5.0038,5.0212,5.114,5.3989,5.4043,5.2732,4.9934,4.9239,4.8555,4.7038,4.6252,4.6017,4.6445,4.6445,4.6331,4.6045,4.5993,4.5798,4.5366,4.4081,4.3162,4.2904,4.0936,3.9621,3.943,3.886,3.8634,3.891,3.7846,3.7309,3.7459,3.8175,3.888,3.9523,3.8174,3.7278,3.6828,3.6871,3.6234,0.0,0.0,0.0,0.0,3.419,0.0,0.0,0.0,3.0189,2.8864,0.0,2.8396,2.8551,0.0,0.0,0.0,0.0,0.0,2.9835,3.1255,3.2542,3.3214,3.3986,3.4808,3.5605,3.5484,3.6368,3.8731,3.6535,3.6379,3.9349,3.8656,3.8477,3.9091,3.9076,3.8939,3.8766,3.8372,3.8228,3.8293,3.8487,3.8709,3.8999,4.019,4.1719,4.3579,4.5342,4.603,4.5985,4.7049,4.7814,4.8445,4.9459,4.9875,4.9926,4.9926,5.1794,5.3887,5.0835,4.9797,4.9853,5.0279,5.0392,5.0336,4.9957,4.9871,4.9871,4.9871,4.9871,4.9871,4.9871,5.0038,5.0325,5.0542,5.0643,5.0855,5.1538,4.9171,4.677,4.6304,4.6086,4.5821,4.5247,4.5073,4.5395,4.6422,4.6337,4.6052,4.5779,4.5574,4.4892,4.3404,4.2953,4.2217,4.0778,4.0277,3.9501,3.8201,3.8683,3.8989,3.8892,3.6755,3.6451,3.8323,3.8115,3.8082,3.822,3.8009,3.6982,3.5173,3.5377,3.5433,0.0,0.0,0.0,0.0,0.0,0.0,2.9959,0.0,2.8311,0.0,0.0,0.0,0.0,0.0,0.0,0.0,2.7254,0.0,0.0,0.0,2.9735,3.2018,0.0,0.0,3.437,3.4748,3.5665,3.7517,3.5506,3.5168,3.7387,3.7024,3.689,3.7179,3.7716,3.7943,3.7771,3.8191,3.8634,3.8976,3.9202,3.982,4.0852,4.1393,4.2642,4.4389,4.5379,4.624,4.6907,4.6855,4.7151,4.7612,4.7257,4.82,4.975,4.9898,4.9695,4.9401,5.0077,5.0313,5.0336,5.0446,5.0442,5.0371,5.0371,5.0421,5.0467,5.0396,5.0371,5.0371,5.0371,5.0438,5.0624,5.0929,5.1009,5.0785,4.9841,4.8507,4.7167,4.6067,4.5815,4.5742,4.5568,4.5343,4.5328,4.5783,4.5684,4.5507,4.5319,4.4757,4.4078,4.3348,4.221,4.1081,3.9986,3.9303,3.8486,3.7449,3.8035,3.8109,3.7486,3.6899,3.6632,3.676,3.7314,3.7317,3.6721,3.6667,3.6233,3.5419,3.5388,3.5417,3.9429,0.0,0.0,0.0,0.0,0.0,0.0,0.0,0.0,0.0,0.0,0.0,0.0,0.0,0.0,0.0,0.0,2.6524,0.0,2.6042,0.0,0.0,0.0,0.0,0.0,3.294,3.3723,3.5689,3.3629,3.3361,3.5807,3.5593,3.5608,3.5976,3.6698,3.7149,3.7308,3.801,3.8799,3.959,4.0062,4.088,4.1939,4.2329,4.3472,4.5121,4.5338,4.6055,4.7052,4.6682,4.6575,4.6597,4.5681,4.6732,4.8753,4.8952,4.7875,4.6696,4.9141,5.0314,5.0692,5.039,5.024,5.024,5.0723,5.0932,5.0995,5.088,5.0849,5.0849,5.0849,5.0849,5.0897,5.1134,5.0549,4.9659,4.8766,4.8273,4.766,4.6591,4.6192,4.6027,4.6027,4.5742,4.5509,4.5454,4.5381,4.5207,4.4855,4.4195,4.346,4.2682,4.1392,4.0146,3.9109,3.8371,3.776,3.7382,3.7171,3.7159,3.7343,3.7145,3.6584,3.5631,3.622,3.6051,3.513,3.5236,3.4975,3.4392,3.4206,3.4616,0.0,0.0,0.0,3.5124,0.0,0.0,0.0,0.0,2.8953,0.0,0.0,0.0,0.0,0.0,0.0,0.0,0.0,0.0,0.0,0.0,0.0,0.0,0.0,0.0,0.0,2.8966,2.9292,3.2588,2.9649,2.9853,3.4788,3.4173,3.4389,3.5939,3.6161,3.6662,3.7595,3.7738,3.8339,3.9328,4.084,4.1437,4.1263,4.2099,4.3381,4.4907,4.4931,4.4959,4.5066,4.5954,4.5944,4.5354,4.5239,4.5419,4.575,4.5757,4.6793,4.8246,4.84,4.9614,5.0833,4.9274,4.8777,4.9083,5.0778,5.1292,5.1276,5.1206,5.119,5.119,5.119,5.119,5.119,5.1202,4.872,4.68,4.8429,4.742,4.6422,4.7202,4.6677,4.6093,4.6093,4.5986,4.5873,4.579,4.5733,4.5356,4.4432,4.4245,4.3195,4.0578,4.0234,3.949,3.7718,3.7528,3.7737,3.8229,3.6216,3.6423,3.9643,3.7263,3.5862,3.5883,3.4831,3.3994,3.3384,3.3955,3.307,3.0865,3.0655,3.2405,0.0,0.0,3.8695,3.6716,0.0,0.0,0.0,0.0,0.0,0.0,0.0,0.0,0.0,0.0,0.0,0.0,0.0,0.0,0.0,0.0,2.3082,0.0,0.0,0.0,0.0,0.0,2.9117,3.0673,2.9234,2.9468,3.2127,3.2583,3.2993,3.3549,3.5318,3.6462,3.6869,3.8242,3.9121,3.9502,4.0212,4.0755,4.1156,4.1496,4.2025,4.2743,4.3142,4.3152,4.2947,4.4249,4.4588,4.4326,4.5151,4.4874,4.4214,4.5847,4.6568,4.682,4.7552,4.8521,4.9554,5.0167,4.9362,4.8288,4.8866,5.0122,5.0897,4.8605,4.7967,4.7955,4.7955,4.7972,4.7957,4.7957,4.7084,4.6616,4.7918,4.7587,4.6936,4.6663,4.6372,4.6167,4.6171,4.564,4.5222,4.5153,4.5079,4.4711,4.3821,4.264,4.1547,4.0641,3.9415,3.8216,3.7083,3.6393,3.6086,3.6249,3.54,3.5477,3.6747,3.62,3.5359,3.4266,3.3871,3.3574,3.3363,3.3177,3.2868,3.2465,3.1234,3.12,4.0885,4.0203,0.0,3.7482,3.52,0.0,3.1177,0.0,2.9864,0.0,0.0,0.0,0.0,0.0,0.0,0.0,0.0,0.0,0.0,2.1502,0.0,2.1187,2.384,0.0,0.0,2.6218,2.7155,2.8688,2.7777,2.8055,0.0,3.1292,3.2101,3.2402,3.4412,3.5707,3.6189,3.7853,3.8916,3.9328,4.0171,4.0843,4.1298,4.1358,4.1642,4.2072,4.2115,4.2134,4.2229,4.3174,4.3522,4.352,4.4374,4.4311,4.3962,4.5843,4.6491,4.6535,4.7226,4.798,4.8817,4.9615,4.8931,4.769,4.7396,4.8375,4.9121,4.6894,4.6265,4.6256,4.6256,4.6265,4.6269,4.6287,4.6306,4.6477,4.7147,4.684,4.6308,4.5827,4.5484,4.5272,4.5273,4.4804,4.4521,4.4799,4.4518,4.3884,4.2702,4.1529,4.044,3.9533,3.8349,3.7257,3.6385,3.5753,3.5378,3.5304,3.5193,3.52,3.5451,3.4579,3.4194,3.4311,3.3122,3.2508,3.2461,3.2082,3.2095,3.2427,3.0684,2.9463]},{"header":{"parameterUnit":"m.s-1","parameterCategory":1,"la1":30.6,"la2":29.2853,"lo1":-89.7004,"lo2":-87.6739,"dy":0.0162,"dx":0.0183,"nx":112,"ny":82,"refTime":"2023-07-24T12:00:00:Z","depth":0,"parameterNumber":3,"parameterNumberName":"V-component_of_WINDS"},"data":[0.0,0.0,0.0,0.0,0.0,0.0,0.0,0.0,0.0,0.0,0.0,0.0,0.0,0.0,0.0,0.0,0.0,0.0,0.0,0.0,0.0,0.0,0.0,0.0,0.0,0.0,0.0,0.0,0.0,0.0,0.0,0.0,0.0,0.0,0.0,0.0,0.0,0.0,0.0,0.0,0.0,0.0,0.0,0.0,0.0,0.0,0.0,0.0,0.0,0.0,0.0,0.0,0.0,0.0,0.0,0.0,0.0,0.0,0.0,0.0,0.0,0.0,0.0,0.0,0.0,0.0,0.0,0.0,0.0,0.0,0.0,0.0,0.0,0.0,0.0,0.0,0.0,0.0,0.0,0.0,0.0,0.0,0.0,0.0,0.0,0.0,0.0,0.0,0.0,0.0,-0.942,-0.8059,-0.5255,-0.3418,-0.3243,-0.2453,-0.196,-0.1883,0.0,0.0,0.0,0.0,0.0,0.0,0.0,0.0,0.0,0.0,0.0,0.0,0.0,0.0,0.0,0.0,0.0,0.0,0.0,0.0,0.0,0.0,0.0,0.0,0.0,0.0,0.0,0.0,0.0,0.0,0.0,0.0,0.0,0.0,0.0,0.0,0.0,0.0,0.0,0.0,0.0,0.0,0.0,0.0,0.0,0.0,0.0,0.0,0.0,0.0,0.0,0.0,0.0,0.0,0.0,0.0,0.0,0.0,0.0,0.0,0.0,0.0,0.0,0.0,0.0,0.0,0.0,0.0,0.0,0.0,0.0,0.0,0.0,0.0,0.0,0.0,0.0,0.0,0.0,0.0,0.0,0.0,0.0,0.0,0.0,0.0,0.0,0.0,0.0,0.0,0.0,0.0,0.0,0.0,0.0,0.0,0.0,0.0,0.0,0.0,0.0,0.0,0.0,0.0,-1.0535,-0.7038,-0.4963,-0.347,-0.2622,-0.2422,-0.1923,-0.0979,0.0,0.0,0.0,0.0,0.0,0.0,0.0,0.0,0.0,0.0,0.0,0.0,0.0,0.0,0.0,0.0,0.0,0.0,0.0,0.0,0.0,0.0,0.0,0.0,0.0,0.0,0.0,0.0,0.0,0.0,0.0,0.0,0.0,0.0,0.0,0.0,0.0,0.0,0.0,0.0,0.0,0.0,0.0,0.0,0.0,0.0,0.0,0.0,0.0,0.0,0.0,0.0,0.0,0.0,0.0,0.0,0.0,0.0,0.0,0.0,0.0,0.0,0.0,0.0,0.0,0.0,0.0,0.0,0.0,0.0,0.0,0.0,0.0,0.0,0.0,0.0,0.0,0.0,0.0,0.0,0.0,0.0,0.0,0.0,0.0,0.0,0.0,0.0,0.0,0.0,0.0,0.0,0.0,0.0,0.0,0.0,0.0,0.0,0.0,0.0,0.0,0.0,0.0,-1.1466,-0.9779,-0.7015,-0.5413,-0.4407,-0.4005,-0.3264,-0.2215,-0.0802,-0.0412,0.0,0.0,0.0,0.0,0.0,0.0,0.0,0.0,0.0,0.0,0.0,0.0,0.0,0.0,0.0,0.0,0.0,0.0,0.0,0.0,0.0,0.0,0.0,0.0,0.0,0.0,0.0,0.0,0.0,0.0,0.0,0.0,0.0,0.0,0.0,0.0,0.0,0.0,0.0,0.0,0.0,0.0,0.0,0.0,0.0,0.0,0.0,0.0,0.0,0.0,0.0,0.0,0.0,0.0,0.0,0.0,0.0,0.0,0.0,0.0,0.0,0.0,0.0,0.0,0.0,0.0,0.0,0.0,0.0,0.0,0.0,0.0,0.0,0.0,0.0,0.0,0.0,0.0,0.0,0.0,0.0,0.0,0.0,0.0,0.0,0.0,0.0,0.0,0.0,0.0,0.0,0.0,0.0,0.0,0.0,0.0,0.0,0.0,0.0,0.0,0.0,0.0,-1.0108,-0.8304,-0.6552,-0.5326,-0.4534,-0.4311,-0.3286,-0.2044,-0.0527,0.0426,0.0,0.0,0.0,0.0,0.0,0.0,0.0,0.0,0.0,0.0,0.0,0.0,0.0,0.0,0.0,0.0,0.0,0.0,0.0,0.0,0.0,0.0,0.0,0.0,0.0,0.0,0.0,0.0,0.0,0.0,0.0,0.0,0.0,0.0,0.0,0.0,0.0,0.0,0.0,0.0,0.0,0.0,0.0,0.0,0.0,0.0,0.0,0.0,0.0,0.0,0.0,0.0,0.0,0.0,0.0,0.0,0.0,0.0,0.0,0.0,0.0,0.0,0.0,0.0,0.0,0.0,0.0,0.0,0.0,0.0,0.0,0.0,0.0,0.0,0.0,0.0,0.0,0.0,0.0,0.0,0.0,0.0,0.0,0.0,0.0,0.0,0.0,0.0,0.0,0.0,0.0,0.0,0.0,0.0,0.0,0.0,0.0,0.0,0.0,0.0,0.0,0.0,-0.8047,-0.6483,-0.4692,-0.3752,-0.2713,-0.1412,-0.1213,-0.0723,0.0251,0.0792,0.0,0.0,0.0,0.0,0.0,0.0,0.0,0.0,0.0,0.0,0.0,0.0,0.0,0.0,0.0,0.0,0.0,0.0,0.0,0.0,0.0,0.0,0.0,0.0,0.0,0.0,0.0,0.0,0.0,0.0,0.0,0.0,0.0,0.0,0.0,0.0,0.0,0.0,0.0,0.0,0.0,0.0,0.0,0.0,0.0,0.0,0.0,0.0,0.0,0.0,0.0,0.0,0.0,0.0,0.0,0.0,0.0,0.0,0.0,0.0,0.0,0.0,0.0,0.0,0.0,0.0,0.0,0.0,0.0,0.0,0.0,0.0,0.0,0.0,0.0,0.0,0.0,0.0,0.0,0.0,0.0,0.0,0.0,0.0,0.0,0.0,0.0,0.0,0.0,0.0,0.0,0.0,0.0,0.0,0.0,0.0,0.0,0.0,0.0,0.0,0.0,0.0,-0.753,-0.5895,0.0,-0.1903,-0.0785,0.0348,0.0891,0.1209,0.1275,0.0,0.0,0.0,0.0,0.0,0.0,0.0,0.0,0.0,0.0,0.0,0.0,0.0,0.0,0.0,0.0,0.0,0.0,0.0,0.0,0.0,0.0,0.0,0.0,0.0,0.0,0.0,0.0,0.0,0.0,0.0,0.0,0.0,0.0,0.0,0.0,0.0,0.0,0.0,0.0,0.0,0.0,0.0,0.0,0.0,0.0,0.0,0.0,0.0,0.0,0.0,0.0,0.0,0.0,0.0,0.0,0.0,0.0,0.0,0.0,0.0,0.0,0.0,0.0,0.0,0.0,0.0,0.0,0.0,0.0,0.0,0.0,0.0,0.0,0.0,0.0,0.0,0.0,0.0,0.0,0.0,0.0,0.0,0.0,0.0,0.0,0.0,0.0,0.0,0.0,0.0,0.0,0.0,0.0,0.0,0.0,0.0,0.0,0.0,0.0,0.0,0.0,-0.7826,-0.7041,-0.5609,0.0,-0.1232,0.0202,0.112,0.1953,0.23,0.203,0.0,0.0,0.0,0.0,0.0,0.0,0.0,0.0,0.0,0.0,0.0,0.0,0.0,0.0,0.0,0.0,0.0,0.0,0.0,0.0,0.0,0.0,0.0,0.0,0.0,0.0,0.0,0.0,0.0,0.0,0.0,0.0,0.0,0.0,0.0,0.0,0.0,0.0,0.0,0.0,0.0,0.0,0.0,0.0,0.0,0.0,0.0,0.0,0.0,0.0,0.0,0.0,0.0,0.0,0.0,0.0,0.0,0.0,0.0,0.0,0.0,0.0,0.0,0.0,0.0,0.0,0.0,0.0,0.0,0.0,0.0,0.0,0.0,0.0,0.0,0.0,0.0,0.0,0.0,0.0,0.0,0.0,0.0,0.0,0.0,0.0,0.0,0.0,0.0,0.0,0.0,0.0,0.0,0.0,0.0,0.0,0.0,0.0,0.0,0.0,0.0,0.0,-0.7207,-0.6313,-0.5413,-0.4448,-0.1928,0.0062,0.0945,0.1755,0.2298,0.0,0.0,0.0,0.0,0.0,0.0,0.0,0.0,0.0,0.0,0.0,0.0,0.0,0.0,0.0,0.0,0.0,0.0,0.0,0.0,0.0,0.0,0.0,0.0,0.0,0.0,0.0,0.0,0.0,0.0,0.0,0.0,0.0,0.0,0.0,0.0,0.0,0.0,0.0,0.0,0.0,0.0,0.0,0.0,0.0,0.0,0.0,0.0,0.0,0.0,0.0,0.0,0.0,0.0,0.0,0.0,0.0,0.0,0.0,0.0,0.0,0.0,0.0,0.0,0.0,0.0,0.0,0.0,0.0,0.0,0.0,0.0,0.0,0.0,0.0,0.0,0.0,0.0,0.0,0.0,0.0,0.0,0.0,0.0,0.0,0.0,0.0,0.0,0.0,0.0,0.0,0.0,0.0,0.0,0.0,0.0,0.0,0.0,0.0,0.0,0.0,0.0,0.0,-0.5792,-0.4809,-0.3605,-0.1963,-0.0222,0.1251,0.2327,0.2724,0.2885,0.2864,0.0,0.0,0.0,0.0,0.0,0.0,0.0,0.0,0.0,0.0,0.0,0.0,0.0,0.0,0.0,0.0,0.0,0.0,0.0,0.0,0.0,0.0,0.0,0.0,0.0,0.0,0.0,0.0,0.0,0.0,0.0,0.0,0.0,0.0,0.0,0.0,0.0,0.0,0.0,0.0,0.0,0.0,0.0,0.0,0.0,0.0,0.0,0.0,0.0,0.0,0.0,0.0,0.0,0.0,0.0,0.0,0.0,0.0,0.0,0.0,0.0,0.0,0.0,0.0,0.0,0.0,0.0,0.0,0.0,0.0,0.0,0.0,0.0,0.0,0.0,0.0,0.0,0.0,0.0,0.0,0.0,0.0,0.0,0.0,0.0,0.0,0.0,0.0,0.0,0.0,0.0,0.0,0.0,0.0,0.0,0.0,0.0,0.0,0.0,0.0,0.0,0.0,-0.5159,-0.3868,-0.2332,-0.0428,0.1086,0.2415,0.3536,0.3715,0.3615,0.3306,0.0,0.0,0.0,0.0,0.0,0.0,0.0,0.0,0.0,0.0,0.0,0.0,0.0,0.0,0.0,0.0,0.0,0.0,0.0,0.0,0.0,0.0,0.0,0.0,0.0,0.0,0.0,0.0,0.0,0.0,0.0,0.0,0.0,0.0,0.0,0.0,0.0,0.0,0.0,0.0,0.0,0.0,0.0,0.0,0.0,0.0,0.0,0.0,0.0,0.0,0.0,0.0,0.0,0.0,0.0,0.0,0.0,0.0,0.0,0.0,0.0,0.0,0.0,0.0,0.0,0.0,0.0,0.0,0.0,0.0,0.0,0.0,0.0,0.0,0.0,0.0,0.0,0.0,0.0,0.0,0.0,0.0,0.0,0.0,0.0,0.0,0.0,0.0,0.0,0.0,0.0,0.0,0.0,0.0,0.0,0.0,0.0,0.0,0.0,0.0,0.0,0.0,-0.4899,-0.3209,-0.1326,0.0501,0.2046,0.3402,0.4549,0.4623,0.4426,0.398,0.0,0.0,0.0,0.0,0.0,0.0,0.0,0.0,0.0,0.0,0.0,0.0,0.0,0.0,0.0,0.0,0.0,0.0,0.0,0.0,0.0,0.0,0.0,0.0,0.0,0.0,0.0,0.0,0.0,0.0,0.0,0.0,0.0,0.0,0.0,0.0,0.0,0.0,0.0,0.0,0.0,0.0,0.0,0.0,0.0,0.0,0.0,0.0,0.0,0.0,0.0,0.0,0.0,0.0,0.0,0.0,0.0,0.0,0.0,0.0,1.3697,0.0,0.0,0.0,0.0,0.0,0.0,0.0,0.0,0.0,0.0,0.0,0.0,0.0,0.0,0.0,0.0,0.0,0.0,0.0,0.0,0.0,0.0,0.0,0.0,0.0,0.0,0.0,0.0,0.0,0.0,0.0,0.0,0.0,0.0,0.0,0.0,0.0,0.0,0.0,0.0,0.0,-0.3001,-0.1625,0.0,0.1863,0.2716,0.3672,0.5046,0.4914,0.5037,0.5695,0.4487,0.0,0.0,0.0,0.0,0.0,0.0,0.0,0.0,0.0,0.0,0.0,0.0,0.0,0.0,0.0,0.0,0.0,0.0,0.0,0.0,0.0,0.0,0.0,0.0,0.0,0.0,0.0,0.0,0.0,0.0,0.0,0.0,0.0,0.0,0.0,0.0,0.0,0.0,0.0,0.0,0.0,0.0,0.0,0.0,0.0,0.0,0.0,0.0,0.0,0.0,0.0,0.0,0.0,0.0,0.0,0.0,0.0,0.0,0.0,0.0,1.4885,0.0,0.0,0.0,0.0,0.0,0.0,0.0,0.0,0.0,0.0,0.0,0.0,0.0,0.0,0.0,0.0,0.0,0.0,0.0,0.0,0.0,0.0,0.0,0.0,0.0,0.0,0.0,0.0,0.0,0.0,0.0,0.0,0.0,0.0,0.0,0.0,0.0,0.0,0.0,0.0,-0.1805,-0.0434,0.1111,0.2926,0.361,0.4259,0.5073,0.5138,0.5404,0.6029,0.4876,0.0,0.0,0.0,0.0,0.0,0.0,0.0,0.0,0.0,0.0,0.0,0.0,0.0,0.0,0.0,0.0,0.0,0.0,0.0,0.0,0.0,0.0,0.0,0.0,0.0,0.0,0.0,0.0,0.0,0.0,0.0,0.0,0.0,0.0,0.0,0.0,0.0,0.0,0.0,0.0,0.0,0.0,0.0,0.0,0.0,0.0,0.0,0.0,0.0,0.0,0.0,0.0,0.0,0.9868,0.9456,0.918,1.4675,1.8112,1.9669,1.7757,1.7019,1.7,1.4978,0.0,0.0,0.0,0.0,0.0,0.0,0.0,0.0,0.0,0.0,0.0,0.0,0.0,0.0,0.0,0.0,0.0,0.0,0.0,0.0,0.0,0.0,0.0,0.0,-0.266,-0.2528,-0.3602,0.0,0.0,0.0,0.0,0.0,0.0,0.0,0.0,0.0,0.0,0.0,-0.0912,0.043,0.1939,0.3656,0.4218,0.4657,0.5193,0.5651,0.5826,0.5732,0.4917,0.409,0.0,0.0,0.0,0.0,0.0,0.0,0.0,0.0,0.0,0.0,0.0,0.0,0.0,0.0,0.0,0.0,0.0,0.0,0.0,0.0,0.0,0.0,0.0,0.0,0.0,0.0,0.0,0.0,0.0,0.0,0.0,0.0,1.114,1.1025,0.0,0.0,0.0,0.0,0.0,0.0,0.0,0.0,0.0,0.0,0.0,0.0,0.0,0.6776,0.8362,0.9647,1.037,1.0469,1.3031,1.3506,1.2376,2.0175,2.4175,2.4836,2.323,0.0,1.8204,1.6832,0.0,0.0,0.0,0.0,0.0,0.0,0.0,0.0,0.0,0.0,0.0,0.0,0.0,0.0,0.0,0.0,0.0,0.0,0.0,0.0,0.0,0.0,-0.2615,-0.1527,-0.0382,0.0728,0.0,-0.0211,-0.2355,-0.2623,-0.2531,0.0,0.0,0.0,0.0,0.0,0.0,0.0,-0.0085,0.0828,0.215,0.3859,0.3663,0.417,0.6043,0.6936,0.6829,0.544,0.4722,0.4079,0.3481,0.2816,0.0,0.0,0.0,0.0,0.0,0.0,0.0,0.0,0.0,0.0,0.0,0.0,0.0,0.0,0.0,0.0,0.0,0.0,0.0,0.0,0.0,0.0,0.0,0.0,0.0,0.0,0.0,0.0,0.0,1.01,1.3048,1.3096,1.2172,1.0975,0.0,0.0,0.0,0.0,0.0,0.0,0.0,0.0,0.0,1.1318,1.0386,1.0383,1.154,1.385,1.3811,1.148,1.6943,1.9608,1.9751,2.3712,2.5839,2.6375,2.5992,2.3968,2.0826,1.8851,1.6312,1.3641,0.0,0.0,0.0,0.0,1.0828,1.0359,1.0076,0.9578,0.8849,0.7764,0.0,0.0,0.0,0.0,0.0,0.0,0.0,0.0,0.0,0.0,0.0114,0.1164,0.2423,0.353,0.3782,0.2543,0.1128,0.0,-0.033,-0.0573,-0.0523,0.0,0.0,0.0,0.0,0.0878,0.1372,0.2643,0.3882,0.4742,0.4683,0.5103,0.6289,0.6751,0.6657,0.5965,0.54,0.473,0.3978,0.3656,0.3296,0.0,0.0,0.0,0.0,0.0,0.0,0.0,0.0,0.0,0.0,0.0,0.0,0.0,0.0,0.0,0.0,0.0,0.0,0.0,0.0,0.0,0.0,0.0,0.0,0.0,0.0,0.0,0.0,1.3383,1.5602,1.5554,1.4729,1.3502,0.0,0.0,0.0,0.0,0.0,0.0,0.5108,0.6379,0.9917,1.6103,1.4396,1.409,1.5652,1.7632,1.7674,1.5813,2.1591,2.4945,2.6219,2.6835,2.7049,2.707,2.8137,2.6881,2.3902,2.1189,1.8827,1.6839,1.6289,1.5316,1.4248,1.3938,1.3288,1.2563,1.2603,1.2127,1.1287,1.0047,0.8629,0.6987,0.4774,0.0,0.0,0.0,0.0,0.0691,0.1866,0.2868,0.3602,0.3944,0.4824,0.5491,0.4951,0.4776,0.4255,0.0,0.1717,0.1215,0.1089,0.0,0.0,0.0,0.0,0.2203,0.3352,0.4352,0.5114,0.5576,0.6139,0.659,0.6778,0.6778,0.6618,0.6257,0.5766,0.5193,0.4499,0.4473,0.4403,0.4201,0.0,0.0,0.0,0.0,0.0,0.0,0.0,0.0,0.0,0.0,0.0,0.0,0.0,0.0,0.0,0.0,0.0,0.0,0.0,0.0,0.0,0.0,0.0,0.0,0.0,0.0,0.0,0.0,0.0,1.8744,1.7466,0.0,0.0,0.0,0.0,1.0798,0.9235,0.7936,0.7008,0.8156,1.0699,1.4561,1.6437,1.7755,1.8739,1.9696,2.2015,2.5681,2.6972,2.8194,2.942,3.0079,2.9327,2.7709,3.0238,2.9819,2.7121,2.399,2.1096,1.8513,1.7782,1.6808,1.5747,1.5568,1.5119,1.4523,1.3739,1.303,1.2418,1.1847,0.9929,0.7497,0.5621,0.2875,0.0,0.0,0.3379,0.4103,0.724,0.8115,0.7867,0.6539,0.6284,0.6346,0.6334,0.6322,0.5773,0.0,0.3053,0.2716,0.3337,0.0,0.1663,0.2708,0.3171,0.4088,0.6046,0.5265,0.4925,0.6067,0.7659,0.8403,0.7876,0.7823,0.7242,0.5826,0.529,0.5009,0.4971,0.4967,0.5182,0.561,0.5775,0.0,0.0,0.0,0.0,0.0,0.0,0.0,0.0,0.0,0.0,0.0,0.0,0.0,0.0,0.0,0.0,0.0,0.0,0.0,0.0,0.0,0.0,0.0,0.0,0.0,0.0,0.0,0.0,1.8543,1.843,0.0,1.6739,1.598,1.5414,1.4885,1.3011,1.1646,1.1083,1.394,1.6012,1.676,1.9585,1.9957,1.7649,2.1362,2.6051,3.1551,3.106,3.061,3.0266,3.0866,3.1001,3.0746,3.1276,3.1001,2.9869,2.6718,2.3797,2.1198,2.0415,1.9405,1.8315,1.8064,1.7682,1.7149,1.6485,1.5733,1.481,1.3324,1.149,0.9801,0.9415,0.7352,0.5423,0.647,0.6771,0.739,1.0197,1.0974,1.06,0.9303,0.8534,0.812,0.8115,0.7636,0.6992,0.6089,0.5339,0.4814,0.4784,0.4271,0.4148,0.4812,0.5562,0.6,0.5874,0.5979,0.6103,0.6196,0.7408,0.8008,0.7413,0.7413,0.6998,0.6056,0.5375,0.5409,0.6307,0.6333,0.6434,0.6584,0.6989,0.6632,0.0,0.0,0.0,0.0,0.0,0.0,0.0,0.0,0.0,0.0,0.0,0.0,0.0,0.0,0.0,0.0,0.0,0.0,0.0,0.0,0.0,0.0,0.0,0.0,0.0,0.0,2.1829,1.9527,2.0335,2.0666,1.9649,1.9437,1.9239,1.8962,1.7479,1.6251,1.5325,1.9314,2.1973,2.2797,2.4103,2.3678,2.129,2.4764,2.8552,3.2435,3.1982,3.1257,3.0266,3.0925,3.2003,3.3389,3.184,3.1292,3.1302,2.8565,2.6,2.3692,2.2569,2.1569,2.0699,2.0159,1.9542,1.8892,1.7918,1.6973,1.5974,1.4712,1.3196,1.1921,1.2045,1.0819,0.9464,0.9525,0.9855,1.0573,1.2249,1.2673,1.2396,1.1026,1.0203,0.9724,0.9656,0.9142,0.8573,0.8195,0.7315,0.6408,0.5822,0.5898,0.6202,0.6634,0.7471,0.7704,0.6547,0.7038,0.7476,0.7486,0.7891,0.7895,0.7139,0.7085,0.682,0.6232,0.5907,0.6139,0.7058,0.7085,0.73,0.7777,0.7895,0.738,0.6416,0.0,0.0,0.0,0.0,0.0,0.0,0.0,0.0,0.0,0.0,0.0,0.0,0.0,0.0,0.0,0.0,0.0,0.0,0.0,0.0,0.0,0.0,0.0,1.9502,2.2965,2.4643,2.1906,2.3239,2.3904,2.2629,2.3223,2.3446,2.2852,2.266,2.168,1.976,2.3846,2.8101,3.2001,2.9755,2.9035,3.0003,3.0009,2.9567,2.8825,2.9969,3.023,2.9777,3.0456,3.25,3.529,3.2097,3.1013,3.1319,2.9475,2.7666,2.5797,2.4156,2.3294,2.2825,2.1757,2.0726,1.9603,1.7898,1.6692,1.5929,1.6017,1.5059,1.3705,1.3228,1.2886,1.2508,1.1884,1.2593,1.3564,1.3564,1.3564,1.3165,1.1824,1.1305,1.1024,1.0805,1.0798,1.0673,1.0301,0.8777,0.733,0.6613,0.7068,0.7657,0.8052,0.8882,0.0,0.827,0.837,0.8941,0.9919,0.931,0.8413,0.7246,0.7139,0.6874,0.6282,0.682,0.7144,0.7155,0.709,0.7777,0.9211,0.8374,0.7466,0.6513,0.0,0.0,0.0,0.0,0.0,0.0,0.0,0.0,0.0,0.0,0.0,0.0,0.0,0.0,0.0,0.0,0.0,0.0,0.0,0.0,0.0,0.0,2.6083,2.7112,2.6199,2.5211,2.4368,2.541,2.6258,2.6588,2.6248,2.5973,2.5587,2.5756,2.5539,2.5025,2.698,2.8864,3.0475,3.0918,3.1815,3.3121,3.3408,3.3368,3.318,3.2829,3.2809,3.3091,3.3824,3.4624,3.5394,3.4002,3.2421,3.0792,2.9786,2.8764,2.7755,2.6524,2.5077,2.3509,2.3098,2.2059,2.0644,1.9622,1.8917,1.8269,1.7641,1.6748,1.5739,1.5114,1.416,1.3476,1.4396,1.4915,1.5007,1.4425,1.4281,1.4178,1.3603,1.3322,1.2998,1.2697,1.2253,1.1812,1.1226,1.039,0.9332,0.8117,0.8495,0.9134,0.9786,0.9849,0.0,0.9202,0.9838,1.0534,1.1115,1.0513,0.9434,0.78,0.7681,0.7628,0.7467,0.758,0.7744,0.7875,0.7373,0.7877,0.9465,0.885,0.8847,0.0,0.0,0.0,0.0,0.0,0.0,0.0,0.0,0.0,0.0,0.0,0.0,0.0,0.0,0.0,0.0,0.0,0.0,0.0,0.0,0.0,0.0,2.6587,2.9199,3.1637,2.9134,2.7167,2.7472,2.7893,2.8473,2.9279,2.8549,2.8039,2.8098,2.8243,2.8366,2.8519,2.902,2.9966,3.1391,3.1998,3.2947,3.4399,3.4787,3.5118,3.5379,3.4743,3.4579,3.4883,3.5619,3.5748,3.5474,3.4551,3.3484,3.229,3.1091,2.9836,0.0,0.0,0.0,0.0,0.0,2.2413,2.1293,2.0735,2.0084,1.9488,1.9252,1.8229,1.7112,1.6886,1.5984,1.5239,1.681,1.6784,1.607,1.5292,1.5805,1.648,1.5961,1.5136,1.4434,1.43,1.3747,1.3192,1.2711,1.215,0.0,1.1141,1.1397,1.1591,1.1486,1.1386,1.1023,1.0251,1.1141,1.186,1.1839,1.131,1.0465,0.9131,0.9023,0.0,0.0,0.0,0.8456,0.8236,0.7981,0.0,0.0,0.0,0.9603,1.0624,0.0,0.0,0.0,0.6676,0.7411,0.0,0.0,0.0,0.0,0.0,0.0,0.0,0.0,0.0,0.0,0.0,0.0,0.0,0.0,0.0,0.0,2.9011,3.1419,3.4029,3.1995,3.0335,3.0804,3.0459,3.0448,3.1018,3.0316,2.9928,3.0101,3.0139,3.0304,3.0545,0.0,0.0,0.0,0.0,3.3393,3.4491,3.5126,3.5724,3.6189,3.594,3.5782,3.5634,3.6178,3.6115,3.5459,3.4431,3.4292,3.4639,3.2972,3.0832,2.8587,2.8522,2.8012,2.6948,2.4033,2.2468,2.1789,2.1463,0.0,0.0,2.0709,1.9607,1.8121,1.8526,1.8006,1.762,1.9053,1.8424,1.7174,1.6474,1.7863,1.9222,1.8514,1.7004,1.5698,1.566,1.5287,1.4768,1.4361,1.392,1.3855,1.4641,1.4641,1.4222,1.3135,1.3074,1.2757,1.1518,1.2467,1.3014,1.2405,0.0,0.0,1.0751,1.0685,1.0373,0.9676,0.95,0.9057,0.83,0.8728,0.9551,1.0674,1.0031,1.0137,1.0955,1.1938,1.2068,1.1419,0.9593,0.973,0.0,0.0,0.0,0.0,0.0,0.0,0.0,0.0,0.0,0.0,0.0,0.0,0.0,0.0,0.0,3.0048,3.2338,3.4353,3.5555,3.5208,3.4206,3.2536,3.2184,3.2239,3.2318,3.1861,3.1469,3.1057,3.132,3.1272,3.0898,3.2676,3.3803,3.3948,3.4907,3.5345,3.5204,3.6411,3.7116,3.7182,0.0,0.0,3.6304,3.6163,3.5973,3.5703,3.5344,3.505,3.4765,3.4158,3.1815,2.8522,2.7934,2.7511,2.6985,2.5434,2.4159,2.3268,2.2888,2.2359,2.1868,2.1729,2.1116,2.0243,1.9697,1.9742,0.0,2.0236,2.0091,1.984,1.9688,2.0005,2.0333,2.0167,1.9531,1.8681,1.7597,1.689,1.6323,1.5581,1.4864,1.4641,1.5434,1.5007,1.4736,1.5146,1.4247,1.3619,1.3747,1.4128,1.4169,1.3696,1.2685,1.1809,1.1435,1.1317,1.0989,1.0397,0.9732,0.8927,0.8015,0.9432,1.0588,1.1373,1.0766,1.1247,1.2906,1.315,1.3341,1.3467,1.1538,1.1612,0.0,0.0,0.0,0.0,0.0,0.0,0.0,0.0,0.0,0.0,0.0,2.2959,0.0,0.0,3.1256,3.3022,3.4726,3.606,3.7078,3.7565,3.6949,3.4664,3.443,3.429,3.3862,3.3349,3.2919,3.2577,3.2323,3.2636,3.3776,3.5236,3.5911,3.5619,3.6428,3.6851,3.6829,3.7562,3.7923,3.7973,3.721,3.6906,3.6984,3.6568,3.6211,3.6006,3.5831,3.5539,3.5096,3.4467,3.2585,2.998,2.8438,2.7536,2.7056,2.5978,2.5029,2.4225,2.3875,2.3385,2.2867,2.2644,2.223,2.1649,2.0977,2.0681,2.0566,2.0566,2.0876,2.1396,2.2281,2.2513,2.2291,2.1396,2.0722,2.0024,1.9187,1.8919,1.8443,1.7215,1.6942,1.7194,1.8026,1.7175,1.6366,1.6246,1.5367,1.4854,1.5259,1.5426,1.5196,1.4501,1.3742,1.304,1.2285,1.1722,1.1182,1.0658,1.0301,0.9854,0.9298,0.9754,1.0835,1.2519,1.2885,1.3515,1.4465,1.4465,1.4632,1.4943,1.3911,1.395,0.0,0.0,0.0,0.0,0.0,0.0,0.0,0.0,2.0643,2.1922,2.4265,2.676,2.9044,3.1549,3.3846,3.5631,3.6642,3.7615,3.855,3.9287,3.911,3.7197,3.6713,3.6258,3.5559,3.4808,3.4283,3.4048,3.3573,3.4455,3.7012,3.7535,3.7656,3.7431,3.791,3.8152,3.8193,3.8397,3.8524,3.8626,3.8065,3.7818,3.7861,3.7172,3.6723,3.6457,3.6082,3.5797,3.5439,3.4534,3.3175,3.1553,2.9494,2.8199,2.7426,2.6391,2.566,2.5144,2.4785,2.4202,2.3621,2.353,2.3165,2.267,2.2213,2.1829,2.1451,2.1451,2.1934,2.2756,2.4157,2.454,2.4251,2.2687,2.1683,2.0916,2.0611,2.0629,2.0284,1.8854,1.8939,1.9539,2.0333,1.9459,1.8303,1.7335,1.6541,1.6206,1.649,1.6442,1.6085,1.5221,1.4927,1.4348,1.3064,1.2326,1.1608,1.0994,1.107,1.1184,1.1183,1.0855,1.169,1.385,1.4896,1.5548,1.5796,1.5796,1.5793,1.5832,1.5832,1.5832,2.428,2.5924,2.5401,2.2351,2.2264,2.3421,0.0,0.0,2.6588,2.8008,3.0047,3.1798,3.2539,3.4739,3.6646,3.7268,3.8664,3.9782,3.9867,4.0349,4.0565,4.0268,3.8759,3.7648,3.7572,3.6396,3.5336,3.4848,3.5608,3.6968,3.8999,3.9116,3.8871,3.828,3.9204,3.9191,3.7977,3.8584,3.9009,3.9084,3.8494,3.856,3.9247,3.7969,3.7384,3.729,3.6216,3.5653,3.5439,3.4831,3.3541,3.1917,3.1128,2.9996,2.853,2.6939,2.6305,2.6226,2.5997,2.5342,2.455,2.4307,2.3886,2.3377,2.3076,2.3766,2.4714,2.4714,2.4714,2.4766,2.4573,2.4786,2.4988,2.4366,2.332,2.2436,2.18,2.1272,2.0857,2.0362,1.9788,1.946,1.9863,2.0178,2.0014,1.9202,1.8055,1.7288,1.757,1.7134,1.6681,1.6202,1.5859,1.5054,1.3571,1.3324,1.2912,1.2184,1.2098,1.2469,1.3136,1.4151,1.4902,1.5211,1.5357,1.5987,1.7113,1.7113,1.6628,1.5832,1.5832,1.5832,2.67,2.6382,2.5516,2.5791,2.6087,2.6752,2.8512,2.9236,2.9899,3.106,3.2795,3.4327,3.4914,3.6958,3.8693,0.0,4.0661,4.1809,4.1981,4.2238,4.2264,4.1918,4.0771,3.9476,3.8388,3.7415,3.6739,3.6579,3.7092,3.8106,3.9832,4.0577,4.0725,4.0314,4.0719,4.0643,4.007,3.9979,3.999,4.0031,3.9314,3.9164,3.9493,3.8604,3.7957,3.7461,3.6438,3.5682,3.519,3.5035,3.3739,3.1821,3.1537,3.0432,2.8888,2.7764,2.741,2.731,2.6858,2.6351,2.5675,2.5153,2.4648,2.42,2.3998,2.4253,2.4743,2.5452,2.5633,2.5549,2.5126,2.5211,2.5221,2.4609,2.4063,2.345,2.2948,2.2,2.1204,2.0996,2.0851,2.0881,2.0995,2.138,2.1435,2.0895,1.9535,1.8602,1.8681,1.8245,1.7602,1.6685,1.6062,1.5307,1.4248,1.3783,1.3664,1.4094,1.4136,1.4216,1.4618,1.5145,1.5431,1.5431,1.6155,1.6799,1.7326,1.7326,1.677,1.5845,1.6533,1.6847,2.6827,2.6286,2.7054,3.029,3.1218,3.1452,3.1884,3.2406,3.2905,3.3416,3.4985,3.6386,3.7012,3.8855,4.0418,4.09,4.2298,4.3332,4.3421,4.3514,4.3416,4.2811,4.1867,4.0601,3.8984,3.8296,3.811,3.8302,3.8389,3.896,4.0256,4.1184,4.1622,4.1399,4.134,4.1325,4.1354,4.0621,4.0382,4.0695,3.9985,3.9718,3.9757,3.9267,3.8469,3.7525,3.689,3.6166,3.5477,3.5492,3.4297,3.2529,3.222,3.1265,2.9886,2.9169,2.8589,2.8122,2.7668,2.7128,2.6517,2.5833,2.5284,2.4853,2.4692,2.4527,2.4719,2.5597,2.5822,2.5812,2.5644,2.5538,2.5441,2.5024,2.478,2.4456,2.385,2.2747,2.1858,2.1553,2.1797,2.2041,2.2104,2.2256,2.2197,2.2007,2.0837,1.9927,1.9678,1.9019,1.8127,1.7209,1.6436,1.5684,1.4893,1.4547,1.4809,1.5696,1.5756,1.5756,1.5756,1.5852,1.595,1.595,1.6857,1.7326,1.7326,1.7326,1.7137,1.6821,1.7702,1.8108,2.5337,2.7832,3.2418,3.656,3.8032,3.8056,3.647,3.6315,3.6379,3.581,3.7214,3.8662,3.921,4.0652,4.1931,4.2424,4.3485,4.4063,4.3792,4.3698,4.34,4.2959,4.1766,4.0576,0.0,3.9224,3.9268,3.9672,3.9742,3.9931,4.0403,4.082,4.0911,4.0757,4.0531,4.0501,4.0757,3.988,3.9927,4.1005,4.0337,4.0159,4.0555,3.9818,3.882,3.7667,3.7652,3.725,3.6631,3.6321,3.5455,3.4367,3.3873,3.3062,3.208,3.1137,2.9751,2.8318,2.8262,2.7591,2.672,2.6348,2.5708,2.5153,2.4919,2.5171,2.5538,2.5559,2.5728,2.5895,2.5906,2.5852,2.5902,2.5863,2.587,2.5584,2.4426,2.3606,2.2971,2.2365,2.2266,2.2359,2.2705,2.2537,2.2281,2.2162,2.1753,2.126,2.0674,1.9045,1.8006,1.8006,1.7188,1.6288,1.5455,1.6101,1.6609,1.6648,1.6656,1.6656,1.6656,1.7056,1.7274,1.7274,1.7311,1.7326,1.7326,1.7326,1.7977,1.9213,1.9257,1.9279,2.6417,3.0445,3.5687,3.9284,4.035,4.0226,3.9094,3.9158,3.9254,3.87,3.8886,3.9253,3.9617,4.0723,4.1714,4.2119,4.3519,4.4564,4.4472,4.4456,4.4081,4.3412,4.26,0.0,0.0,0.0,0.0,3.941,3.9953,4.053,4.1061,4.1219,4.1312,4.1391,4.0617,4.0319,4.0383,3.9915,3.9619,3.9649,3.9445,3.9651,4.0228,3.9734,3.9148,3.8573,3.8169,3.7638,3.7013,3.6738,3.6014,3.4911,3.4412,3.351,3.2362,3.1901,3.0872,2.979,2.9441,2.8782,2.8052,2.7667,2.7094,2.6456,2.6304,2.6262,2.6229,2.6229,2.6396,2.6561,2.6396,2.6456,2.6434,2.6385,2.6351,2.6202,2.55,2.4943,2.4451,2.387,2.3877,2.3911,2.3725,2.3647,2.3339,2.262,2.1824,2.1199,2.0986,2.0162,1.9153,1.8143,1.7708,1.7863,1.857,1.7945,1.731,1.673,1.7604,1.7765,1.7131,1.7191,1.7326,1.7326,1.7326,1.7757,1.8621,1.8621,1.8847,1.9294,2.0157,2.0559,3.2394,3.5943,3.953,4.1576,4.233,4.2251,4.1123,4.1055,4.0953,4.0304,3.9881,3.9652,3.9914,4.059,4.1457,4.2173,4.3462,4.4343,4.4476,4.4414,4.404,4.3171,4.2629,4.2155,0.0,0.0,0.0,4.0305,4.0812,4.1357,4.1763,4.1514,4.1477,4.1557,4.047,3.99,4.0068,3.9427,3.9032,3.8788,3.8883,3.9188,3.9601,3.9327,3.9113,3.8874,3.8649,3.8185,3.761,3.7401,3.682,3.595,3.5337,3.4454,3.339,3.2783,3.2026,3.1082,3.0164,2.9365,2.8724,2.8327,2.7765,2.7267,2.7126,2.6891,2.6727,2.6727,2.6727,2.6809,2.6727,2.6787,2.6832,2.7024,2.6801,2.6496,2.6411,2.588,2.5338,2.4763,2.4722,2.4641,2.4201,2.4243,2.4058,2.326,2.2178,2.1485,2.1399,2.0704,1.9915,1.8948,1.8845,1.9239,2.0206,1.9401,1.8583,1.7989,1.8506,1.8769,1.858,1.8215,1.8028,1.8028,1.8028,1.8438,1.9279,1.9279,1.9513,1.9989,2.0823,2.1211,4.2022,4.3542,4.3953,4.3741,4.4197,4.4242,4.2618,4.2217,4.1746,4.0668,4.0027,3.9846,0.0,0.0,4.1113,4.2703,4.3272,4.3658,4.3993,4.3775,4.3305,0.0,0.0,0.0,0.0,0.0,0.0,4.2295,0.0,4.228,4.2421,4.1719,4.1339,4.1339,3.9926,3.9329,3.9715,3.8465,3.8102,3.8496,3.86,3.8775,3.8918,3.8831,3.8826,3.8845,3.9157,3.9005,3.8561,3.8294,3.7918,3.7405,3.6616,3.5846,3.5103,3.4031,3.3129,3.2259,3.0633,2.9574,2.8791,2.8407,2.7926,2.751,2.751,2.729,2.6891,2.6891,2.6809,2.6644,2.6926,2.6926,2.7122,2.7897,2.7277,2.6646,2.7216,2.6502,2.5572,2.5242,2.4846,2.4526,2.4385,2.4459,2.4376,2.3938,2.2904,2.2078,2.1731,2.0925,2.0382,2.0292,2.0292,2.0292,2.0292,2.0292,2.0309,2.0252,1.9336,1.9495,2.0759,1.9894,1.9383,1.9279,1.9279,1.9308,1.9479,1.9413,2.0052,2.1325,2.1211,2.1247,4.1273,4.3489,4.5637,4.4627,4.46,4.4349,4.3125,4.2623,4.2065,4.0682,3.9798,3.8895,0.0,0.0,0.0,4.119,4.3176,0.0,4.4717,4.4496,0.0,4.2903,0.0,4.2247,4.2439,4.1977,0.0,0.0,4.2138,4.2042,4.2407,4.1324,4.071,4.071,3.8977,3.8079,3.8173,3.7537,3.7544,3.8083,3.7884,3.8273,3.9139,3.9741,4.0388,4.095,4.1442,4.1337,4.0812,3.9939,3.9259,3.8697,3.7993,3.6892,3.5763,3.5272,3.4252,3.3087,3.1955,3.0709,2.9651,2.9456,2.8907,2.8259,2.8259,2.7846,2.736,2.736,2.7196,2.7124,2.7595,2.7957,2.831,2.851,2.8912,2.9005,2.8252,2.7456,2.6824,2.6824,2.6285,2.5836,2.5999,2.5614,2.5189,2.4673,2.359,2.2608,2.182,2.1463,2.1105,2.0382,2.0292,2.0292,2.0292,1.9936,1.9802,1.9949,1.979,1.9603,1.9753,2.0205,2.0101,1.9272,1.9279,2.0173,2.2032,2.1012,2.1222,2.2562,2.166,2.1715,4.2177,4.4478,4.6754,4.6188,4.6066,4.5543,4.3634,4.2829,4.1837,3.9482,3.8352,3.7443,3.5989,3.7598,3.9278,0.0,0.0,0.0,4.4277,4.4304,4.3846,0.0,4.2609,0.0,4.2693,4.244,4.2389,0.0,4.2166,4.2088,4.2407,4.1178,4.049,4.049,3.8683,3.7482,3.703,3.6801,3.6902,3.7139,3.7066,3.7728,3.9164,3.9661,4.0526,4.1608,0.0,4.2167,4.1804,4.1166,4.0466,3.979,3.9071,3.8043,3.6869,3.6348,3.5314,3.4085,3.3248,3.2051,3.0859,3.0216,2.9599,2.8961,2.8816,2.8339,2.7812,2.7953,2.7694,2.7489,2.8014,2.8379,2.8637,2.8854,2.9143,2.9375,2.9206,2.8319,2.7371,2.706,2.6715,2.6504,2.6588,2.628,2.59,2.5495,2.468,2.3926,2.32,2.232,2.1463,2.1015,2.1534,2.1573,2.0443,2.0323,2.0355,2.0381,2.0329,2.0302,2.038,2.1003,2.1204,2.0979,2.0879,2.1719,2.3467,2.237,2.1916,2.2237,2.2134,2.2061,4.3861,4.5968,4.7444,4.7575,4.7667,4.6919,4.4076,4.2757,4.1124,3.7582,3.6455,3.562,3.4108,3.5858,3.775,3.8608,0.0,4.3204,4.3286,4.3541,4.3453,4.248,4.24,4.2413,4.24,4.2535,4.2416,4.2244,4.2273,4.2308,4.2339,4.1251,4.0534,4.0281,3.8717,3.7386,3.6339,3.6429,3.637,3.6127,3.6304,3.7329,3.9108,3.9326,4.0295,4.1826,4.2286,4.2466,4.2449,4.2219,4.1654,4.0831,4.0032,3.9107,3.8147,3.7425,3.6362,3.5193,3.4496,3.3353,3.2104,3.0989,3.0305,2.9764,2.9473,2.8943,2.8476,2.8598,2.8153,2.777,2.8268,2.8403,2.8528,2.9092,2.8899,2.895,2.9935,2.9035,2.78,2.7076,2.6997,2.6955,2.6877,2.6847,2.6651,2.6475,2.6101,2.5688,2.5225,2.3267,2.1913,2.1931,2.3174,2.3084,2.0867,2.1148,2.1324,2.0915,2.0955,2.1097,2.1714,2.2014,2.2477,2.3111,2.3014,2.3348,2.4125,2.353,2.2681,2.148,2.2435,2.2321,4.5194,4.6702,4.7561,4.6859,4.6933,4.6305,4.3382,4.1218,0.0,0.0,3.4663,3.359,3.2124,3.4478,3.6862,3.7975,4.0573,4.2615,4.3269,4.3417,4.3057,0.0,4.1796,4.1895,4.2177,4.1933,0.0,0.0,4.2541,4.2223,4.2078,4.1565,4.0596,3.9237,3.8318,3.7476,3.6607,3.6728,3.6505,3.5859,3.6313,3.759,3.9503,4.0215,4.1692,4.3849,4.4296,0.0,4.4426,4.3508,4.2685,4.1953,4.111,3.985,3.8573,3.8402,3.7515,3.6227,3.5626,3.4562,3.3257,3.2124,3.1293,3.0678,3.0742,3.0223,2.9475,2.9063,2.8488,2.7995,2.85,2.8533,2.8668,2.9534,2.9829,2.9908,3.0135,2.9795,2.9352,2.8793,2.8506,2.8354,2.8161,2.7881,2.7704,2.7389,2.7652,2.7599,2.694,2.471,2.319,2.3186,2.2806,2.2562,2.2464,2.1848,2.1425,2.118,2.0988,2.1188,2.2102,2.246,2.2963,2.3672,2.3239,2.3382,2.4242,2.4548,2.4092,2.2734,2.1899,2.1889,4.5902,4.723,4.8174,4.778,4.6896,4.5377,4.2065,0.0,0.0,0.0,3.2546,3.1772,3.0704,3.3115,0.0,3.6238,3.8738,4.0861,4.1945,4.1954,4.1855,4.1696,4.1696,4.1796,4.2079,4.2215,4.2413,4.2865,4.3012,4.2867,4.2319,4.1279,4.0211,3.9064,3.8261,3.7627,3.7126,3.7126,3.7067,3.6978,3.7379,3.8632,4.0526,4.1271,4.2568,4.4293,4.4703,4.4814,4.4708,4.4018,4.3298,4.2545,4.1708,4.0871,4.0093,3.9703,3.8926,3.7974,3.702,3.5747,3.4431,3.3587,3.2398,3.1225,3.1235,3.0658,2.9881,2.9542,2.8916,2.8422,2.8834,2.8956,2.9103,2.9543,2.9988,3.0182,3.0057,2.9874,2.9497,2.9035,2.885,2.8664,2.829,2.8196,2.8134,2.8052,2.8177,2.8196,2.7955,2.6341,2.5077,2.4516,2.4068,2.3662,2.3135,2.2895,2.2615,2.2265,2.2178,2.2316,2.2731,2.3045,2.3461,2.4136,2.3576,2.3821,2.4659,2.4274,2.4103,2.4135,2.2103,2.141,4.6341,4.7649,4.8695,4.8422,4.6982,4.459,4.089,3.8015,0.0,3.1875,3.0827,3.0358,2.9849,3.1916,3.3909,0.0,3.6649,3.8681,4.0263,4.0441,4.073,0.0,4.1597,0.0,4.198,4.2484,0.0,4.2791,4.3322,4.3393,4.2625,4.0987,3.9865,3.9547,3.8558,3.791,3.777,3.758,3.7671,3.8029,3.8396,3.9516,4.1271,4.1956,4.3041,4.4471,4.4773,4.4829,4.466,4.4557,4.3932,4.3065,4.2477,4.2061,4.1669,4.0857,4.0188,3.9521,3.8385,3.6944,3.5425,3.5021,3.345,3.1755,3.1795,3.1173,3.0441,3.0159,2.9681,2.9329,2.9431,2.9624,2.9799,2.9903,3.0273,3.0549,3.0388,3.01,2.981,2.9344,2.925,2.9052,2.858,2.8686,2.8907,2.8856,2.9012,2.8969,2.8842,2.8143,2.7223,2.6168,2.5459,2.4685,2.3745,2.3817,2.3712,2.3374,2.3351,2.3274,2.3359,2.3511,2.3886,2.4597,2.4165,2.4376,2.5238,2.3696,2.3737,2.498,2.2606,2.1497,4.6665,4.7947,4.8775,4.7352,4.6317,4.4556,4.0305,0.0,3.4657,3.2092,3.0664,2.9809,3.0013,3.0907,3.2044,0.0,0.0,3.662,3.873,3.9607,4.0348,4.0919,0.0,0.0,4.1696,4.2204,4.2763,4.3191,4.3259,4.3053,4.271,4.0853,4.0061,4.0622,3.9252,3.8427,3.8428,3.8148,3.8008,3.8029,3.8462,3.9516,4.1116,4.1792,4.3145,4.4857,4.5186,4.5278,0.0,4.564,4.4999,4.3829,4.3757,4.3308,4.2592,4.1789,4.1022,4.0251,3.9521,3.785,3.6045,3.5937,3.4402,3.267,3.2884,3.2495,3.179,3.1281,3.1167,3.1095,3.0541,3.0648,3.0937,3.1151,3.1605,3.1877,3.1723,3.1628,3.1426,3.0926,3.083,3.0637,3.0078,3.0262,3.0389,3.0359,3.0813,3.0919,3.0482,3.0133,2.9515,2.8411,2.617,2.4832,2.4939,2.4287,2.3782,2.3711,2.3436,2.3392,2.3737,2.4115,2.4606,2.5309,2.4981,2.5185,2.5586,2.3811,2.3737,2.5103,2.3611,2.2835,4.7105,4.7972,4.8244,4.7194,4.5406,4.3139,3.9659,0.0,3.374,3.1576,3.0276,2.9662,3.0238,3.0737,3.1455,0.0,0.0,0.0,3.5978,3.6489,3.7273,3.8812,3.9458,0.0,0.0,0.0,4.2679,4.3655,4.3504,4.3121,4.2675,4.1194,4.0536,4.0795,3.944,3.8859,3.9251,3.8738,3.877,3.9352,3.976,4.0516,4.1614,4.2696,4.3637,4.4521,4.5152,4.5351,0.0,4.5224,4.4708,4.3872,4.3685,4.3276,4.2755,4.2258,4.1647,4.1044,3.9975,3.8699,3.7284,3.6214,3.4838,3.3646,3.3214,3.2623,3.2002,3.1688,3.1467,3.1287,3.0975,3.1072,3.1287,3.1575,3.1766,3.191,3.1783,3.1567,3.1298,3.1013,3.0763,3.0491,3.0209,3.0394,3.0674,3.0868,3.1179,3.1281,3.092,3.045,2.9807,2.8896,2.7321,2.6158,2.5786,2.543,2.502,2.4543,2.4429,2.441,2.4361,2.4838,2.5213,2.5703,2.556,2.5544,2.5907,2.3956,2.3754,2.5068,2.4546,2.4289,4.7026,4.788,4.8073,4.6981,4.4957,4.2305,0.0,0.0,3.3514,3.1761,3.0331,2.9721,3.0599,3.0362,3.0599,0.0,0.0,3.2068,3.3891,3.4148,3.4885,3.6855,0.0,3.8418,0.0,4.1485,4.2666,4.3832,4.3282,4.2838,4.2404,4.1227,4.057,4.0481,3.9621,3.9271,3.9648,3.9238,3.9399,4.0146,4.0509,4.1164,4.2084,4.3121,4.3897,4.448,4.5033,4.5244,0.0,4.5021,4.4633,4.406,4.3929,4.3565,4.3152,4.2626,4.2129,4.1547,4.0322,3.9208,3.8054,3.6475,3.5174,3.4028,3.343,3.2819,3.2289,3.2149,3.1911,3.1825,3.1705,3.1911,3.2117,3.2213,3.231,3.236,3.2175,3.1786,3.1544,3.1361,3.0965,3.0581,3.0624,3.0723,3.0954,3.1251,3.1589,3.1589,3.1373,3.0844,3.0227,2.9505,2.8493,2.7418,2.6569,2.6216,2.58,2.528,2.5191,2.5171,2.4975,2.5335,2.572,2.5863,2.5906,2.5977,2.6075,2.4092,2.3581,2.4488,2.4876,2.4916,4.6329,4.7551,4.8386,4.6887,4.5017,4.2645,3.9356,3.6652,3.445,3.2803,3.1029,2.9976,3.1016,2.9733,2.9032,3.0581,0.0,0.0,3.2929,3.3514,3.425,0.0,0.0,3.5977,3.8269,4.0899,4.2776,4.3505,4.2482,0.0,4.1805,4.0645,3.9979,3.9802,3.9824,3.9592,3.9204,3.9528,3.9787,3.995,4.027,4.1109,4.2344,4.2683,4.3663,4.4983,4.4935,4.4951,0.0,4.5484,4.5142,4.4407,4.4744,4.4465,4.3756,4.2996,4.2266,4.1604,4.0631,3.9308,3.7987,3.6882,3.54,3.3888,3.3672,3.3264,3.2908,3.2932,3.288,3.2969,3.317,3.3469,3.3557,3.3369,3.3469,3.3534,3.3044,3.2901,3.2745,3.2072,3.1792,3.1567,3.1586,3.1607,3.171,3.1902,3.2218,3.2331,3.2004,3.1505,3.1002,3.0484,2.9418,2.8288,2.7237,2.648,2.5909,2.5762,2.534,2.5292,2.5352,2.5729,2.588,2.6024,2.6265,2.6319,2.6075,2.4092,2.312,2.3164,2.4459,2.4367,4.3295,4.4507,4.4991,4.3431,4.2252,4.0752,3.8046,3.6402,3.4811,3.2679,3.1788,3.1252,3.0939,3.0326,2.9892,3.03,2.9939,0.0,0.0,0.0,0.0,3.3149,3.5513,3.7816,0.0,0.0,4.1967,4.2555,4.2005,4.1476,4.1096,4.0127,3.9516,3.9296,3.9156,3.9102,3.8972,3.8801,3.9003,3.9553,4.0277,4.0954,4.1595,4.2894,4.3706,4.3982,4.458,4.4798,4.4666,4.484,4.4734,4.4339,4.4236,4.3849,4.322,4.2688,4.1951,4.1085,4.0128,3.9244,3.8233,3.6932,3.5675,3.4712,3.4148,3.3473,3.2931,3.3143,3.3181,3.3181,3.3281,3.3381,3.3381,3.3281,3.3381,3.3396,3.3402,3.3231,3.2911,3.2422,3.1978,3.1646,3.118,3.1322,3.1618,3.1721,3.2427,3.2721,3.2059,3.1799,3.1355,3.0527,2.9333,2.8426,2.7767,2.7116,2.6645,2.6385,2.5821,2.5749,2.6065,2.5981,2.5997,2.6372,2.6256,2.6248,2.6346,2.5138,2.4462,2.4444,2.3912,2.3413,0.0,4.2102,4.2531,4.1298,4.0495,0.0,3.7372,3.6057,3.4883,3.3263,3.2484,3.1949,3.1525,3.0749,3.0155,2.9855,2.9295,2.8876,0.0,0.0,0.0,3.1151,0.0,0.0,0.0,3.9648,4.0642,4.1024,4.0861,4.0397,3.984,3.915,3.8578,3.8162,3.8514,3.8473,3.821,3.827,3.86,3.9046,4.0009,4.0738,4.1289,4.2589,4.3213,4.3472,4.3807,4.3989,0.0,4.402,4.3957,4.3879,4.363,4.3299,4.285,4.2281,4.1619,4.0745,3.9867,3.8984,3.7926,3.6722,3.5706,3.4805,3.4234,3.3598,3.3076,3.33,3.3281,3.3281,3.3281,3.3419,3.3556,3.3556,3.3604,3.3629,3.3625,3.3369,3.2922,3.2416,3.2073,3.172,3.1146,3.1302,3.1445,3.1354,3.1994,3.2185,3.1662,3.1363,3.0979,3.0559,2.9222,2.8408,2.8305,2.7644,2.7049,2.6478,2.6229,2.6237,2.6362,2.6136,2.615,2.6577,2.6336,2.6215,2.6197,2.4961,2.4555,2.5052,2.355,2.2859,0.0,3.993,4.059,3.9977,3.929,3.8337,3.7063,3.5755,0.0,3.4338,3.3132,3.2162,3.2264,3.1109,2.9927,2.9378,2.8714,2.8328,0.0,2.8533,0.0,0.0,3.2104,0.0,3.4531,3.7295,3.9114,3.9091,3.9039,3.8807,3.8372,3.7723,3.7142,3.6638,3.767,3.7893,3.7055,3.7969,3.8515,3.8587,3.9593,4.053,4.1383,4.1793,4.2431,0.0,4.285,4.285,4.317,4.3076,4.3076,4.325,4.2996,4.2835,4.2607,4.1937,4.1283,4.0602,3.9779,3.8599,3.723,3.6402,3.532,3.4365,3.4095,3.3694,3.3338,3.3338,3.3338,3.3338,3.3338,3.3694,3.4062,3.4062,3.4118,3.4088,3.3675,3.3292,3.289,3.2416,3.2067,3.1741,3.1455,3.1445,3.1307,3.0798,3.1088,3.1109,3.0881,3.0412,3.0178,3.056,2.9035,2.8257,2.8943,2.8191,2.7151,2.6271,2.6583,2.6741,2.6449,2.6434,2.6423,2.6684,2.6587,2.636,2.5739,2.4192,2.3874,2.5059,2.3686,2.2996,3.2561,0.0,3.6605,3.6652,3.6358,3.5904,0.0,3.5211,3.475,3.3484,0.0,3.269,3.1898,3.1196,3.0381,2.9541,2.9038,2.871,2.8408,2.8923,0.0,3.1273,3.2424,3.3515,3.4906,3.6314,3.7304,3.7705,3.7515,3.7518,3.7789,3.6874,3.64,3.6625,3.7048,3.7257,3.7331,3.7766,3.8422,3.9197,3.9671,4.0249,4.0873,4.1645,4.1957,4.1883,4.2295,4.2377,4.2363,4.2607,4.2769,4.2769,4.2363,4.2199,4.2131,4.1549,4.1043,4.0516,3.9087,3.8004,3.6989,3.5174,3.4418,3.4123,3.3788,3.372,3.3832,3.3832,3.3832,3.3832,3.3832,3.4222,3.4509,3.4277,3.4065,3.3989,3.3977,3.3605,3.32,3.3306,3.2786,3.2028,3.1152,3.1178,3.1053,3.0569,3.1317,3.1742,3.1064,3.1102,3.0903,3.0098,2.9085,2.8445,2.8437,2.7744,2.7398,2.7452,2.7326,2.7169,2.7225,2.6924,2.6883,2.6943,2.6969,2.6639,2.5817,2.5542,2.5293,2.5052,2.4781,2.3959,3.0253,3.2484,3.4458,3.4829,3.4973,3.4954,3.4858,0.0,0.0,0.0,0.0,3.2938,3.1922,3.1408,3.0714,2.9421,2.9043,0.0,0.0,0.0,2.9526,3.0745,3.1476,3.2224,0.0,3.4632,3.5598,3.6239,3.6369,3.6603,3.7005,3.6397,3.6056,3.6303,3.6922,3.7227,3.7246,3.7759,3.8347,3.901,3.9524,3.9918,4.0259,4.0955,4.1254,4.1198,4.1465,4.1633,4.1717,4.1966,4.2131,4.2049,4.18,4.1619,4.1521,4.1297,4.0773,4.0069,3.91,3.7926,3.6628,3.4908,3.4065,3.3685,3.3845,3.4084,3.423,3.421,3.4142,3.413,3.3925,3.4266,3.4698,3.4274,3.4296,3.4336,3.4054,3.3723,3.3428,3.3243,3.287,3.2455,3.1805,3.1532,3.1266,3.0891,3.1354,3.1573,3.0988,3.0721,3.0456,3.0098,2.9115,2.8482,2.8751,2.8186,2.7838,2.7846,2.7661,2.7505,2.7498,2.7132,2.7021,2.7075,2.7101,2.6753,2.6153,2.6067,2.5665,2.5059,2.5059,2.4645,2.9719,3.1768,3.363,3.3744,3.4219,3.4699,3.4593,0.0,0.0,0.0,0.0,0.0,0.0,3.1818,0.0,0.0,0.0,0.0,2.8391,2.8339,2.8594,2.9392,3.0093,0.0,3.137,3.2969,3.4254,3.4917,3.5517,3.6013,3.6321,3.6012,3.592,3.6015,3.6947,3.739,3.7184,3.7833,3.8268,3.856,3.9285,3.9662,3.9688,4.0204,4.0583,4.1027,0.0,0.0,4.1582,4.1581,4.1539,4.144,4.1439,4.1213,4.1001,4.1043,4.0588,3.9692,3.8908,3.7546,3.5978,3.5017,3.3939,3.3213,3.3901,3.4317,3.4589,3.4555,3.4425,3.4233,3.391,3.4313,3.469,3.4367,3.4571,3.4747,3.4155,3.3717,3.3285,3.2841,3.2727,3.2727,3.2727,3.2292,3.1836,3.1385,3.1323,3.1203,3.0882,3.0155,2.9779,3.0064,2.9089,2.8579,2.9384,2.8908,2.8333,2.7967,2.7902,2.7648,2.7432,2.7262,2.7005,2.6991,2.7115,2.6802,2.6167,2.599,2.551,2.4957,2.4825,2.4869,2.9704,3.1888,3.3633,3.3059,3.3563,3.4041,3.3844,0.0,0.0,0.0,0.0,0.0,0.0,3.2218,3.1555,0.0,0.0,2.9377,0.0,0.0,2.8595,2.8764,0.0,2.9939,3.0701,3.2423,3.369,3.4129,3.4905,3.5517,3.6013,3.5612,3.5524,3.6015,3.6747,3.7217,3.7417,3.8081,3.8518,3.8803,3.9106,3.9363,3.9825,4.0536,4.0866,4.11,0.0,4.2247,4.2294,4.2223,4.2095,4.1866,4.1426,4.1043,4.0773,4.0787,4.0688,4.0055,3.6671,3.5295,3.492,3.4359,3.3726,3.3164,3.3271,3.3944,3.4861,3.5084,3.4967,3.4611,3.46,3.4892,3.5266,3.5277,3.488,3.4602,3.4401,3.3625,3.2841,3.2737,3.2727,3.2727,3.2727,3.2654,3.2282,3.1391,3.1187,3.1014,3.0344,3.0324,3.0092,2.97,2.9183,2.8965,2.9085,2.8929,2.8865,2.8801,2.8564,2.8122,2.7563,2.7272,2.6873,2.624,2.6851,2.6304,2.4848,2.5512,2.535,2.4488,2.3749,2.4005,2.856,3.0443,3.2214,3.2264,3.369,3.4996,3.4607,0.0,0.0,0.0,0.0,0.0,0.0,0.0,3.1505,3.0807,0.0,2.8821,2.8779,2.833,2.797,0.0,0.0,2.9389,3.0168,3.1377,3.2656,3.3876,3.4347,3.4804,3.5517,3.5487,3.5527,3.5824,3.637,3.6922,3.7307,3.7872,3.8309,3.8756,3.8755,3.8917,3.9184,3.9947,4.035,4.0451,0.0,4.1896,4.1945,4.1803,4.1783,4.1611,4.081,4.0257,3.9908,3.9908,3.8881,3.7217,3.5475,3.4433,3.3965,3.3779,3.3058,3.2318,3.2257,3.3347,3.472,3.53,3.5527,3.5387,3.4745,3.4748,3.4747,3.4076,3.3952,3.3942,3.3625,3.3409,3.3069,3.2727,3.2727,3.2727,3.2727,3.2727,3.2405,3.156,3.1395,3.1187,3.0672,3.0276,2.9922,2.9568,2.9213,2.8984,2.8984,2.8984,2.8865,2.8755,2.8397,2.802,2.7521,2.7366,2.7081,2.6661,2.7,2.6552,2.5404,2.563,2.5419,2.4732,2.4348,2.4066,2.7728,2.9371,3.1038,3.1748,0.0,3.5297,3.5137,0.0,0.0,0.0,0.0,0.0,0.0,3.1826,0.0,3.029,2.9164,2.8367,2.8518,2.7881,2.7467,2.7803,2.8264,2.8913,2.9604,3.0598,3.1794,3.3559,3.3855,3.431,3.5106,3.5199,3.5355,3.5537,3.5978,3.6515,3.7126,3.7686,3.8241,3.862,3.8698,3.8844,3.9044,3.976,4.0134,4.0295,4.13,4.177,4.1729,4.1645,4.173,4.173,4.0377,3.938,3.8652,3.8652,3.6977,3.4823,3.4823,3.415,3.3281,3.3281,3.2656,3.1936,3.1732,3.2984,3.4635,3.5091,3.529,3.5279,3.4635,3.43,3.3851,3.2955,3.3069,3.3285,3.2841,3.3069,3.3285,3.2841,3.2727,3.2727,3.2727,3.2727,3.2498,3.1682,3.1334,3.0976,3.0733,3.0274,2.9804,2.9568,2.9213,2.9103,2.8984,2.8984,2.8865,2.8636,2.8268,2.7935,2.7652,2.7608,2.745,2.7283,2.7308,2.6897,2.6056,2.6136,2.5571,2.4615,2.4984,2.4363,2.8054,2.9678,3.1093,3.1936,0.0,0.0,3.4655,3.3764,0.0,3.4406,0.0,0.0,0.0,3.1557,3.0339,2.9328,2.903,2.8664,2.7753,0.0,2.7263,2.7478,2.7847,2.841,2.9172,3.0571,3.1944,3.2964,3.3451,3.4106,3.5106,3.458,3.4492,3.5223,3.5488,3.6106,3.7207,3.7985,3.847,3.8738,3.9097,3.9653,4.0324,4.0874,4.1289,4.161,4.2434,4.2751,4.2807,4.2384,4.2736,4.32,4.0445,3.82,3.664,3.664,3.587,3.4823,3.4823,3.415,3.3281,3.3281,3.3281,3.2969,3.1936,3.2984,3.4524,3.4524,3.3738,3.3172,3.4188,3.3625,3.2841,3.2737,3.2727,3.2727,3.2727,3.2727,3.2727,3.2727,3.2727,3.2727,3.2727,3.2727,3.2498,3.1903,3.0743,3.0039,2.9922,2.9922,2.9804,2.9568,2.944,2.9331,2.8984,2.8984,2.8984,2.8984,2.8636,2.8318,2.8062,2.7739,2.7546,2.7655,2.7672,2.7066,2.5858,2.6769,2.5746,2.3304,2.4502,2.4363,2.6058,2.7499,2.8976,2.9986,0.0,0.0,0.0,0.0,0.0,0.0,3.3627,0.0,0.0,0.0,2.9808,2.9398,2.8652,2.797,2.7608,2.7079,2.6822,2.6926,2.7401,2.8059,2.9217,3.0351,3.136,3.2318,3.2992,3.3477,3.3993,3.4063,3.4281,3.464,3.4908,3.5586,3.6468,3.7298,3.7871,3.8265,3.8981,3.9372,3.9719,4.035,4.0638,4.0689,4.2043,4.2595,4.236,4.2339,4.2463,4.2461,4.0415,3.8703,3.7225,3.5893,3.5114,3.4726,3.4052,3.358,3.3488,3.4739,3.4611,3.4077,3.397,3.4164,3.4524,3.4524,3.3625,3.2841,3.3296,3.3069,3.2727,3.2727,3.2727,3.2727,3.2727,3.2727,3.2727,3.2727,3.2727,3.2727,3.2727,3.2727,3.2498,3.1903,3.1102,3.0411,3.0274,3.0157,3.0039,2.9558,2.9331,2.9103,2.8984,2.8984,2.8865,2.8755,2.8517,2.834,2.799,2.7965,2.7658,2.7327,2.7336,2.696,2.6323,2.6068,2.5328,2.4363,2.4857,2.4363,2.4089,2.552,2.7097,0.0,0.0,0.0,0.0,0.0,0.0,0.0,3.317,0.0,0.0,0.0,0.0,0.0,2.8188,2.7384,2.7407,2.6739,2.6336,2.6571,2.6926,2.7762,2.8948,2.9872,3.0757,3.1876,3.2362,3.2873,3.3231,3.3469,3.3703,3.4052,3.4237,3.4798,3.5636,3.6502,3.7274,3.7766,3.8605,3.9069,3.9388,4.0057,4.033,4.0327,4.1722,4.219,4.198,4.2302,4.2105,4.1385,3.9762,3.8724,3.7733,3.5605,3.4948,3.5124,3.38,3.3069,3.3186,3.5504,3.5511,3.4524,3.4969,3.4858,3.4524,3.4524,3.3851,3.3422,3.4012,3.3926,3.3586,3.3586,3.3141,3.2727,3.2727,3.2727,3.2727,3.2727,3.2727,3.2727,3.2727,3.2727,3.2498,3.1903,3.1344,3.0762,3.0392,3.0274,3.0039,2.9558,2.9331,2.9103,2.8984,2.8984,2.8874,2.8526,2.8526,2.8331,2.8076,2.7974,2.7798,2.7427,2.7309,2.7068,2.6701,2.6107,2.5501,2.5111,2.5111,2.4363,2.2403,2.3982,2.5743,0.0,0.0,0.0,0.0,0.0,0.0,3.3634,0.0,3.1394,3.1007,0.0,0.0,2.814,2.7547,2.6952,2.67,2.597,2.5855,2.6571,2.6571,2.7056,2.8361,2.9175,3.0185,3.1421,3.1706,3.2245,3.3056,3.2701,3.2745,3.3147,3.3446,3.3977,3.4881,3.5878,3.6653,3.7306,3.8064,3.8944,3.9671,3.9956,4.0352,4.0883,4.1584,4.1796,4.1796,4.2204,4.161,4.0287,3.8607,3.7986,3.7733,3.5629,3.5471,3.5979,3.4004,3.2589,3.2174,3.529,3.5511,3.4524,3.4524,3.4524,3.4524,3.4524,3.4534,3.4982,3.6883,3.6401,3.5418,3.5418,3.4062,3.2747,3.2737,3.2727,3.2727,3.2727,3.2727,3.2727,3.2727,3.2727,3.2498,3.1913,3.1344,3.0762,3.0392,3.0157,2.9804,2.9568,2.944,2.9331,2.8984,2.8975,2.8865,2.8517,2.8517,2.8327,2.8088,2.773,2.7765,2.8169,2.7801,2.7416,2.7177,2.7169,2.643,2.5111,2.5103,2.4348,2.1364,2.2725,0.0,2.5096,0.0,0.0,0.0,0.0,0.0,0.0,3.1118,3.0513,3.0102,0.0,0.0,2.7427,2.7064,2.6579,2.597,2.5733,2.5725,2.6197,2.6449,2.7056,2.8361,2.9058,2.9727,3.0661,3.1096,3.157,3.2053,3.2104,3.2331,3.2745,3.317,3.3538,3.3965,3.5039,3.562,3.5599,3.6332,3.7593,3.9183,3.9854,4.0324,4.0694,4.1398,4.1696,4.1796,4.2092,4.1498,4.0287,3.8607,3.7986,3.7796,3.6438,3.607,3.6077,3.4631,3.3878,3.3759,3.477,3.4736,3.4524,3.4858,3.4747,3.4524,3.4524,3.5015,3.5823,3.7057,3.6401,3.5418,3.5418,3.5014,3.4279,3.3006,3.2727,3.2727,3.2727,3.2727,3.2727,3.2727,3.2727,3.2612,3.2498,3.1576,3.0772,3.0421,2.9931,2.9568,2.9568,2.9331,2.9103,2.8984,2.8482,2.8084,2.7848,2.7355,2.7252,2.7669,2.7582,2.7514,2.7407,2.7295,2.7253,2.7165,2.6798,2.6101,2.5095,2.4595,2.3646,2.0512,2.193,0.0,2.4428,2.583,2.7224,2.8395,0.0,0.0,0.0,0.0,2.9901,2.9819,2.8496,0.0,2.7073,2.6457,2.597,2.561,2.5234,2.5226,2.5953,2.6205,2.6813,2.8131,2.8824,2.9403,3.0059,3.0584,3.0968,3.1083,3.1202,3.1414,3.1629,3.215,3.2555,3.2835,3.3758,3.417,3.404,3.4968,3.6042,3.7403,3.8491,3.9386,4.007,4.1106,4.1498,4.1398,4.1385,4.0997,3.9993,3.808,3.7334,3.7227,3.6592,3.6059,3.5511,3.4747,3.4188,3.3851,3.43,3.4524,3.4524,3.4524,3.4412,3.4412,3.4524,3.5223,3.6184,3.7134,3.6401,3.5418,3.5418,3.4879,3.4062,3.2965,3.2727,3.2727,3.2727,3.2727,3.2727,3.2727,3.2727,3.2727,3.2727,3.145,3.0518,3.0058,2.9686,2.9384,2.9108,2.8864,2.8682,2.84,2.793,2.7437,2.7079,2.651,2.6472,2.6822,2.684,2.6909,2.6842,2.6842,2.6919,2.6943,2.6579,2.6205,2.5578,2.4715,2.3646,1.988,0.0,0.0,2.4239,2.531,0.0,2.7042,2.8932,3.0714,3.1351,0.0,2.9559,2.9915,2.8394,2.7073,2.6952,2.597,2.5234,2.548,2.471,2.4556,2.5774,2.5644,2.6114,2.7674,2.8246,2.8829,2.9518,3.0218,3.0391,3.0146,3.0296,3.0391,3.0391,3.0774,3.1154,3.1451,3.2129,3.2532,3.2588,3.3648,3.4284,3.4745,3.6651,3.8266,3.9548,4.0776,4.1097,4.0694,4.0605,4.0096,3.9374,3.7131,3.6266,3.6168,3.6168,3.54,3.43,3.43,3.3625,3.282,3.3759,3.4159,3.4188,3.3738,3.3749,3.4086,3.43,3.5109,3.6023,3.6796,3.6025,3.518,3.518,3.4051,3.2819,3.2653,3.2498,3.2498,3.2498,3.2498,3.2498,3.2498,3.2498,3.2498,3.2498,3.1092,2.9912,2.9577,2.945,2.9173,2.8434,2.8388,2.8107,2.7353,2.7176,2.6902,2.6399,2.601,2.5754,2.5613,2.575,2.6097,2.6431,2.6439,2.6491,2.6591,2.6591,2.647,2.6219,2.5011,2.3872,1.8825,1.995,0.0,0.0,2.485,2.6295,2.6533,2.6928,2.775,2.8981,2.8834,2.8386,2.8218,2.7364,2.6579,2.5978,2.548,2.4988,2.4857,2.4132,2.3954,2.4811,2.4691,2.4989,2.6624,2.6725,2.7286,2.8665,2.9046,2.9263,2.9697,2.9931,3.0099,3.0099,3.0034,3.0049,3.0141,3.0181,3.048,3.105,3.1762,3.2508,3.3318,3.6553,3.8931,4.0614,4.0844,4.0694,4.0275,4.0402,3.9672,3.8198,3.6808,3.573,3.4847,3.4847,3.4065,3.3069,3.3069,3.2955,3.2489,3.1374,3.1876,3.3182,3.3512,3.3512,3.3523,3.3738,3.4525,3.5008,3.4012,3.3538,3.3306,3.3306,3.4093,3.4214,3.1759,3.1238,3.1238,3.1238,3.1238,3.1238,3.1238,3.1238,3.1238,3.1238,3.0167,2.9359,2.9552,2.9259,2.8947,2.8434,2.8146,2.7866,2.7353,2.6583,2.6056,2.5508,2.4982,2.4352,2.3845,2.496,2.5744,2.6054,2.6054,2.598,2.6065,2.6065,2.5939,2.557,2.4821,2.4112,0.0,0.0,0.0,2.2408,0.0,2.5354,2.5422,2.5643,2.5971,2.6679,2.6919,2.691,2.7156,2.6169,2.5324,2.4972,2.4361,2.3999,2.3877,2.3361,2.3255,2.4213,2.4039,2.4392,2.5792,2.6022,2.648,2.7604,2.8083,2.8368,2.8495,2.892,2.9142,2.9026,2.8793,2.8757,2.8973,2.8936,2.9121,2.9463,3.0262,3.1493,3.3099,3.6009,3.8266,4.0055,4.0282,4.0336,4.0389,4.0198,3.9569,3.8619,3.6363,3.5069,3.4412,3.3851,3.3296,3.2727,3.2727,3.2268,3.1516,2.9725,3.0207,3.1505,3.193,3.259,3.3048,3.3172,3.3278,3.3179,3.215,3.1818,3.1692,3.1092,3.2147,3.2805,3.1201,3.0889,3.0889,3.0889,3.0889,3.0889,3.0889,3.0411,2.9941,2.9941,2.9459,2.8983,2.8904,2.8797,2.8397,2.7628,2.745,2.6936,2.6204,2.5656,2.5044,2.4446,2.3905,2.3411,2.3151,2.3659,2.4353,2.4948,2.5062,2.5261,2.543,2.543,2.5315,2.5183,2.4532,2.4162,0.0,0.0,1.9929,2.1919,2.3161,0.0,2.4094,2.4285,2.4408,2.4474,2.492,2.5445,2.6131,2.4992,2.3959,2.3842,2.3135,2.2639,2.283,2.2312,2.2275,2.331,2.3138,2.3449,2.4598,2.4901,2.5396,2.6056,2.6791,2.7191,2.7103,2.7707,2.7853,2.7638,2.7468,2.7415,2.7727,2.7642,2.7723,2.7994,2.9215,3.0918,3.2955,3.4932,3.6948,3.8929,3.9255,3.9812,4.04,3.9943,3.9581,3.905,3.5817,3.4524,3.4412,3.3409,3.2841,3.2685,3.2138,3.1231,3.0205,2.876,2.8824,2.9525,2.9978,3.1045,3.2189,3.2436,3.2143,3.1672,3.1005,3.0889,3.0538,2.934,2.9695,3.0294,3.0528,3.0528,3.0528,3.0528,3.0528,3.0655,3.0889,2.9578,2.8572,2.8572,2.8572,2.8505,2.8131,2.8072,2.7706,2.6767,2.6592,2.6096,2.4923,2.4616,2.42,2.3402,2.2994,2.2689,2.2641,2.2372,2.2689,2.3529,2.3936,2.4326,2.4611,2.4611,2.4611,2.4611,2.3926,2.3951,0.0,0.0,1.8926,0.0,2.147,2.2325,0.0,0.0,2.2112,0.0,2.3408,2.4416,2.4833,2.3989,2.3254,2.2898,2.2549,2.1985,2.1364,2.0851,2.067,2.0783,2.0543,2.081,2.1674,2.2063,2.2573,2.364,2.455,2.5371,2.5818,2.647,2.6763,2.6763,2.6033,2.5739,2.605,2.5381,2.5561,2.6645,2.878,3.0285,3.1366,3.2945,3.5161,3.756,3.8235,3.8665,3.8894,3.9433,3.9166,3.7974,3.5499,3.4524,3.4524,3.43,3.3625,3.2272,2.9819,2.8751,2.8603,2.8369,2.7755,2.7275,2.8528,2.924,3.0006,3.1496,3.1903,3.1672,3.1005,3.0889,3.0538,2.934,2.8268,2.7908,2.8984,2.9222,2.9222,2.9222,2.9222,2.9577,3.0655,2.8748,2.6912,2.6912,2.6912,2.7123,2.7814,2.7609,2.7295,2.6731,2.6264,2.5656,2.4812,2.4056,2.3386,2.2906,2.26,2.2166,2.1583,2.1779,2.1885,2.177,2.2601,2.3203,2.3459,2.3253,2.3253,2.3459,2.2706,2.2836,1.4328,1.5945,1.7456,0.0,1.9762,2.037,2.0765,0.0,2.0642,2.0793,2.0856,2.1177,2.2425,2.2099,2.1436,2.1197,2.0706,2.0212,1.9743,1.9453,1.9355,1.9348,1.9384,1.9621,2.016,2.0416,2.0947,2.1802,2.2699,2.3443,2.3888,2.4587,2.5005,2.5014,2.4578,2.4499,2.493,2.4537,2.4909,2.629,2.7394,2.8697,3.019,3.1456,3.3492,3.6195,3.7242,3.8025,3.8726,3.9397,3.8025,3.5313,3.4173,3.312,3.1943,3.1943,3.1629,3.0864,2.8985,2.8291,2.8184,2.7549,2.6573,2.5767,2.6764,2.7336,2.8005,2.9388,3.0581,3.1102,3.0049,2.934,2.8627,2.8029,2.7556,2.6962,2.6681,2.7876,2.8746,2.8029,2.8507,2.9222,2.9695,2.7532,2.5815,2.6482,2.6035,2.5719,2.6046,2.6225,2.6127,2.5927,2.5299,2.4667,2.4056,2.326,2.2575,2.2006,2.1844,2.1603,2.1138,2.1282,2.1171,2.0861,2.182,2.242,2.2526,2.242,2.2307,2.2209,2.2212,2.2251,0.0,0.0,1.5361,1.6967,1.783,1.8363,0.0,0.0,1.906,0.0,1.8196,1.7988,1.9449,1.9585,1.9442,1.932,1.8807,1.84,1.7918,1.7811,1.7846,1.7756,1.7901,1.8094,1.8311,1.8575,1.8985,1.9477,2.0407,2.1139,2.1454,2.2511,2.3109,2.3118,2.3193,2.353,2.4155,2.4145,2.4726,2.5897,2.6207,2.7297,2.9191,3.0411,3.2225,3.4486,3.5795,3.7045,3.8041,3.8604,3.6658,3.3235,3.2412,3.1304,2.9994,2.9669,2.9564,2.9353,2.8291,2.7862,2.7647,2.6473,2.5485,2.4923,2.5357,2.5916,2.6573,2.7539,2.9007,2.9881,2.837,2.6964,2.6016,2.6016,2.6016,2.5713,2.4611,2.6226,2.7656,2.6695,2.7317,2.7903,2.7903,2.6241,2.5034,2.5586,2.4923,2.4368,2.459,2.4923,2.4991,2.487,2.4487,2.3871,2.3244,2.2649,2.202,2.1473,2.137,2.1195,2.0933,2.0837,2.0662,2.04,2.1033,2.1409,2.1498,2.149,2.1426,2.1225,2.1537,2.1325,0.0,1.1427,0.0,1.4046,1.5308,0.0,0.0,0.0,1.6881,1.6673,1.6315,1.6012,1.5579,1.6544,1.7427,1.7407,1.7407,1.7014,1.5866,1.5967,1.594,1.5466,1.5401,1.5381,1.5381,1.5626,1.5884,1.6116,1.7317,1.8239,1.8628,2.0119,2.1163,2.1711,2.2144,2.2703,2.353,2.4145,2.4726,2.5216,2.5625,2.661,2.8292,2.9959,3.114,3.2002,3.4039,3.526,3.5803,3.6318,3.5308,3.2998,3.0192,2.9439,2.9889,2.8824,2.8398,2.8184,2.7126,2.67,2.6473,2.5264,2.4821,2.4821,2.4821,2.5255,2.5907,2.6473,2.7498,2.7879,2.559,2.414,2.3238,2.3238,2.3238,2.3214,2.3143,2.4236,2.5197,2.4989,2.4932,2.5052,2.5052,2.4872,2.4479,2.3352,2.3127,2.3352,2.3913,2.4128,2.4208,2.3863,2.3911,2.3497,2.2575,2.218,2.1814,2.1473,2.1131,2.0941,2.0925,2.0599,2.0408,2.0392,2.0098,2.0114,2.0448,2.0586,2.0545,2.0545,2.0162,2.0059,0.0,0.0,0.0,1.203,1.3052,1.3749,1.4233,1.4481,1.4502,1.4406,1.4105,1.3737,1.3461,1.475,1.5607,1.5293,1.5253,1.5042,1.4643,1.4727,1.464,1.4031,1.3982,1.4123,1.4594,1.4487,1.4447,1.4903,1.5191,1.5768,1.6577,1.712,1.7991,1.9257,2.0184,2.1566,2.3459,2.4017,2.444,2.4726,2.503,2.6055,2.7605,2.8624,3.0063,3.1638,3.2408,3.361,3.503,3.464,3.3545,3.2072,3.0274,2.9302,2.8824,2.7657,2.7225,2.7008,2.5815,2.5485,2.5264,2.4024,2.3689,2.3689,2.3689,2.3801,2.4128,2.5145,2.5128,2.4667,2.3913,2.3352,2.2788,2.2002,2.1888,2.1888,2.1888,2.2836,2.3733,2.3682,2.3689,2.3689,2.3689,2.3689,2.3464,2.3014,2.3014,2.3127,2.3239,2.3308,2.3291,2.3277,2.2814,2.2445,2.1851,2.1522,2.1043,2.0491,2.0553,2.048,2.0249,2.0122,1.985,1.9532,1.9626,1.9736,1.9862,1.9897,1.9652,1.9345,1.9201,1.8708,0.8169,0.0,0.0,0.0,0.0,1.1264,1.213,1.2307,1.2227,1.2134,1.193,1.1722,1.1457,1.2354,1.3124,1.3199,1.3176,1.3072,1.298,1.3229,1.3284,1.2667,1.2715,1.3075,1.3454,1.3143,1.2986,1.3301,1.3116,0.0,1.4292,1.4742,1.5834,1.7973,1.9085,2.0603,2.2563,2.3251,2.3749,2.4147,2.4322,2.5034,2.628,2.7279,2.889,3.1066,3.1418,3.2633,3.4249,3.358,3.2656,3.1424,2.9973,2.8717,2.7539,2.6464,2.5697,2.5357,2.4923,2.4479,2.4033,2.3239,2.2675,2.2456,2.2456,2.2456,2.2675,2.3809,2.3585,2.2901,2.2449,2.2456,2.223,2.1439,2.1211,2.1211,2.1211,2.1774,2.2456,2.2456,2.2456,2.2456,2.2456,2.2456,2.2456,2.2456,2.2562,2.262,2.2464,2.2545,2.2509,2.2269,2.211,2.1739,2.1178,2.0949,2.0672,2.0023,2.0182,2.0114,1.9779,1.9541,1.9272,1.8876,1.8781,1.8732,1.875,1.9077,1.8988,1.8397,1.8233,1.7405,0.0,0.0,0.0,0.0,0.0,0.0,1.0397,0.0,1.0018,0.9759,0.9943,0.9976,0.9432,0.9334,0.9752,1.1128,1.1379,1.1226,1.0763,1.133,1.1617,1.1376,1.1671,1.1932,1.1974,1.1584,1.1293,1.1146,1.0988,1.1174,1.1887,1.292,1.4933,1.7853,1.8943,2.0039,2.1046,2.1796,2.2573,2.3279,2.3317,2.3683,2.4536,2.5767,2.7621,2.9911,3.1084,3.2117,3.3101,3.3258,3.2555,3.1311,2.9122,2.7549,2.6364,2.5154,2.4033,2.3127,2.4368,2.3921,2.2901,2.2901,2.2116,2.1211,2.1211,2.1211,2.1432,2.2562,2.2901,2.2675,2.1432,2.1096,2.1081,2.1045,2.1067,2.1096,2.1096,2.1096,2.1096,2.1211,2.1211,2.1211,2.1211,2.1181,2.1152,2.1152,2.1623,2.1812,2.1262,2.1608,2.1736,2.1059,2.1605,2.1534,2.056,2.0696,2.064,1.9992,1.9945,1.9747,1.9439,1.8785,1.8497,1.8544,1.7627,1.718,1.721,1.8134,1.8353,1.786,1.7127,1.5831,0.6132,0.0,0.0,0.0,0.0,0.0,0.0,0.0,0.7462,0.7679,0.762,0.7635,0.7799,0.7609,0.7654,0.7879,0.8813,0.9502,0.9289,0.9801,1.0217,1.0119,1.0167,1.0497,1.1209,1.084,1.0651,0.0,1.051,1.0706,1.1458,1.2809,1.4284,1.5941,1.7113,1.8595,2.0337,2.1205,2.1977,2.2479,2.2848,2.3137,2.3426,2.4929,2.6084,2.7013,2.9415,2.9838,2.9085,3.1262,3.1424,3.0297,2.8824,2.7107,2.5154,2.3913,2.3239,2.3014,2.3352,2.2675,2.166,2.166,2.1432,2.1096,2.0169,2.0522,2.1325,2.1546,2.166,2.1196,1.9113,1.8532,1.8327,1.7501,1.7936,1.8532,1.8532,1.8532,1.8997,2.0859,2.0522,2.0176,2.1096,2.0435,1.9813,1.9813,2.0317,2.0678,2.045,2.0475,2.034,2.0157,2.0411,2.035,1.9859,2.0014,1.9815,1.9082,1.9159,1.8878,1.8203,1.7812,1.7455,1.7048,1.6422,1.6012,1.5917,1.6686,1.6886,1.6584,1.5687,1.446,0.0,0.0,0.0,0.0,0.0,0.0,0.5676,0.567,0.557,0.5871,0.5943,0.5987,0.6093,0.6015,0.5993,0.5839,0.6603,0.7358,0.7853,0.8629,0.9123,0.9184,0.9502,0.9766,1.0001,0.9933,0.9921,0.9907,0.9626,0.9931,1.0988,1.2195,1.3439,1.4595,1.5639,1.6954,1.882,1.9572,2.0424,2.141,2.1751,2.208,2.2464,2.3336,2.39,2.4041,2.514,2.5723,2.617,2.7773,2.886,2.9142,2.8087,2.6523,2.4754,2.2886,2.2222,2.2222,2.2222,2.1774,2.1211,2.1211,2.0867,2.0291,1.9597,1.9945,2.0406,2.0406,2.0406,1.9936,1.7503,1.6482,1.6109,1.5935,1.6362,1.6821,1.6821,1.6819,1.759,2.0622,1.9815,1.8853,1.9598,1.912,1.8695,1.9091,1.9427,1.9649,1.9823,1.9817,1.9732,1.9806,1.9804,1.9706,1.9497,1.9326,1.8972,1.8305,1.8303,1.7964,1.7116,1.6869,1.6507,1.6013,1.5362,1.4967,1.4741,1.5445,1.5431,1.4905,1.4128,1.3076,0.0,0.0,0.0,0.0,0.0,0.0,0.475,0.4545,0.4143,0.4313,0.4562,0.4762,0.4365,0.4501,0.465,0.4568,0.4737,0.5295,0.663,0.7614,0.8286,0.8493,0.9062,0.9266,0.8608,0.9011,0.9151,0.8939,0.889,0.9481,1.0715,1.1609,1.2576,1.3724,1.4259,1.5352,1.7094,1.7509,1.8498,2.0155,2.0333,2.0842,2.1642,2.1651,2.1553,2.1266,1.9796,2.067,2.332,2.3429,2.5181,2.7755,2.6682,2.5626,2.4601,2.2094,2.1096,2.0981,2.1096,2.1096,2.0981,2.0981,2.0169,1.9133,1.9133,1.9133,1.9133,1.9133,1.915,1.847,1.6247,1.4934,1.4407,1.5464,1.5678,1.5678,1.5678,1.549,1.6414,1.9686,1.8758,1.7256,1.7248,1.7371,1.7702,1.8374,1.8651,1.8826,1.9028,1.9326,1.9513,1.9502,1.9385,1.9275,1.9022,1.8575,1.8126,1.7524,1.7423,1.7072,1.6338,1.5958,1.5568,1.5198,1.4327,1.3724,1.3453,1.4269,1.4076,1.3118,1.2644,1.1939,0.0,0.0,0.0,0.0,0.0,0.0,0.3413,0.3229,0.3132,0.322,0.3164,0.3116,0.3242,0.3325,0.3375,0.3307,0.3852,0.4662,0.5922,0.6585,0.7061,0.7415,0.7865,0.8145,0.8414,0.8627,0.8763,0.8878,0.958,1.0241,1.0865,1.1714,1.2455,1.2917,1.3427,1.4333,1.5639,1.675,1.789,1.9098,1.9883,2.0661,2.1374,2.1114,2.0391,1.9271,1.8271,1.7896,1.8171,1.8708,2.149,2.5357,2.4136,2.3634,2.3281,2.1758,2.0637,1.9945,2.0867,2.0522,1.9713,1.9713,1.8887,1.7837,1.7837,1.7837,1.7837,1.7837,1.7202,1.6265,1.4883,1.4407,1.4299,1.4515,1.4509,1.4509,1.4509,1.4246,1.4282,1.4981,1.5585,1.5759,1.5001,1.5992,1.6861,1.6832,1.7596,1.8149,1.7991,1.8156,1.8235,1.8031,1.8098,1.7993,1.7435,1.7665,1.7379,1.6482,1.6529,1.6382,1.577,1.52,1.4429,1.363,1.2451,1.1754,1.144,1.3139,1.353,1.2778,1.2346,1.1284,0.0,0.0,0.0,0.3591,0.0,0.0,0.0,0.2852,0.2769,0.2602,0.2376,0.2237,0.2439,0.2564,0.2553,0.2446,0.2717,0.337,0.4659,0.5542,0.6247,0.6483,0.6856,0.7339,0.7827,0.809,0.8484,0.911,0.9933,1.071,1.1385,1.2129,1.2677,1.3047,1.3285,1.4078,1.5294,1.5937,1.7118,1.8725,1.917,1.9753,2.0175,1.9661,1.901,1.8089,1.7277,1.652,1.5891,1.6832,1.8104,1.9697,2.1384,2.1767,2.1081,2.0515,1.9475,1.8461,1.8559,1.8138,1.7677,1.7542,1.7126,1.6446,1.5949,1.5801,1.5801,1.5801,1.5435,1.4939,1.4299,1.3753,1.3315,1.3315,1.2881,1.2559,1.2866,1.2813,1.2618,1.2223,1.3174,1.3882,1.3529,1.4277,1.5172,1.5573,1.6103,1.6472,1.6744,1.6921,1.7069,1.7234,1.6988,1.6742,1.6501,1.6378,1.6118,1.5339,1.5453,1.524,1.4534,1.392,1.2999,1.1638,1.0742,1.0262,1.0477,1.1257,1.1562,1.1311,1.1148,1.037,0.0,0.0,0.0,0.0,0.0,0.296,0.0,0.0,0.0,0.218,0.1884,0.1673,0.1582,0.0,0.0,0.1754,0.0,0.0,0.0,0.4601,0.0,0.5701,0.6139,0.6603,0.716,0.7627,0.8373,0.9478,1.0202,1.1077,1.2062,1.249,1.2939,1.344,1.3404,1.3999,1.5116,1.5234,1.6254,1.8025,1.8294,1.8591,1.8742,1.8269,1.7705,1.7225,1.648,1.5639,1.4836,1.5773,1.525,1.4175,1.8262,1.9239,1.8454,1.8454,1.789,1.6978,1.5707,1.5244,1.5161,1.5074,1.4971,1.4835,1.4088,1.3867,1.3867,1.3867,1.3867,1.3867,1.3867,1.2989,1.2001,1.1782,1.1017,1.0404,1.0494,1.0627,1.0609,1.0159,1.0803,1.1769,1.2274,1.2718,1.3195,1.4089,1.4422,1.4719,1.5407,1.5501,1.577,1.6176,1.5827,1.5497,1.5404,1.5102,1.4715,1.4157,1.424,1.4062,1.3398,1.2206,1.0963,0.9688,0.8989,0.8887,0.9397,0.9077,0.9208,0.9782,0.9621,0.9034,0.0,0.0,0.0,0.0,0.3367,0.0,0.0,0.0,0.2509,0.1892,0.0,0.1116,0.0436,0.0,0.0,0.0,0.0,0.0,0.2741,0.363,0.4501,0.5038,0.5535,0.6059,0.6599,0.7785,0.8899,0.9836,1.0476,1.1209,1.2312,1.2747,1.3155,1.3651,1.3455,1.3789,1.4494,1.4922,1.5445,1.6058,1.7135,1.7641,1.7568,1.758,1.7281,1.6619,1.5834,1.4956,1.4059,1.4048,1.3372,1.2529,1.4299,1.4892,1.4789,1.4789,1.5219,1.5579,1.3502,1.2762,1.2777,1.2769,1.2798,1.2784,1.2687,1.255,1.255,1.255,1.255,1.255,1.255,1.1782,1.0582,0.9596,0.9158,0.851,0.6556,0.6583,0.7094,0.7541,0.8126,0.9114,1.1072,1.1447,1.1529,1.2005,1.285,1.3423,1.3452,1.3933,1.4154,1.3998,1.406,1.3921,1.3545,1.3868,1.3601,1.2689,1.2849,1.3045,1.3392,0.9677,0.7748,0.8146,0.7409,0.7058,0.717,0.713,0.7692,0.8851,0.8086,0.737,0.0,0.0,0.0,0.0,0.0,0.0,0.3083,0.0,0.2228,0.0,0.0,0.0,0.0,0.0,0.0,0.0,0.1309,0.0,0.0,0.0,0.3981,0.4714,0.0,0.0,0.6915,0.7942,0.9058,1.0228,1.0855,1.1597,1.2782,1.3111,1.3427,1.3716,1.3728,1.3904,1.431,1.4469,1.4733,1.5255,1.564,1.5988,1.6195,1.5993,1.5837,1.5719,1.4745,1.4027,1.3561,1.2884,1.2304,1.1761,1.1236,1.1906,1.3098,1.2441,1.1702,1.1065,1.053,1.0351,1.0241,0.9578,0.9805,1.0363,1.0363,0.9915,0.9467,1.0139,1.0363,1.0363,1.0363,1.0033,0.9154,0.7271,0.6376,0.5786,0.5789,0.5419,0.527,0.5758,0.6032,0.6429,0.7319,0.8814,0.9945,1.015,1.0757,1.1241,1.151,1.1888,1.2224,1.2225,1.2503,1.2462,1.2034,1.2392,1.232,1.1449,1.1538,1.156,1.1193,0.9114,0.7453,0.6234,0.5743,0.5328,0.5079,0.5317,0.5577,0.5848,0.6479,0.6644,0.5454,0.0,0.0,0.0,0.0,0.0,0.0,0.0,0.0,0.0,0.0,0.0,0.0,0.0,0.0,0.0,0.0,0.2029,0.0,0.314,0.0,0.0,0.0,0.0,0.0,0.8596,0.9511,1.0656,1.1089,1.1814,1.3033,1.3219,1.3402,1.381,1.3721,1.3797,1.4042,1.3834,1.3835,1.4117,1.4187,1.4276,1.4441,1.4266,1.423,1.4335,1.343,1.2989,1.2828,1.1856,1.1397,1.0972,0.9606,0.9827,1.092,1.0182,0.9089,0.7919,0.8223,0.8194,0.7802,0.6746,0.6837,0.7396,0.7467,0.6818,0.6487,0.7604,0.794,0.794,0.794,0.794,0.7493,0.5826,0.4422,0.3799,0.5018,0.4648,0.4275,0.4589,0.4651,0.4533,0.4533,0.6429,0.8024,0.8219,0.8616,0.9095,0.9637,1.0,1.0233,1.0543,1.0705,1.0757,1.0479,1.0731,1.0739,1.0279,1.0308,1.0131,0.9745,0.8235,0.6451,0.4375,0.4047,0.3789,0.3383,0.3703,0.3753,0.3691,0.5265,0.6026,0.0,0.0,0.0,0.4002,0.0,0.0,0.0,0.0,0.2025,0.0,0.0,0.0,0.0,0.0,0.0,0.0,0.0,0.0,0.0,0.0,0.0,0.0,0.0,0.0,0.0,0.9762,1.0373,1.1301,1.1159,1.1609,1.292,1.2947,1.3201,1.3796,1.343,1.3253,1.3313,1.2902,1.2457,1.2118,1.2779,1.2767,1.2125,1.267,1.2747,1.2454,1.2144,1.1732,1.1236,1.1139,1.0501,0.964,0.9616,0.8829,0.7656,0.7965,0.7935,0.7641,0.7018,0.6202,0.5343,0.4636,0.4053,0.3648,0.3773,0.3699,0.3923,0.5156,0.5493,0.5493,0.5493,0.5493,0.5493,0.5382,0.4262,0.3273,0.3493,0.3628,0.3857,0.413,0.4084,0.4033,0.4033,0.4935,0.5734,0.5927,0.6631,0.7285,0.7834,0.8101,0.8396,0.8625,0.8736,0.8755,0.8881,0.8923,0.8973,0.9266,0.8946,0.9166,0.9976,0.6069,0.3532,0.2588,0.2512,0.2452,0.2481,0.2449,0.2748,0.3244,0.4718,0.5277,0.0,0.0,0.458,0.4183,0.0,0.0,0.0,0.0,0.0,0.0,0.0,0.0,0.0,0.0,0.0,0.0,0.0,0.0,0.0,0.0,0.5595,0.0,0.0,0.0,0.0,0.0,1.0742,1.1544,1.1369,1.1682,1.2817,1.2835,1.2913,1.3046,1.3117,1.3002,1.2785,1.2058,1.1588,1.1327,1.0963,1.0825,1.0835,1.0925,1.1064,1.1253,1.0957,1.0759,1.0609,1.0114,0.9579,0.9018,0.8674,0.7913,0.7003,0.7672,0.7376,0.6476,0.6155,0.5636,0.499,0.4941,0.4536,0.38,0.2775,0.186,0.1444,0.2547,0.2409,0.1779,0.1779,0.2304,0.2933,0.2933,0.2468,0.2443,0.3771,0.3745,0.3282,0.265,0.2227,0.2016,0.1915,0.2392,0.3162,0.4447,0.5136,0.5589,0.5769,0.6182,0.6488,0.671,0.7039,0.7083,0.6873,0.7156,0.7588,0.8036,0.8499,0.8599,0.8315,0.4846,0.2783,0.2471,0.1923,0.1613,0.153,0.1739,0.201,0.2199,0.2664,0.3762,0.5473,0.5114,0.0,0.4353,0.3855,0.0,0.3071,0.0,0.2154,0.0,0.0,0.0,0.0,0.0,0.0,0.0,0.0,0.0,0.0,0.5063,0.0,0.8614,0.8795,0.0,0.0,1.1264,1.1457,1.1737,1.1435,1.1478,0.0,1.2326,1.2403,1.2438,1.2525,1.2382,1.1933,1.1123,1.0519,1.0262,0.9459,0.9148,0.944,0.9264,0.9423,0.9907,0.9723,0.9727,0.9749,0.9374,0.8855,0.8361,0.7824,0.7018,0.6179,0.6954,0.643,0.5302,0.5276,0.4831,0.4271,0.4559,0.3851,0.2812,0.1552,0.0633,-0.0,-0.0102,-0.0606,-0.111,-0.111,-0.0606,-0.0,0.0404,0.0505,0.0811,0.1955,0.225,0.1921,0.11,0.0595,0.0296,0.0198,0.0293,0.0971,0.274,0.3406,0.3743,0.4018,0.4365,0.4786,0.5117,0.556,0.5734,0.5357,0.5743,0.6318,0.7022,0.7561,0.7242,0.5774,0.3406,0.2091,0.2099,0.1229,0.0851,0.1134,0.1331,0.1471,0.1487,0.1541,0.2513]}]]